<?xml version="1.0" encoding="UTF-8" standalone="no" ?>
<gpx xmlns="http://www.topografix.com/GPX/1/1" xmlns:xsi="http://www.w3.org/2001/XMLSchema-instance" xsi:schemaLocation="http://www.topografix.com/GPX/1/1 http://www.topografix.com/GPX/1/1/gpx.xsd" version="1.1" creator="VisuGPX - https://www.visugpx.com">
  <metadata>
    <name>VTT du samedi 18 août 2012 (14 km)</name>
    <desc><![CDATA[il y a quand même deux montées assez raides.
Températures élevées, terrain très sec]]></desc>
  </metadata>
  <trk>
    <name><![CDATA[Coulevon09 (13,5 km)]]></name>
    <trkseg>
      <trkpt lat="47.64471" lon="6.18264">
        <ele>230.19999694824</ele>
        <time>2012-08-18T07:16:38.000Z</time>
      </trkpt>
      <trkpt lat="47.64474" lon="6.18261">
        <ele>230.19999694824</ele>
        <time>2012-08-18T07:16:39.000Z</time>
      </trkpt>
      <trkpt lat="47.64479" lon="6.18253">
        <ele>230.19999694824</ele>
        <time>2012-08-18T07:16:41.000Z</time>
      </trkpt>
      <trkpt lat="47.64481" lon="6.18249">
        <ele>230.19999694824</ele>
        <time>2012-08-18T07:16:42.000Z</time>
      </trkpt>
      <trkpt lat="47.64493" lon="6.18222">
        <ele>230.19999694824</ele>
        <time>2012-08-18T07:16:49.000Z</time>
      </trkpt>
      <trkpt lat="47.64501" lon="6.182">
        <ele>230.19999694824</ele>
        <time>2012-08-18T07:16:54.000Z</time>
      </trkpt>
      <trkpt lat="47.64503" lon="6.1818">
        <ele>230.19999694824</ele>
        <time>2012-08-18T07:16:57.000Z</time>
      </trkpt>
      <trkpt lat="47.64502" lon="6.18173">
        <ele>230.19999694824</ele>
        <time>2012-08-18T07:16:58.000Z</time>
      </trkpt>
      <trkpt lat="47.64495" lon="6.18147">
        <ele>230.19999694824</ele>
        <time>2012-08-18T07:17:02.000Z</time>
      </trkpt>
      <trkpt lat="47.64495" lon="6.1814">
        <ele>230.19999694824</ele>
        <time>2012-08-18T07:17:03.000Z</time>
      </trkpt>
      <trkpt lat="47.64496" lon="6.18126">
        <ele>230.19999694824</ele>
        <time>2012-08-18T07:17:05.000Z</time>
      </trkpt>
      <trkpt lat="47.645" lon="6.18108">
        <ele>230.19999694824</ele>
        <time>2012-08-18T07:17:08.000Z</time>
      </trkpt>
      <trkpt lat="47.64508" lon="6.18074">
        <ele>230.19999694824</ele>
        <time>2012-08-18T07:17:15.000Z</time>
      </trkpt>
      <trkpt lat="47.64518" lon="6.1805">
        <ele>230.19999694824</ele>
        <time>2012-08-18T07:17:21.000Z</time>
      </trkpt>
      <trkpt lat="47.64537" lon="6.18029">
        <ele>230.19999694824</ele>
        <time>2012-08-18T07:17:29.000Z</time>
      </trkpt>
      <trkpt lat="47.64538" lon="6.18025">
        <ele>230.60000610352</ele>
        <time>2012-08-18T07:17:30.000Z</time>
      </trkpt>
      <trkpt lat="47.6454" lon="6.18022">
        <ele>231.19999694824</ele>
        <time>2012-08-18T07:17:31.000Z</time>
      </trkpt>
      <trkpt lat="47.64542" lon="6.18019">
        <ele>231.60000610352</ele>
        <time>2012-08-18T07:17:32.000Z</time>
      </trkpt>
      <trkpt lat="47.64543" lon="6.18015">
        <ele>232</ele>
        <time>2012-08-18T07:17:33.000Z</time>
      </trkpt>
      <trkpt lat="47.64545" lon="6.18012">
        <ele>232.39999389648</ele>
        <time>2012-08-18T07:17:34.000Z</time>
      </trkpt>
      <trkpt lat="47.64551" lon="6.17989">
        <ele>232.39999389648</ele>
        <time>2012-08-18T07:17:39.000Z</time>
      </trkpt>
      <trkpt lat="47.64557" lon="6.17962">
        <ele>232.39999389648</ele>
        <time>2012-08-18T07:17:43.000Z</time>
      </trkpt>
      <trkpt lat="47.64561" lon="6.17947">
        <ele>232.39999389648</ele>
        <time>2012-08-18T07:17:45.000Z</time>
      </trkpt>
      <trkpt lat="47.64571" lon="6.17926">
        <ele>232.39999389648</ele>
        <time>2012-08-18T07:17:48.000Z</time>
      </trkpt>
      <trkpt lat="47.64582" lon="6.17913">
        <ele>232.39999389648</ele>
        <time>2012-08-18T07:17:50.000Z</time>
      </trkpt>
      <trkpt lat="47.64598" lon="6.17896">
        <ele>231.60000610352</ele>
        <time>2012-08-18T07:17:52.000Z</time>
      </trkpt>
      <trkpt lat="47.64598" lon="6.17896">
        <ele>231.60000610352</ele>
        <time>2012-08-18T07:17:53.000Z</time>
      </trkpt>
      <trkpt lat="47.64603" lon="6.17891">
        <ele>231</ele>
        <time>2012-08-18T07:17:54.000Z</time>
      </trkpt>
      <trkpt lat="47.64609" lon="6.17888">
        <ele>230.60000610352</ele>
        <time>2012-08-18T07:17:55.000Z</time>
      </trkpt>
      <trkpt lat="47.64615" lon="6.17887">
        <ele>230.19999694824</ele>
        <time>2012-08-18T07:17:56.000Z</time>
      </trkpt>
      <trkpt lat="47.64622" lon="6.17887">
        <ele>230.19999694824</ele>
        <time>2012-08-18T07:17:57.000Z</time>
      </trkpt>
      <trkpt lat="47.64634" lon="6.1789">
        <ele>230.19999694824</ele>
        <time>2012-08-18T07:17:59.000Z</time>
      </trkpt>
      <trkpt lat="47.64644" lon="6.17894">
        <ele>230.19999694824</ele>
        <time>2012-08-18T07:18:01.000Z</time>
      </trkpt>
      <trkpt lat="47.6467" lon="6.17909">
        <ele>230.19999694824</ele>
        <time>2012-08-18T07:18:07.000Z</time>
      </trkpt>
      <trkpt lat="47.64681" lon="6.1792">
        <ele>230.19999694824</ele>
        <time>2012-08-18T07:18:10.000Z</time>
      </trkpt>
      <trkpt lat="47.64691" lon="6.17933">
        <ele>230.19999694824</ele>
        <time>2012-08-18T07:18:13.000Z</time>
      </trkpt>
      <trkpt lat="47.64709" lon="6.17957">
        <ele>230.19999694824</ele>
        <time>2012-08-18T07:18:19.000Z</time>
      </trkpt>
      <trkpt lat="47.64736" lon="6.18">
        <ele>230.19999694824</ele>
        <time>2012-08-18T07:18:28.000Z</time>
      </trkpt>
      <trkpt lat="47.64766" lon="6.18043">
        <ele>230.19999694824</ele>
        <time>2012-08-18T07:18:37.000Z</time>
      </trkpt>
      <trkpt lat="47.64777" lon="6.18055">
        <ele>230.19999694824</ele>
        <time>2012-08-18T07:18:40.000Z</time>
      </trkpt>
      <trkpt lat="47.6479" lon="6.18061">
        <ele>230.19999694824</ele>
        <time>2012-08-18T07:18:43.000Z</time>
      </trkpt>
      <trkpt lat="47.64823" lon="6.18071">
        <ele>230.19999694824</ele>
        <time>2012-08-18T07:18:51.000Z</time>
      </trkpt>
      <trkpt lat="47.64849" lon="6.18076">
        <ele>230.19999694824</ele>
        <time>2012-08-18T07:18:58.000Z</time>
      </trkpt>
      <trkpt lat="47.64873" lon="6.18082">
        <ele>230.19999694824</ele>
        <time>2012-08-18T07:19:04.000Z</time>
      </trkpt>
      <trkpt lat="47.64888" lon="6.18086">
        <ele>230.19999694824</ele>
        <time>2012-08-18T07:19:07.000Z</time>
      </trkpt>
      <trkpt lat="47.64907" lon="6.1809">
        <ele>230.19999694824</ele>
        <time>2012-08-18T07:19:11.000Z</time>
      </trkpt>
      <trkpt lat="47.64938" lon="6.18095">
        <ele>230.19999694824</ele>
        <time>2012-08-18T07:19:18.000Z</time>
      </trkpt>
      <trkpt lat="47.64966" lon="6.18098">
        <ele>230.19999694824</ele>
        <time>2012-08-18T07:19:25.000Z</time>
      </trkpt>
      <trkpt lat="47.64984" lon="6.18094">
        <ele>230.19999694824</ele>
        <time>2012-08-18T07:19:29.000Z</time>
      </trkpt>
      <trkpt lat="47.64993" lon="6.18093">
        <ele>230.19999694824</ele>
        <time>2012-08-18T07:19:31.000Z</time>
      </trkpt>
      <trkpt lat="47.65028" lon="6.18091">
        <ele>230.19999694824</ele>
        <time>2012-08-18T07:19:39.000Z</time>
      </trkpt>
      <trkpt lat="47.65057" lon="6.18093">
        <ele>230.19999694824</ele>
        <time>2012-08-18T07:19:46.000Z</time>
      </trkpt>
      <trkpt lat="47.65088" lon="6.181">
        <ele>230.19999694824</ele>
        <time>2012-08-18T07:19:53.000Z</time>
      </trkpt>
      <trkpt lat="47.65092" lon="6.18101">
        <ele>230.19999694824</ele>
        <time>2012-08-18T07:19:54.000Z</time>
      </trkpt>
      <trkpt lat="47.651" lon="6.18099">
        <ele>230.19999694824</ele>
        <time>2012-08-18T07:19:56.000Z</time>
      </trkpt>
      <trkpt lat="47.65117" lon="6.18094">
        <ele>230.19999694824</ele>
        <time>2012-08-18T07:20:00.000Z</time>
      </trkpt>
      <trkpt lat="47.6513" lon="6.18089">
        <ele>230.19999694824</ele>
        <time>2012-08-18T07:20:03.000Z</time>
      </trkpt>
      <trkpt lat="47.65138" lon="6.18083">
        <ele>230.19999694824</ele>
        <time>2012-08-18T07:20:05.000Z</time>
      </trkpt>
      <trkpt lat="47.65142" lon="6.1808">
        <ele>230.19999694824</ele>
        <time>2012-08-18T07:20:06.000Z</time>
      </trkpt>
      <trkpt lat="47.65163" lon="6.18055">
        <ele>230.19999694824</ele>
        <time>2012-08-18T07:20:12.000Z</time>
      </trkpt>
      <trkpt lat="47.65166" lon="6.18049">
        <ele>230.19999694824</ele>
        <time>2012-08-18T07:20:13.000Z</time>
      </trkpt>
      <trkpt lat="47.65177" lon="6.18031">
        <ele>230.19999694824</ele>
        <time>2012-08-18T07:20:17.000Z</time>
      </trkpt>
      <trkpt lat="47.65196" lon="6.18002">
        <ele>230.19999694824</ele>
        <time>2012-08-18T07:20:24.000Z</time>
      </trkpt>
      <trkpt lat="47.65211" lon="6.17992">
        <ele>230.60000610352</ele>
        <time>2012-08-18T07:20:28.000Z</time>
      </trkpt>
      <trkpt lat="47.65214" lon="6.17989">
        <ele>231</ele>
        <time>2012-08-18T07:20:29.000Z</time>
      </trkpt>
      <trkpt lat="47.65219" lon="6.17985">
        <ele>231.39999389648</ele>
        <time>2012-08-18T07:20:30.000Z</time>
      </trkpt>
      <trkpt lat="47.65223" lon="6.17983">
        <ele>231.80000305176</ele>
        <time>2012-08-18T07:20:31.000Z</time>
      </trkpt>
      <trkpt lat="47.65228" lon="6.17981">
        <ele>232.19999694824</ele>
        <time>2012-08-18T07:20:32.000Z</time>
      </trkpt>
      <trkpt lat="47.65232" lon="6.17979">
        <ele>232.19999694824</ele>
        <time>2012-08-18T07:20:33.000Z</time>
      </trkpt>
      <trkpt lat="47.65247" lon="6.17977">
        <ele>232.19999694824</ele>
        <time>2012-08-18T07:20:36.000Z</time>
      </trkpt>
      <trkpt lat="47.65251" lon="6.17978">
        <ele>232.19999694824</ele>
        <time>2012-08-18T07:20:37.000Z</time>
      </trkpt>
      <trkpt lat="47.65264" lon="6.17984">
        <ele>232.19999694824</ele>
        <time>2012-08-18T07:20:40.000Z</time>
      </trkpt>
      <trkpt lat="47.65282" lon="6.18006">
        <ele>232.19999694824</ele>
        <time>2012-08-18T07:20:45.000Z</time>
      </trkpt>
      <trkpt lat="47.65285" lon="6.18013">
        <ele>232.19999694824</ele>
        <time>2012-08-18T07:20:46.000Z</time>
      </trkpt>
      <trkpt lat="47.65291" lon="6.18026">
        <ele>232.19999694824</ele>
        <time>2012-08-18T07:20:48.000Z</time>
      </trkpt>
      <trkpt lat="47.65294" lon="6.1804">
        <ele>232.19999694824</ele>
        <time>2012-08-18T07:20:50.000Z</time>
      </trkpt>
      <trkpt lat="47.65302" lon="6.18087">
        <ele>232.19999694824</ele>
        <time>2012-08-18T07:20:57.000Z</time>
      </trkpt>
      <trkpt lat="47.65304" lon="6.18107">
        <ele>232.19999694824</ele>
        <time>2012-08-18T07:21:00.000Z</time>
      </trkpt>
      <trkpt lat="47.65309" lon="6.18124">
        <ele>232.19999694824</ele>
        <time>2012-08-18T07:21:03.000Z</time>
      </trkpt>
      <trkpt lat="47.65312" lon="6.18136">
        <ele>232.19999694824</ele>
        <time>2012-08-18T07:21:05.000Z</time>
      </trkpt>
      <trkpt lat="47.65316" lon="6.18147">
        <ele>232.19999694824</ele>
        <time>2012-08-18T07:21:07.000Z</time>
      </trkpt>
      <trkpt lat="47.65324" lon="6.18162">
        <ele>232.19999694824</ele>
        <time>2012-08-18T07:21:10.000Z</time>
      </trkpt>
      <trkpt lat="47.6535" lon="6.18195">
        <ele>232.19999694824</ele>
        <time>2012-08-18T07:21:18.000Z</time>
      </trkpt>
      <trkpt lat="47.65378" lon="6.18222">
        <ele>232.19999694824</ele>
        <time>2012-08-18T07:21:26.000Z</time>
      </trkpt>
      <trkpt lat="47.65388" lon="6.18231">
        <ele>232.19999694824</ele>
        <time>2012-08-18T07:21:29.000Z</time>
      </trkpt>
      <trkpt lat="47.65396" lon="6.18237">
        <ele>232.19999694824</ele>
        <time>2012-08-18T07:21:31.000Z</time>
      </trkpt>
      <trkpt lat="47.65418" lon="6.18251">
        <ele>232.19999694824</ele>
        <time>2012-08-18T07:21:38.000Z</time>
      </trkpt>
      <trkpt lat="47.65436" lon="6.18259">
        <ele>232.60000610352</ele>
        <time>2012-08-18T07:21:44.000Z</time>
      </trkpt>
      <trkpt lat="47.65439" lon="6.18261">
        <ele>233</ele>
        <time>2012-08-18T07:21:45.000Z</time>
      </trkpt>
      <trkpt lat="47.65442" lon="6.18262">
        <ele>233.39999389648</ele>
        <time>2012-08-18T07:21:46.000Z</time>
      </trkpt>
      <trkpt lat="47.65445" lon="6.18264">
        <ele>233.80000305176</ele>
        <time>2012-08-18T07:21:47.000Z</time>
      </trkpt>
      <trkpt lat="47.65448" lon="6.18264">
        <ele>234.19999694824</ele>
        <time>2012-08-18T07:21:48.000Z</time>
      </trkpt>
      <trkpt lat="47.65456" lon="6.18265">
        <ele>234.19999694824</ele>
        <time>2012-08-18T07:21:51.000Z</time>
      </trkpt>
      <trkpt lat="47.65473" lon="6.18264">
        <ele>234.60000610352</ele>
        <time>2012-08-18T07:21:57.000Z</time>
      </trkpt>
      <trkpt lat="47.65476" lon="6.18262">
        <ele>235.19999694824</ele>
        <time>2012-08-18T07:21:58.000Z</time>
      </trkpt>
      <trkpt lat="47.65478" lon="6.18261">
        <ele>235.60000610352</ele>
        <time>2012-08-18T07:21:59.000Z</time>
      </trkpt>
      <trkpt lat="47.65481" lon="6.1826">
        <ele>236</ele>
        <time>2012-08-18T07:22:00.000Z</time>
      </trkpt>
      <trkpt lat="47.65483" lon="6.1826">
        <ele>236.39999389648</ele>
        <time>2012-08-18T07:22:01.000Z</time>
      </trkpt>
      <trkpt lat="47.65488" lon="6.1826">
        <ele>236.39999389648</ele>
        <time>2012-08-18T07:22:03.000Z</time>
      </trkpt>
      <trkpt lat="47.65505" lon="6.18255">
        <ele>236.39999389648</ele>
        <time>2012-08-18T07:22:10.000Z</time>
      </trkpt>
      <trkpt lat="47.65519" lon="6.18251">
        <ele>236.39999389648</ele>
        <time>2012-08-18T07:22:15.000Z</time>
      </trkpt>
      <trkpt lat="47.65525" lon="6.18248">
        <ele>236.80000305176</ele>
        <time>2012-08-18T07:22:17.000Z</time>
      </trkpt>
      <trkpt lat="47.65528" lon="6.18247">
        <ele>237.19999694824</ele>
        <time>2012-08-18T07:22:18.000Z</time>
      </trkpt>
      <trkpt lat="47.65531" lon="6.18245">
        <ele>237.60000610352</ele>
        <time>2012-08-18T07:22:19.000Z</time>
      </trkpt>
      <trkpt lat="47.65534" lon="6.18244">
        <ele>238</ele>
        <time>2012-08-18T07:22:20.000Z</time>
      </trkpt>
      <trkpt lat="47.65537" lon="6.18243">
        <ele>238.60000610352</ele>
        <time>2012-08-18T07:22:21.000Z</time>
      </trkpt>
      <trkpt lat="47.6554" lon="6.18242">
        <ele>238.60000610352</ele>
        <time>2012-08-18T07:22:22.000Z</time>
      </trkpt>
      <trkpt lat="47.65559" lon="6.18231">
        <ele>238.60000610352</ele>
        <time>2012-08-18T07:22:29.000Z</time>
      </trkpt>
      <trkpt lat="47.65575" lon="6.18214">
        <ele>238.60000610352</ele>
        <time>2012-08-18T07:22:35.000Z</time>
      </trkpt>
      <trkpt lat="47.65597" lon="6.18185">
        <ele>238.60000610352</ele>
        <time>2012-08-18T07:22:42.000Z</time>
      </trkpt>
      <trkpt lat="47.65614" lon="6.18166">
        <ele>238.60000610352</ele>
        <time>2012-08-18T07:22:46.000Z</time>
      </trkpt>
      <trkpt lat="47.65619" lon="6.18164">
        <ele>238.60000610352</ele>
        <time>2012-08-18T07:22:47.000Z</time>
      </trkpt>
      <trkpt lat="47.65632" lon="6.18165">
        <ele>238.60000610352</ele>
        <time>2012-08-18T07:22:50.000Z</time>
      </trkpt>
      <trkpt lat="47.65634" lon="6.18165">
        <ele>238.60000610352</ele>
        <time>2012-08-18T07:22:51.000Z</time>
      </trkpt>
      <trkpt lat="47.65646" lon="6.1816">
        <ele>238.60000610352</ele>
        <time>2012-08-18T07:22:56.000Z</time>
      </trkpt>
      <trkpt lat="47.6566" lon="6.18147">
        <ele>238.60000610352</ele>
        <time>2012-08-18T07:23:03.000Z</time>
      </trkpt>
      <trkpt lat="47.6568" lon="6.18128">
        <ele>238.60000610352</ele>
        <time>2012-08-18T07:23:12.000Z</time>
      </trkpt>
      <trkpt lat="47.65691" lon="6.18108">
        <ele>238.60000610352</ele>
        <time>2012-08-18T07:23:17.000Z</time>
      </trkpt>
      <trkpt lat="47.65704" lon="6.18085">
        <ele>238.60000610352</ele>
        <time>2012-08-18T07:23:23.000Z</time>
      </trkpt>
      <trkpt lat="47.65722" lon="6.18063">
        <ele>239.39999389648</ele>
        <time>2012-08-18T07:23:31.000Z</time>
      </trkpt>
      <trkpt lat="47.65724" lon="6.18061">
        <ele>239.80000305176</ele>
        <time>2012-08-18T07:23:32.000Z</time>
      </trkpt>
      <trkpt lat="47.65727" lon="6.18059">
        <ele>240.19999694824</ele>
        <time>2012-08-18T07:23:33.000Z</time>
      </trkpt>
      <trkpt lat="47.65729" lon="6.18057">
        <ele>240.60000610352</ele>
        <time>2012-08-18T07:23:34.000Z</time>
      </trkpt>
      <trkpt lat="47.65739" lon="6.18051">
        <ele>240.60000610352</ele>
        <time>2012-08-18T07:23:38.000Z</time>
      </trkpt>
      <trkpt lat="47.65752" lon="6.18043">
        <ele>241</ele>
        <time>2012-08-18T07:23:44.000Z</time>
      </trkpt>
      <trkpt lat="47.65754" lon="6.18042">
        <ele>241.39999389648</ele>
        <time>2012-08-18T07:23:45.000Z</time>
      </trkpt>
      <trkpt lat="47.65756" lon="6.1804">
        <ele>241.80000305176</ele>
        <time>2012-08-18T07:23:46.000Z</time>
      </trkpt>
      <trkpt lat="47.65759" lon="6.18039">
        <ele>242.19999694824</ele>
        <time>2012-08-18T07:23:47.000Z</time>
      </trkpt>
      <trkpt lat="47.65762" lon="6.18039">
        <ele>242.60000610352</ele>
        <time>2012-08-18T07:23:48.000Z</time>
      </trkpt>
      <trkpt lat="47.65768" lon="6.18035">
        <ele>242.60000610352</ele>
        <time>2012-08-18T07:23:51.000Z</time>
      </trkpt>
      <trkpt lat="47.65779" lon="6.18026">
        <ele>242.60000610352</ele>
        <time>2012-08-18T07:23:57.000Z</time>
      </trkpt>
      <trkpt lat="47.65783" lon="6.18024">
        <ele>243</ele>
        <time>2012-08-18T07:23:59.000Z</time>
      </trkpt>
      <trkpt lat="47.65785" lon="6.18022">
        <ele>243.60000610352</ele>
        <time>2012-08-18T07:24:00.000Z</time>
      </trkpt>
      <trkpt lat="47.65787" lon="6.1802">
        <ele>244</ele>
        <time>2012-08-18T07:24:01.000Z</time>
      </trkpt>
      <trkpt lat="47.65789" lon="6.18019">
        <ele>244.39999389648</ele>
        <time>2012-08-18T07:24:02.000Z</time>
      </trkpt>
      <trkpt lat="47.65791" lon="6.18016">
        <ele>244.80000305176</ele>
        <time>2012-08-18T07:24:03.000Z</time>
      </trkpt>
      <trkpt lat="47.65796" lon="6.18012">
        <ele>244.80000305176</ele>
        <time>2012-08-18T07:24:05.000Z</time>
      </trkpt>
      <trkpt lat="47.65812" lon="6.17999">
        <ele>244.80000305176</ele>
        <time>2012-08-18T07:24:10.000Z</time>
      </trkpt>
      <trkpt lat="47.65816" lon="6.17996">
        <ele>244.80000305176</ele>
        <time>2012-08-18T07:24:11.000Z</time>
      </trkpt>
      <trkpt lat="47.65839" lon="6.17978">
        <ele>244.80000305176</ele>
        <time>2012-08-18T07:24:16.000Z</time>
      </trkpt>
      <trkpt lat="47.65856" lon="6.17965">
        <ele>244.39999389648</ele>
        <time>2012-08-18T07:24:19.000Z</time>
      </trkpt>
      <trkpt lat="47.65862" lon="6.17961">
        <ele>243.60000610352</ele>
        <time>2012-08-18T07:24:20.000Z</time>
      </trkpt>
      <trkpt lat="47.65868" lon="6.17958">
        <ele>243.19999694824</ele>
        <time>2012-08-18T07:24:21.000Z</time>
      </trkpt>
      <trkpt lat="47.65874" lon="6.17956">
        <ele>242.80000305176</ele>
        <time>2012-08-18T07:24:22.000Z</time>
      </trkpt>
      <trkpt lat="47.65887" lon="6.17952">
        <ele>242.80000305176</ele>
        <time>2012-08-18T07:24:24.000Z</time>
      </trkpt>
      <trkpt lat="47.65901" lon="6.17951">
        <ele>242.80000305176</ele>
        <time>2012-08-18T07:24:26.000Z</time>
      </trkpt>
      <trkpt lat="47.65908" lon="6.1795">
        <ele>242.19999694824</ele>
        <time>2012-08-18T07:24:27.000Z</time>
      </trkpt>
      <trkpt lat="47.65915" lon="6.17948">
        <ele>241.80000305176</ele>
        <time>2012-08-18T07:24:28.000Z</time>
      </trkpt>
      <trkpt lat="47.65922" lon="6.17946">
        <ele>241.39999389648</ele>
        <time>2012-08-18T07:24:29.000Z</time>
      </trkpt>
      <trkpt lat="47.65929" lon="6.17945">
        <ele>241</ele>
        <time>2012-08-18T07:24:30.000Z</time>
      </trkpt>
      <trkpt lat="47.65937" lon="6.17944">
        <ele>240.60000610352</ele>
        <time>2012-08-18T07:24:31.000Z</time>
      </trkpt>
      <trkpt lat="47.65945" lon="6.17944">
        <ele>240.60000610352</ele>
        <time>2012-08-18T07:24:32.000Z</time>
      </trkpt>
      <trkpt lat="47.65953" lon="6.17944">
        <ele>240.19999694824</ele>
        <time>2012-08-18T07:24:33.000Z</time>
      </trkpt>
      <trkpt lat="47.65961" lon="6.17945">
        <ele>239.80000305176</ele>
        <time>2012-08-18T07:24:34.000Z</time>
      </trkpt>
      <trkpt lat="47.65969" lon="6.17946">
        <ele>239.39999389648</ele>
        <time>2012-08-18T07:24:35.000Z</time>
      </trkpt>
      <trkpt lat="47.65976" lon="6.17947">
        <ele>239</ele>
        <time>2012-08-18T07:24:36.000Z</time>
      </trkpt>
      <trkpt lat="47.65984" lon="6.17948">
        <ele>238.60000610352</ele>
        <time>2012-08-18T07:24:37.000Z</time>
      </trkpt>
      <trkpt lat="47.66" lon="6.17948">
        <ele>238.60000610352</ele>
        <time>2012-08-18T07:24:39.000Z</time>
      </trkpt>
      <trkpt lat="47.66036" lon="6.17951">
        <ele>238.19999694824</ele>
        <time>2012-08-18T07:24:44.000Z</time>
      </trkpt>
      <trkpt lat="47.66043" lon="6.17952">
        <ele>237.39999389648</ele>
        <time>2012-08-18T07:24:45.000Z</time>
      </trkpt>
      <trkpt lat="47.66049" lon="6.17952">
        <ele>237</ele>
        <time>2012-08-18T07:24:46.000Z</time>
      </trkpt>
      <trkpt lat="47.66056" lon="6.17952">
        <ele>236.60000610352</ele>
        <time>2012-08-18T07:24:47.000Z</time>
      </trkpt>
      <trkpt lat="47.66084" lon="6.17953">
        <ele>236.60000610352</ele>
        <time>2012-08-18T07:24:52.000Z</time>
      </trkpt>
      <trkpt lat="47.66125" lon="6.17952">
        <ele>236.60000610352</ele>
        <time>2012-08-18T07:25:01.000Z</time>
      </trkpt>
      <trkpt lat="47.66159" lon="6.17953">
        <ele>236.60000610352</ele>
        <time>2012-08-18T07:25:09.000Z</time>
      </trkpt>
      <trkpt lat="47.66192" lon="6.17957">
        <ele>236.60000610352</ele>
        <time>2012-08-18T07:25:17.000Z</time>
      </trkpt>
      <trkpt lat="47.66231" lon="6.17966">
        <ele>236.60000610352</ele>
        <time>2012-08-18T07:25:26.000Z</time>
      </trkpt>
      <trkpt lat="47.66271" lon="6.17972">
        <ele>236.60000610352</ele>
        <time>2012-08-18T07:25:34.000Z</time>
      </trkpt>
      <trkpt lat="47.66311" lon="6.17974">
        <ele>236.60000610352</ele>
        <time>2012-08-18T07:25:41.000Z</time>
      </trkpt>
      <trkpt lat="47.66327" lon="6.17974">
        <ele>236.60000610352</ele>
        <time>2012-08-18T07:25:45.000Z</time>
      </trkpt>
      <trkpt lat="47.66331" lon="6.17977">
        <ele>236.60000610352</ele>
        <time>2012-08-18T07:25:46.000Z</time>
      </trkpt>
      <trkpt lat="47.66335" lon="6.17989">
        <ele>236.60000610352</ele>
        <time>2012-08-18T07:25:48.000Z</time>
      </trkpt>
      <trkpt lat="47.66338" lon="6.18001">
        <ele>236.60000610352</ele>
        <time>2012-08-18T07:25:50.000Z</time>
      </trkpt>
      <trkpt lat="47.66345" lon="6.18024">
        <ele>236.60000610352</ele>
        <time>2012-08-18T07:25:54.000Z</time>
      </trkpt>
      <trkpt lat="47.66348" lon="6.1803">
        <ele>236.60000610352</ele>
        <time>2012-08-18T07:25:55.000Z</time>
      </trkpt>
      <trkpt lat="47.66369" lon="6.18071">
        <ele>236.60000610352</ele>
        <time>2012-08-18T07:26:03.000Z</time>
      </trkpt>
      <trkpt lat="47.6639" lon="6.18101">
        <ele>236.60000610352</ele>
        <time>2012-08-18T07:26:10.000Z</time>
      </trkpt>
      <trkpt lat="47.66417" lon="6.18132">
        <ele>236.60000610352</ele>
        <time>2012-08-18T07:26:18.000Z</time>
      </trkpt>
      <trkpt lat="47.66438" lon="6.18155">
        <ele>236.60000610352</ele>
        <time>2012-08-18T07:26:24.000Z</time>
      </trkpt>
      <trkpt lat="47.66444" lon="6.18165">
        <ele>236.60000610352</ele>
        <time>2012-08-18T07:26:26.000Z</time>
      </trkpt>
      <trkpt lat="47.66452" lon="6.18182">
        <ele>236.60000610352</ele>
        <time>2012-08-18T07:26:29.000Z</time>
      </trkpt>
      <trkpt lat="47.66455" lon="6.18192">
        <ele>236.60000610352</ele>
        <time>2012-08-18T07:26:31.000Z</time>
      </trkpt>
      <trkpt lat="47.66466" lon="6.18218">
        <ele>236.60000610352</ele>
        <time>2012-08-18T07:26:37.000Z</time>
      </trkpt>
      <trkpt lat="47.66478" lon="6.1824">
        <ele>236.60000610352</ele>
        <time>2012-08-18T07:26:43.000Z</time>
      </trkpt>
      <trkpt lat="47.6648" lon="6.18245">
        <ele>236.60000610352</ele>
        <time>2012-08-18T07:26:44.000Z</time>
      </trkpt>
      <trkpt lat="47.665" lon="6.18275">
        <ele>237</ele>
        <time>2012-08-18T07:26:51.000Z</time>
      </trkpt>
      <trkpt lat="47.66503" lon="6.18279">
        <ele>237.39999389648</ele>
        <time>2012-08-18T07:26:52.000Z</time>
      </trkpt>
      <trkpt lat="47.66506" lon="6.18283">
        <ele>237.80000305176</ele>
        <time>2012-08-18T07:26:53.000Z</time>
      </trkpt>
      <trkpt lat="47.66508" lon="6.18287">
        <ele>238.19999694824</ele>
        <time>2012-08-18T07:26:54.000Z</time>
      </trkpt>
      <trkpt lat="47.66511" lon="6.1829">
        <ele>238.60000610352</ele>
        <time>2012-08-18T07:26:55.000Z</time>
      </trkpt>
      <trkpt lat="47.66519" lon="6.183">
        <ele>238.60000610352</ele>
        <time>2012-08-18T07:26:58.000Z</time>
      </trkpt>
      <trkpt lat="47.66541" lon="6.18327">
        <ele>238.60000610352</ele>
        <time>2012-08-18T07:27:06.000Z</time>
      </trkpt>
      <trkpt lat="47.66564" lon="6.18351">
        <ele>238.60000610352</ele>
        <time>2012-08-18T07:27:14.000Z</time>
      </trkpt>
      <trkpt lat="47.66585" lon="6.18367">
        <ele>238.60000610352</ele>
        <time>2012-08-18T07:27:20.000Z</time>
      </trkpt>
      <trkpt lat="47.66608" lon="6.18388">
        <ele>238.60000610352</ele>
        <time>2012-08-18T07:27:27.000Z</time>
      </trkpt>
      <trkpt lat="47.6663" lon="6.18409">
        <ele>238.60000610352</ele>
        <time>2012-08-18T07:27:34.000Z</time>
      </trkpt>
      <trkpt lat="47.66636" lon="6.18414">
        <ele>239.39999389648</ele>
        <time>2012-08-18T07:27:36.000Z</time>
      </trkpt>
      <trkpt lat="47.66639" lon="6.18417">
        <ele>239.80000305176</ele>
        <time>2012-08-18T07:27:37.000Z</time>
      </trkpt>
      <trkpt lat="47.66642" lon="6.18419">
        <ele>240.19999694824</ele>
        <time>2012-08-18T07:27:38.000Z</time>
      </trkpt>
      <trkpt lat="47.66646" lon="6.18422">
        <ele>240.60000610352</ele>
        <time>2012-08-18T07:27:39.000Z</time>
      </trkpt>
      <trkpt lat="47.66649" lon="6.18424">
        <ele>240.60000610352</ele>
        <time>2012-08-18T07:27:40.000Z</time>
      </trkpt>
      <trkpt lat="47.66676" lon="6.18447">
        <ele>240.60000610352</ele>
        <time>2012-08-18T07:27:49.000Z</time>
      </trkpt>
      <trkpt lat="47.66691" lon="6.18465">
        <ele>240.60000610352</ele>
        <time>2012-08-18T07:27:55.000Z</time>
      </trkpt>
      <trkpt lat="47.66711" lon="6.18479">
        <ele>240.60000610352</ele>
        <time>2012-08-18T07:28:02.000Z</time>
      </trkpt>
      <trkpt lat="47.66731" lon="6.18489">
        <ele>240.60000610352</ele>
        <time>2012-08-18T07:28:09.000Z</time>
      </trkpt>
      <trkpt lat="47.6675" lon="6.18497">
        <ele>240.60000610352</ele>
        <time>2012-08-18T07:28:15.000Z</time>
      </trkpt>
      <trkpt lat="47.66772" lon="6.18504">
        <ele>240.60000610352</ele>
        <time>2012-08-18T07:28:22.000Z</time>
      </trkpt>
      <trkpt lat="47.66782" lon="6.18506">
        <ele>241.39999389648</ele>
        <time>2012-08-18T07:28:25.000Z</time>
      </trkpt>
      <trkpt lat="47.66785" lon="6.18506">
        <ele>241.80000305176</ele>
        <time>2012-08-18T07:28:26.000Z</time>
      </trkpt>
      <trkpt lat="47.66788" lon="6.18507">
        <ele>242.19999694824</ele>
        <time>2012-08-18T07:28:27.000Z</time>
      </trkpt>
      <trkpt lat="47.66792" lon="6.18508">
        <ele>242.60000610352</ele>
        <time>2012-08-18T07:28:28.000Z</time>
      </trkpt>
      <trkpt lat="47.66802" lon="6.1851">
        <ele>242.60000610352</ele>
        <time>2012-08-18T07:28:31.000Z</time>
      </trkpt>
      <trkpt lat="47.66824" lon="6.18521">
        <ele>242.60000610352</ele>
        <time>2012-08-18T07:28:38.000Z</time>
      </trkpt>
      <trkpt lat="47.66848" lon="6.1854">
        <ele>242.60000610352</ele>
        <time>2012-08-18T07:28:45.000Z</time>
      </trkpt>
      <trkpt lat="47.66867" lon="6.18557">
        <ele>242.60000610352</ele>
        <time>2012-08-18T07:28:51.000Z</time>
      </trkpt>
      <trkpt lat="47.6689" lon="6.18574">
        <ele>242.60000610352</ele>
        <time>2012-08-18T07:28:58.000Z</time>
      </trkpt>
      <trkpt lat="47.66915" lon="6.18584">
        <ele>242.60000610352</ele>
        <time>2012-08-18T07:29:06.000Z</time>
      </trkpt>
      <trkpt lat="47.66939" lon="6.18585">
        <ele>242.60000610352</ele>
        <time>2012-08-18T07:29:12.000Z</time>
      </trkpt>
      <trkpt lat="47.66945" lon="6.18587">
        <ele>243</ele>
        <time>2012-08-18T07:29:14.000Z</time>
      </trkpt>
      <trkpt lat="47.66948" lon="6.18588">
        <ele>244</ele>
        <time>2012-08-18T07:29:15.000Z</time>
      </trkpt>
      <trkpt lat="47.66951" lon="6.18589">
        <ele>244.39999389648</ele>
        <time>2012-08-18T07:29:16.000Z</time>
      </trkpt>
      <trkpt lat="47.66954" lon="6.1859">
        <ele>244.80000305176</ele>
        <time>2012-08-18T07:29:17.000Z</time>
      </trkpt>
      <trkpt lat="47.66957" lon="6.18592">
        <ele>244.80000305176</ele>
        <time>2012-08-18T07:29:18.000Z</time>
      </trkpt>
      <trkpt lat="47.66977" lon="6.18595">
        <ele>244.80000305176</ele>
        <time>2012-08-18T07:29:24.000Z</time>
      </trkpt>
      <trkpt lat="47.66999" lon="6.186">
        <ele>244.80000305176</ele>
        <time>2012-08-18T07:29:30.000Z</time>
      </trkpt>
      <trkpt lat="47.67029" lon="6.18606">
        <ele>244.80000305176</ele>
        <time>2012-08-18T07:29:38.000Z</time>
      </trkpt>
      <trkpt lat="47.67061" lon="6.1861">
        <ele>244.80000305176</ele>
        <time>2012-08-18T07:29:47.000Z</time>
      </trkpt>
      <trkpt lat="47.67065" lon="6.1861">
        <ele>245.19999694824</ele>
        <time>2012-08-18T07:29:48.000Z</time>
      </trkpt>
      <trkpt lat="47.67068" lon="6.1861">
        <ele>245.60000610352</ele>
        <time>2012-08-18T07:29:49.000Z</time>
      </trkpt>
      <trkpt lat="47.67072" lon="6.18611">
        <ele>246</ele>
        <time>2012-08-18T07:29:50.000Z</time>
      </trkpt>
      <trkpt lat="47.67075" lon="6.18611">
        <ele>246.39999389648</ele>
        <time>2012-08-18T07:29:51.000Z</time>
      </trkpt>
      <trkpt lat="47.67079" lon="6.18612">
        <ele>246.80000305176</ele>
        <time>2012-08-18T07:29:52.000Z</time>
      </trkpt>
      <trkpt lat="47.6709" lon="6.18611">
        <ele>246.80000305176</ele>
        <time>2012-08-18T07:29:55.000Z</time>
      </trkpt>
      <trkpt lat="47.6712" lon="6.18614">
        <ele>246.80000305176</ele>
        <time>2012-08-18T07:30:02.000Z</time>
      </trkpt>
      <trkpt lat="47.6715" lon="6.18615">
        <ele>246.80000305176</ele>
        <time>2012-08-18T07:30:10.000Z</time>
      </trkpt>
      <trkpt lat="47.67179" lon="6.18618">
        <ele>246.80000305176</ele>
        <time>2012-08-18T07:30:19.000Z</time>
      </trkpt>
      <trkpt lat="47.67204" lon="6.1862">
        <ele>246.80000305176</ele>
        <time>2012-08-18T07:30:26.000Z</time>
      </trkpt>
      <trkpt lat="47.67233" lon="6.18623">
        <ele>246.80000305176</ele>
        <time>2012-08-18T07:30:33.000Z</time>
      </trkpt>
      <trkpt lat="47.67256" lon="6.18625">
        <ele>246.80000305176</ele>
        <time>2012-08-18T07:30:39.000Z</time>
      </trkpt>
      <trkpt lat="47.67276" lon="6.18628">
        <ele>246.80000305176</ele>
        <time>2012-08-18T07:30:45.000Z</time>
      </trkpt>
      <trkpt lat="47.6729" lon="6.18627">
        <ele>246.80000305176</ele>
        <time>2012-08-18T07:30:50.000Z</time>
      </trkpt>
      <trkpt lat="47.67307" lon="6.18625">
        <ele>247.19999694824</ele>
        <time>2012-08-18T07:30:55.000Z</time>
      </trkpt>
      <trkpt lat="47.6731" lon="6.18624">
        <ele>247.60000610352</ele>
        <time>2012-08-18T07:30:56.000Z</time>
      </trkpt>
      <trkpt lat="47.67313" lon="6.18624">
        <ele>248</ele>
        <time>2012-08-18T07:30:57.000Z</time>
      </trkpt>
      <trkpt lat="47.67316" lon="6.18624">
        <ele>248.39999389648</ele>
        <time>2012-08-18T07:30:58.000Z</time>
      </trkpt>
      <trkpt lat="47.67319" lon="6.18623">
        <ele>249</ele>
        <time>2012-08-18T07:30:59.000Z</time>
      </trkpt>
      <trkpt lat="47.67332" lon="6.1862">
        <ele>249</ele>
        <time>2012-08-18T07:31:03.000Z</time>
      </trkpt>
      <trkpt lat="47.67347" lon="6.18623">
        <ele>249</ele>
        <time>2012-08-18T07:31:08.000Z</time>
      </trkpt>
      <trkpt lat="47.67359" lon="6.18622">
        <ele>249</ele>
        <time>2012-08-18T07:31:13.000Z</time>
      </trkpt>
      <trkpt lat="47.67361" lon="6.18622">
        <ele>249</ele>
        <time>2012-08-18T07:31:14.000Z</time>
      </trkpt>
      <trkpt lat="47.67369" lon="6.18621">
        <ele>249</ele>
        <time>2012-08-18T07:31:17.000Z</time>
      </trkpt>
      <trkpt lat="47.67376" lon="6.1862">
        <ele>249</ele>
        <time>2012-08-18T07:31:19.000Z</time>
      </trkpt>
      <trkpt lat="47.6739" lon="6.1862">
        <ele>249.39999389648</ele>
        <time>2012-08-18T07:31:24.000Z</time>
      </trkpt>
      <trkpt lat="47.67392" lon="6.1862">
        <ele>249.80000305176</ele>
        <time>2012-08-18T07:31:25.000Z</time>
      </trkpt>
      <trkpt lat="47.67395" lon="6.18619">
        <ele>250.19999694824</ele>
        <time>2012-08-18T07:31:26.000Z</time>
      </trkpt>
      <trkpt lat="47.67398" lon="6.18619">
        <ele>250.60000610352</ele>
        <time>2012-08-18T07:31:27.000Z</time>
      </trkpt>
      <trkpt lat="47.67401" lon="6.18618">
        <ele>251</ele>
        <time>2012-08-18T07:31:28.000Z</time>
      </trkpt>
      <trkpt lat="47.67411" lon="6.18617">
        <ele>251</ele>
        <time>2012-08-18T07:31:32.000Z</time>
      </trkpt>
      <trkpt lat="47.67432" lon="6.18614">
        <ele>251</ele>
        <time>2012-08-18T07:31:39.000Z</time>
      </trkpt>
      <trkpt lat="47.67446" lon="6.18611">
        <ele>251</ele>
        <time>2012-08-18T07:31:46.000Z</time>
      </trkpt>
      <trkpt lat="47.67458" lon="6.1861">
        <ele>251.39999389648</ele>
        <time>2012-08-18T07:31:51.000Z</time>
      </trkpt>
      <trkpt lat="47.6746" lon="6.1861">
        <ele>251.80000305176</ele>
        <time>2012-08-18T07:31:52.000Z</time>
      </trkpt>
      <trkpt lat="47.67462" lon="6.1861">
        <ele>252.19999694824</ele>
        <time>2012-08-18T07:31:53.000Z</time>
      </trkpt>
      <trkpt lat="47.67464" lon="6.1861">
        <ele>252.60000610352</ele>
        <time>2012-08-18T07:31:54.000Z</time>
      </trkpt>
      <trkpt lat="47.67466" lon="6.18609">
        <ele>253</ele>
        <time>2012-08-18T07:31:55.000Z</time>
      </trkpt>
      <trkpt lat="47.67478" lon="6.1861">
        <ele>253</ele>
        <time>2012-08-18T07:32:00.000Z</time>
      </trkpt>
      <trkpt lat="47.67493" lon="6.18613">
        <ele>253</ele>
        <time>2012-08-18T07:32:06.000Z</time>
      </trkpt>
      <trkpt lat="47.67503" lon="6.18614">
        <ele>253.39999389648</ele>
        <time>2012-08-18T07:32:10.000Z</time>
      </trkpt>
      <trkpt lat="47.67504" lon="6.18614">
        <ele>253.80000305176</ele>
        <time>2012-08-18T07:32:11.000Z</time>
      </trkpt>
      <trkpt lat="47.67508" lon="6.18614">
        <ele>254.19999694824</ele>
        <time>2012-08-18T07:32:12.000Z</time>
      </trkpt>
      <trkpt lat="47.67511" lon="6.18614">
        <ele>254.60000610352</ele>
        <time>2012-08-18T07:32:13.000Z</time>
      </trkpt>
      <trkpt lat="47.67513" lon="6.18615">
        <ele>255</ele>
        <time>2012-08-18T07:32:14.000Z</time>
      </trkpt>
      <trkpt lat="47.6752" lon="6.18617">
        <ele>255</ele>
        <time>2012-08-18T07:32:17.000Z</time>
      </trkpt>
      <trkpt lat="47.67527" lon="6.18624">
        <ele>255</ele>
        <time>2012-08-18T07:32:22.000Z</time>
      </trkpt>
      <trkpt lat="47.67534" lon="6.18643">
        <ele>255</ele>
        <time>2012-08-18T07:32:28.000Z</time>
      </trkpt>
      <trkpt lat="47.67543" lon="6.18663">
        <ele>255</ele>
        <time>2012-08-18T07:32:33.000Z</time>
      </trkpt>
      <trkpt lat="47.67551" lon="6.18676">
        <ele>255</ele>
        <time>2012-08-18T07:32:38.000Z</time>
      </trkpt>
      <trkpt lat="47.67563" lon="6.18687">
        <ele>255</ele>
        <time>2012-08-18T07:32:44.000Z</time>
      </trkpt>
      <trkpt lat="47.67574" lon="6.18689">
        <ele>255</ele>
        <time>2012-08-18T07:32:50.000Z</time>
      </trkpt>
      <trkpt lat="47.67587" lon="6.18689">
        <ele>255</ele>
        <time>2012-08-18T07:32:57.000Z</time>
      </trkpt>
      <trkpt lat="47.67589" lon="6.1869">
        <ele>255</ele>
        <time>2012-08-18T07:32:58.000Z</time>
      </trkpt>
      <trkpt lat="47.67599" lon="6.1869">
        <ele>255</ele>
        <time>2012-08-18T07:33:02.000Z</time>
      </trkpt>
      <trkpt lat="47.6761" lon="6.18687">
        <ele>255</ele>
        <time>2012-08-18T07:33:08.000Z</time>
      </trkpt>
      <trkpt lat="47.67622" lon="6.18687">
        <ele>255</ele>
        <time>2012-08-18T07:33:14.000Z</time>
      </trkpt>
      <trkpt lat="47.67624" lon="6.18686">
        <ele>255</ele>
        <time>2012-08-18T07:33:15.000Z</time>
      </trkpt>
      <trkpt lat="47.67631" lon="6.18685">
        <ele>255.39999389648</ele>
        <time>2012-08-18T07:33:19.000Z</time>
      </trkpt>
      <trkpt lat="47.67633" lon="6.18685">
        <ele>255.80000305176</ele>
        <time>2012-08-18T07:33:20.000Z</time>
      </trkpt>
      <trkpt lat="47.67635" lon="6.18686">
        <ele>256.20001220703</ele>
        <time>2012-08-18T07:33:21.000Z</time>
      </trkpt>
      <trkpt lat="47.67636" lon="6.18687">
        <ele>257</ele>
        <time>2012-08-18T07:33:22.000Z</time>
      </trkpt>
      <trkpt lat="47.6764" lon="6.18695">
        <ele>257</ele>
        <time>2012-08-18T07:33:25.000Z</time>
      </trkpt>
      <trkpt lat="47.6764" lon="6.18711">
        <ele>257</ele>
        <time>2012-08-18T07:33:31.000Z</time>
      </trkpt>
      <trkpt lat="47.67641" lon="6.18719">
        <ele>257</ele>
        <time>2012-08-18T07:33:34.000Z</time>
      </trkpt>
      <trkpt lat="47.6764" lon="6.18722">
        <ele>256.60000610352</ele>
        <time>2012-08-18T07:33:35.000Z</time>
      </trkpt>
      <trkpt lat="47.6764" lon="6.18726">
        <ele>256.20001220703</ele>
        <time>2012-08-18T07:33:36.000Z</time>
      </trkpt>
      <trkpt lat="47.67639" lon="6.18728">
        <ele>255.80000305176</ele>
        <time>2012-08-18T07:33:37.000Z</time>
      </trkpt>
      <trkpt lat="47.67639" lon="6.1873">
        <ele>255.39999389648</ele>
        <time>2012-08-18T07:33:38.000Z</time>
      </trkpt>
      <trkpt lat="47.67639" lon="6.18733">
        <ele>255</ele>
        <time>2012-08-18T07:33:39.000Z</time>
      </trkpt>
      <trkpt lat="47.67638" lon="6.18741">
        <ele>255</ele>
        <time>2012-08-18T07:33:42.000Z</time>
      </trkpt>
      <trkpt lat="47.67636" lon="6.18754">
        <ele>254.60000610352</ele>
        <time>2012-08-18T07:33:47.000Z</time>
      </trkpt>
      <trkpt lat="47.67636" lon="6.18757">
        <ele>254.19999694824</ele>
        <time>2012-08-18T07:33:48.000Z</time>
      </trkpt>
      <trkpt lat="47.67636" lon="6.1876">
        <ele>253.80000305176</ele>
        <time>2012-08-18T07:33:49.000Z</time>
      </trkpt>
      <trkpt lat="47.67636" lon="6.18763">
        <ele>253.39999389648</ele>
        <time>2012-08-18T07:33:50.000Z</time>
      </trkpt>
      <trkpt lat="47.67636" lon="6.18766">
        <ele>253</ele>
        <time>2012-08-18T07:33:51.000Z</time>
      </trkpt>
      <trkpt lat="47.67639" lon="6.18774">
        <ele>253</ele>
        <time>2012-08-18T07:33:54.000Z</time>
      </trkpt>
      <trkpt lat="47.67642" lon="6.18775">
        <ele>253</ele>
        <time>2012-08-18T07:33:57.000Z</time>
      </trkpt>
      <trkpt lat="47.67646" lon="6.18776">
        <ele>253</ele>
        <time>2012-08-18T07:33:59.000Z</time>
      </trkpt>
      <trkpt lat="47.67655" lon="6.18778">
        <ele>253</ele>
        <time>2012-08-18T07:34:05.000Z</time>
      </trkpt>
      <trkpt lat="47.67662" lon="6.18779">
        <ele>253</ele>
        <time>2012-08-18T07:34:09.000Z</time>
      </trkpt>
      <trkpt lat="47.6767" lon="6.18779">
        <ele>253</ele>
        <time>2012-08-18T07:34:14.000Z</time>
      </trkpt>
      <trkpt lat="47.67676" lon="6.18786">
        <ele>253</ele>
        <time>2012-08-18T07:34:19.000Z</time>
      </trkpt>
      <trkpt lat="47.67678" lon="6.18788">
        <ele>253</ele>
        <time>2012-08-18T07:34:20.000Z</time>
      </trkpt>
      <trkpt lat="47.67683" lon="6.18795">
        <ele>253</ele>
        <time>2012-08-18T07:34:24.000Z</time>
      </trkpt>
      <trkpt lat="47.67686" lon="6.18797">
        <ele>253</ele>
        <time>2012-08-18T07:34:26.000Z</time>
      </trkpt>
      <trkpt lat="47.67691" lon="6.18797">
        <ele>253</ele>
        <time>2012-08-18T07:34:30.000Z</time>
      </trkpt>
      <trkpt lat="47.67693" lon="6.18794">
        <ele>253</ele>
        <time>2012-08-18T07:34:32.000Z</time>
      </trkpt>
      <trkpt lat="47.67694" lon="6.18793">
        <ele>253</ele>
        <time>2012-08-18T07:34:37.000Z</time>
      </trkpt>
      <trkpt lat="47.67699" lon="6.18798">
        <ele>253</ele>
        <time>2012-08-18T07:34:44.000Z</time>
      </trkpt>
      <trkpt lat="47.67734" lon="6.18827">
        <ele>253.60000610352</ele>
        <time>2012-08-18T07:35:12.000Z</time>
      </trkpt>
      <trkpt lat="47.67738" lon="6.18826">
        <ele>253.60000610352</ele>
        <time>2012-08-18T07:35:15.000Z</time>
      </trkpt>
      <trkpt lat="47.67746" lon="6.18823">
        <ele>253.60000610352</ele>
        <time>2012-08-18T07:35:20.000Z</time>
      </trkpt>
      <trkpt lat="47.67751" lon="6.18821">
        <ele>253.60000610352</ele>
        <time>2012-08-18T07:35:22.000Z</time>
      </trkpt>
      <trkpt lat="47.67762" lon="6.18817">
        <ele>253.60000610352</ele>
        <time>2012-08-18T07:35:31.000Z</time>
      </trkpt>
      <trkpt lat="47.67769" lon="6.18813">
        <ele>253.60000610352</ele>
        <time>2012-08-18T07:35:38.000Z</time>
      </trkpt>
      <trkpt lat="47.67782" lon="6.18803">
        <ele>253.60000610352</ele>
        <time>2012-08-18T07:35:45.000Z</time>
      </trkpt>
      <trkpt lat="47.67796" lon="6.18791">
        <ele>254</ele>
        <time>2012-08-18T07:35:51.000Z</time>
      </trkpt>
      <trkpt lat="47.67799" lon="6.18788">
        <ele>254.39999389648</ele>
        <time>2012-08-18T07:35:52.000Z</time>
      </trkpt>
      <trkpt lat="47.67801" lon="6.18786">
        <ele>254.80000305176</ele>
        <time>2012-08-18T07:35:53.000Z</time>
      </trkpt>
      <trkpt lat="47.67803" lon="6.18784">
        <ele>255.19999694824</ele>
        <time>2012-08-18T07:35:54.000Z</time>
      </trkpt>
      <trkpt lat="47.67805" lon="6.18782">
        <ele>255.60000610352</ele>
        <time>2012-08-18T07:35:55.000Z</time>
      </trkpt>
      <trkpt lat="47.67813" lon="6.18772">
        <ele>255.60000610352</ele>
        <time>2012-08-18T07:35:59.000Z</time>
      </trkpt>
      <trkpt lat="47.67822" lon="6.18759">
        <ele>255.60000610352</ele>
        <time>2012-08-18T07:36:05.000Z</time>
      </trkpt>
      <trkpt lat="47.6783" lon="6.18753">
        <ele>255.60000610352</ele>
        <time>2012-08-18T07:36:12.000Z</time>
      </trkpt>
      <trkpt lat="47.67833" lon="6.18752">
        <ele>255.60000610352</ele>
        <time>2012-08-18T07:36:14.000Z</time>
      </trkpt>
      <trkpt lat="47.67842" lon="6.18745">
        <ele>255.60000610352</ele>
        <time>2012-08-18T07:36:20.000Z</time>
      </trkpt>
      <trkpt lat="47.67846" lon="6.1874">
        <ele>256</ele>
        <time>2012-08-18T07:36:23.000Z</time>
      </trkpt>
      <trkpt lat="47.67848" lon="6.18739">
        <ele>256.39999389648</ele>
        <time>2012-08-18T07:36:24.000Z</time>
      </trkpt>
      <trkpt lat="47.67849" lon="6.18739">
        <ele>257</ele>
        <time>2012-08-18T07:36:25.000Z</time>
      </trkpt>
      <trkpt lat="47.6785" lon="6.18738">
        <ele>257.39999389648</ele>
        <time>2012-08-18T07:36:26.000Z</time>
      </trkpt>
      <trkpt lat="47.67852" lon="6.18737">
        <ele>257.79998779297</ele>
        <time>2012-08-18T07:36:27.000Z</time>
      </trkpt>
      <trkpt lat="47.67857" lon="6.18739">
        <ele>257.79998779297</ele>
        <time>2012-08-18T07:36:31.000Z</time>
      </trkpt>
      <trkpt lat="47.67858" lon="6.1874">
        <ele>257.79998779297</ele>
        <time>2012-08-18T07:36:32.000Z</time>
      </trkpt>
      <trkpt lat="47.67866" lon="6.1875">
        <ele>258.20001220703</ele>
        <time>2012-08-18T07:36:39.000Z</time>
      </trkpt>
      <trkpt lat="47.67867" lon="6.18753">
        <ele>258.60000610352</ele>
        <time>2012-08-18T07:36:40.000Z</time>
      </trkpt>
      <trkpt lat="47.67867" lon="6.18755">
        <ele>259</ele>
        <time>2012-08-18T07:36:41.000Z</time>
      </trkpt>
      <trkpt lat="47.67868" lon="6.18757">
        <ele>259.39999389648</ele>
        <time>2012-08-18T07:36:42.000Z</time>
      </trkpt>
      <trkpt lat="47.67868" lon="6.18759">
        <ele>259.79998779297</ele>
        <time>2012-08-18T07:36:43.000Z</time>
      </trkpt>
      <trkpt lat="47.67871" lon="6.18765">
        <ele>259.79998779297</ele>
        <time>2012-08-18T07:36:46.000Z</time>
      </trkpt>
      <trkpt lat="47.67874" lon="6.18777">
        <ele>259.79998779297</ele>
        <time>2012-08-18T07:36:53.000Z</time>
      </trkpt>
      <trkpt lat="47.67876" lon="6.1878">
        <ele>260.20001220703</ele>
        <time>2012-08-18T07:36:56.000Z</time>
      </trkpt>
      <trkpt lat="47.67876" lon="6.18781">
        <ele>260.60000610352</ele>
        <time>2012-08-18T07:36:57.000Z</time>
      </trkpt>
      <trkpt lat="47.67876" lon="6.18785">
        <ele>261</ele>
        <time>2012-08-18T07:36:58.000Z</time>
      </trkpt>
      <trkpt lat="47.67877" lon="6.18788">
        <ele>261.39999389648</ele>
        <time>2012-08-18T07:36:59.000Z</time>
      </trkpt>
      <trkpt lat="47.67878" lon="6.18791">
        <ele>261.79998779297</ele>
        <time>2012-08-18T07:37:00.000Z</time>
      </trkpt>
      <trkpt lat="47.67883" lon="6.18801">
        <ele>261.79998779297</ele>
        <time>2012-08-18T07:37:06.000Z</time>
      </trkpt>
      <trkpt lat="47.67884" lon="6.18801">
        <ele>261.79998779297</ele>
        <time>2012-08-18T07:37:07.000Z</time>
      </trkpt>
      <trkpt lat="47.67898" lon="6.1883">
        <ele>263.79998779297</ele>
        <time>2012-08-18T07:37:30.000Z</time>
      </trkpt>
      <trkpt lat="47.679" lon="6.18829">
        <ele>263.79998779297</ele>
        <time>2012-08-18T07:37:32.000Z</time>
      </trkpt>
      <trkpt lat="47.67904" lon="6.18826">
        <ele>264.39999389648</ele>
        <time>2012-08-18T07:37:37.000Z</time>
      </trkpt>
      <trkpt lat="47.67906" lon="6.18825">
        <ele>264.79998779297</ele>
        <time>2012-08-18T07:37:38.000Z</time>
      </trkpt>
      <trkpt lat="47.67906" lon="6.18825">
        <ele>265.20001220703</ele>
        <time>2012-08-18T07:37:39.000Z</time>
      </trkpt>
      <trkpt lat="47.67906" lon="6.18825">
        <ele>265.60000610352</ele>
        <time>2012-08-18T07:37:40.000Z</time>
      </trkpt>
      <trkpt lat="47.67929" lon="6.18813">
        <ele>268</ele>
        <time>2012-08-18T07:38:02.000Z</time>
      </trkpt>
      <trkpt lat="47.67931" lon="6.18813">
        <ele>268</ele>
        <time>2012-08-18T07:38:04.000Z</time>
      </trkpt>
      <trkpt lat="47.67937" lon="6.1881">
        <ele>268.39999389648</ele>
        <time>2012-08-18T07:38:10.000Z</time>
      </trkpt>
      <trkpt lat="47.67938" lon="6.18809">
        <ele>268.79998779297</ele>
        <time>2012-08-18T07:38:11.000Z</time>
      </trkpt>
      <trkpt lat="47.67939" lon="6.18809">
        <ele>269.20001220703</ele>
        <time>2012-08-18T07:38:12.000Z</time>
      </trkpt>
      <trkpt lat="47.67941" lon="6.18808">
        <ele>269.60000610352</ele>
        <time>2012-08-18T07:38:13.000Z</time>
      </trkpt>
      <trkpt lat="47.67942" lon="6.18808">
        <ele>270</ele>
        <time>2012-08-18T07:38:14.000Z</time>
      </trkpt>
      <trkpt lat="47.67947" lon="6.18807">
        <ele>270</ele>
        <time>2012-08-18T07:38:18.000Z</time>
      </trkpt>
      <trkpt lat="47.67955" lon="6.18801">
        <ele>270</ele>
        <time>2012-08-18T07:38:25.000Z</time>
      </trkpt>
      <trkpt lat="47.67963" lon="6.18797">
        <ele>270</ele>
        <time>2012-08-18T07:38:32.000Z</time>
      </trkpt>
      <trkpt lat="47.67972" lon="6.18793">
        <ele>270</ele>
        <time>2012-08-18T07:38:39.000Z</time>
      </trkpt>
      <trkpt lat="47.67981" lon="6.18788">
        <ele>270</ele>
        <time>2012-08-18T07:38:46.000Z</time>
      </trkpt>
      <trkpt lat="47.67992" lon="6.18781">
        <ele>270</ele>
        <time>2012-08-18T07:38:52.000Z</time>
      </trkpt>
      <trkpt lat="47.68007" lon="6.18775">
        <ele>270</ele>
        <time>2012-08-18T07:38:59.000Z</time>
      </trkpt>
      <trkpt lat="47.68011" lon="6.18771">
        <ele>270.39999389648</ele>
        <time>2012-08-18T07:39:03.000Z</time>
      </trkpt>
      <trkpt lat="47.68038" lon="6.18759">
        <ele>274.20001220703</ele>
        <time>2012-08-18T07:40:07.000Z</time>
      </trkpt>
      <trkpt lat="47.68039" lon="6.18758">
        <ele>274.20001220703</ele>
        <time>2012-08-18T07:40:08.000Z</time>
      </trkpt>
      <trkpt lat="47.68049" lon="6.18751">
        <ele>274.60000610352</ele>
        <time>2012-08-18T07:40:14.000Z</time>
      </trkpt>
      <trkpt lat="47.68051" lon="6.18751">
        <ele>275</ele>
        <time>2012-08-18T07:40:15.000Z</time>
      </trkpt>
      <trkpt lat="47.68053" lon="6.1875">
        <ele>275.39999389648</ele>
        <time>2012-08-18T07:40:16.000Z</time>
      </trkpt>
      <trkpt lat="47.68055" lon="6.18749">
        <ele>275.79998779297</ele>
        <time>2012-08-18T07:40:17.000Z</time>
      </trkpt>
      <trkpt lat="47.68057" lon="6.18749">
        <ele>276.20001220703</ele>
        <time>2012-08-18T07:40:18.000Z</time>
      </trkpt>
      <trkpt lat="47.68061" lon="6.18747">
        <ele>276.20001220703</ele>
        <time>2012-08-18T07:40:21.000Z</time>
      </trkpt>
      <trkpt lat="47.68071" lon="6.18742">
        <ele>276.20001220703</ele>
        <time>2012-08-18T07:40:28.000Z</time>
      </trkpt>
      <trkpt lat="47.68075" lon="6.18744">
        <ele>276.20001220703</ele>
        <time>2012-08-18T07:40:31.000Z</time>
      </trkpt>
      <trkpt lat="47.68076" lon="6.18744">
        <ele>276.60000610352</ele>
        <time>2012-08-18T07:40:32.000Z</time>
      </trkpt>
      <trkpt lat="47.68078" lon="6.18745">
        <ele>277.20001220703</ele>
        <time>2012-08-18T07:40:33.000Z</time>
      </trkpt>
      <trkpt lat="47.68079" lon="6.18746">
        <ele>277.60000610352</ele>
        <time>2012-08-18T07:40:34.000Z</time>
      </trkpt>
      <trkpt lat="47.6808" lon="6.18747">
        <ele>278</ele>
        <time>2012-08-18T07:40:35.000Z</time>
      </trkpt>
      <trkpt lat="47.68081" lon="6.18748">
        <ele>278.39999389648</ele>
        <time>2012-08-18T07:40:36.000Z</time>
      </trkpt>
      <trkpt lat="47.68083" lon="6.18753">
        <ele>278.39999389648</ele>
        <time>2012-08-18T07:40:40.000Z</time>
      </trkpt>
      <trkpt lat="47.68086" lon="6.1876">
        <ele>278.39999389648</ele>
        <time>2012-08-18T07:40:45.000Z</time>
      </trkpt>
      <trkpt lat="47.68087" lon="6.18761">
        <ele>278.79998779297</ele>
        <time>2012-08-18T07:40:46.000Z</time>
      </trkpt>
      <trkpt lat="47.68088" lon="6.18764">
        <ele>279.20001220703</ele>
        <time>2012-08-18T07:40:47.000Z</time>
      </trkpt>
      <trkpt lat="47.68089" lon="6.18767">
        <ele>279.60000610352</ele>
        <time>2012-08-18T07:40:48.000Z</time>
      </trkpt>
      <trkpt lat="47.68089" lon="6.18769">
        <ele>280</ele>
        <time>2012-08-18T07:40:49.000Z</time>
      </trkpt>
      <trkpt lat="47.6809" lon="6.18772">
        <ele>280.39999389648</ele>
        <time>2012-08-18T07:40:50.000Z</time>
      </trkpt>
      <trkpt lat="47.68091" lon="6.18779">
        <ele>280.39999389648</ele>
        <time>2012-08-18T07:40:53.000Z</time>
      </trkpt>
      <trkpt lat="47.68095" lon="6.18789">
        <ele>280.39999389648</ele>
        <time>2012-08-18T07:40:58.000Z</time>
      </trkpt>
      <trkpt lat="47.68095" lon="6.1879">
        <ele>280.79998779297</ele>
        <time>2012-08-18T07:40:59.000Z</time>
      </trkpt>
      <trkpt lat="47.68095" lon="6.18792">
        <ele>281.20001220703</ele>
        <time>2012-08-18T07:41:00.000Z</time>
      </trkpt>
      <trkpt lat="47.68096" lon="6.18794">
        <ele>281.60000610352</ele>
        <time>2012-08-18T07:41:01.000Z</time>
      </trkpt>
      <trkpt lat="47.68097" lon="6.18796">
        <ele>282</ele>
        <time>2012-08-18T07:41:02.000Z</time>
      </trkpt>
      <trkpt lat="47.68097" lon="6.18798">
        <ele>282.39999389648</ele>
        <time>2012-08-18T07:41:03.000Z</time>
      </trkpt>
      <trkpt lat="47.68098" lon="6.18804">
        <ele>282.39999389648</ele>
        <time>2012-08-18T07:41:06.000Z</time>
      </trkpt>
      <trkpt lat="47.68102" lon="6.18812">
        <ele>282.79998779297</ele>
        <time>2012-08-18T07:41:12.000Z</time>
      </trkpt>
      <trkpt lat="47.68103" lon="6.18814">
        <ele>283.20001220703</ele>
        <time>2012-08-18T07:41:13.000Z</time>
      </trkpt>
      <trkpt lat="47.68103" lon="6.18816">
        <ele>283.60000610352</ele>
        <time>2012-08-18T07:41:14.000Z</time>
      </trkpt>
      <trkpt lat="47.68104" lon="6.18818">
        <ele>284</ele>
        <time>2012-08-18T07:41:15.000Z</time>
      </trkpt>
      <trkpt lat="47.68105" lon="6.18819">
        <ele>284.39999389648</ele>
        <time>2012-08-18T07:41:16.000Z</time>
      </trkpt>
      <trkpt lat="47.68107" lon="6.18822">
        <ele>284.39999389648</ele>
        <time>2012-08-18T07:41:18.000Z</time>
      </trkpt>
      <trkpt lat="47.68134" lon="6.18912">
        <ele>292.79998779297</ele>
        <time>2012-08-18T07:42:15.000Z</time>
      </trkpt>
      <trkpt lat="47.68135" lon="6.18915">
        <ele>293.20001220703</ele>
        <time>2012-08-18T07:42:17.000Z</time>
      </trkpt>
      <trkpt lat="47.68136" lon="6.18917">
        <ele>293.60000610352</ele>
        <time>2012-08-18T07:42:18.000Z</time>
      </trkpt>
      <trkpt lat="47.68136" lon="6.18919">
        <ele>294</ele>
        <time>2012-08-18T07:42:19.000Z</time>
      </trkpt>
      <trkpt lat="47.68136" lon="6.18921">
        <ele>294.39999389648</ele>
        <time>2012-08-18T07:42:20.000Z</time>
      </trkpt>
      <trkpt lat="47.68136" lon="6.18923">
        <ele>294.79998779297</ele>
        <time>2012-08-18T07:42:21.000Z</time>
      </trkpt>
      <trkpt lat="47.68138" lon="6.18933">
        <ele>295.20001220703</ele>
        <time>2012-08-18T07:42:26.000Z</time>
      </trkpt>
      <trkpt lat="47.68139" lon="6.18936">
        <ele>295.60000610352</ele>
        <time>2012-08-18T07:42:27.000Z</time>
      </trkpt>
      <trkpt lat="47.6814" lon="6.18939">
        <ele>296</ele>
        <time>2012-08-18T07:42:28.000Z</time>
      </trkpt>
      <trkpt lat="47.68141" lon="6.18941">
        <ele>296.39999389648</ele>
        <time>2012-08-18T07:42:29.000Z</time>
      </trkpt>
      <trkpt lat="47.68141" lon="6.18942">
        <ele>296.79998779297</ele>
        <time>2012-08-18T07:42:30.000Z</time>
      </trkpt>
      <trkpt lat="47.68142" lon="6.18945">
        <ele>296.79998779297</ele>
        <time>2012-08-18T07:42:32.000Z</time>
      </trkpt>
      <trkpt lat="47.68144" lon="6.18951">
        <ele>296.79998779297</ele>
        <time>2012-08-18T07:42:35.000Z</time>
      </trkpt>
      <trkpt lat="47.68146" lon="6.18958">
        <ele>297.20001220703</ele>
        <time>2012-08-18T07:42:39.000Z</time>
      </trkpt>
      <trkpt lat="47.68146" lon="6.1896">
        <ele>297.79998779297</ele>
        <time>2012-08-18T07:42:40.000Z</time>
      </trkpt>
      <trkpt lat="47.68147" lon="6.18961">
        <ele>298.20001220703</ele>
        <time>2012-08-18T07:42:41.000Z</time>
      </trkpt>
      <trkpt lat="47.68147" lon="6.18963">
        <ele>298.60000610352</ele>
        <time>2012-08-18T07:42:42.000Z</time>
      </trkpt>
      <trkpt lat="47.68147" lon="6.18965">
        <ele>299</ele>
        <time>2012-08-18T07:42:43.000Z</time>
      </trkpt>
      <trkpt lat="47.6815" lon="6.18973">
        <ele>299</ele>
        <time>2012-08-18T07:42:47.000Z</time>
      </trkpt>
      <trkpt lat="47.68152" lon="6.18978">
        <ele>299.39999389648</ele>
        <time>2012-08-18T07:42:49.000Z</time>
      </trkpt>
      <trkpt lat="47.68152" lon="6.1898">
        <ele>299.79998779297</ele>
        <time>2012-08-18T07:42:50.000Z</time>
      </trkpt>
      <trkpt lat="47.68152" lon="6.18982">
        <ele>300.20001220703</ele>
        <time>2012-08-18T07:42:51.000Z</time>
      </trkpt>
      <trkpt lat="47.68153" lon="6.18984">
        <ele>300.60000610352</ele>
        <time>2012-08-18T07:42:52.000Z</time>
      </trkpt>
      <trkpt lat="47.68154" lon="6.18986">
        <ele>301</ele>
        <time>2012-08-18T07:42:53.000Z</time>
      </trkpt>
      <trkpt lat="47.68156" lon="6.18991">
        <ele>301</ele>
        <time>2012-08-18T07:42:56.000Z</time>
      </trkpt>
      <trkpt lat="47.68159" lon="6.19001">
        <ele>301</ele>
        <time>2012-08-18T07:43:01.000Z</time>
      </trkpt>
      <trkpt lat="47.68159" lon="6.19002">
        <ele>301.39999389648</ele>
        <time>2012-08-18T07:43:02.000Z</time>
      </trkpt>
      <trkpt lat="47.6816" lon="6.19004">
        <ele>301.79998779297</ele>
        <time>2012-08-18T07:43:03.000Z</time>
      </trkpt>
      <trkpt lat="47.68161" lon="6.19005">
        <ele>302.39999389648</ele>
        <time>2012-08-18T07:43:04.000Z</time>
      </trkpt>
      <trkpt lat="47.68161" lon="6.19007">
        <ele>302.79998779297</ele>
        <time>2012-08-18T07:43:05.000Z</time>
      </trkpt>
      <trkpt lat="47.68162" lon="6.19008">
        <ele>303.20001220703</ele>
        <time>2012-08-18T07:43:06.000Z</time>
      </trkpt>
      <trkpt lat="47.68162" lon="6.1901">
        <ele>303.20001220703</ele>
        <time>2012-08-18T07:43:07.000Z</time>
      </trkpt>
      <trkpt lat="47.68163" lon="6.19018">
        <ele>303.20001220703</ele>
        <time>2012-08-18T07:43:12.000Z</time>
      </trkpt>
      <trkpt lat="47.68166" lon="6.19026">
        <ele>303.20001220703</ele>
        <time>2012-08-18T07:43:18.000Z</time>
      </trkpt>
      <trkpt lat="47.68169" lon="6.1903">
        <ele>303.60000610352</ele>
        <time>2012-08-18T07:43:22.000Z</time>
      </trkpt>
      <trkpt lat="47.6817" lon="6.19032">
        <ele>304</ele>
        <time>2012-08-18T07:43:23.000Z</time>
      </trkpt>
      <trkpt lat="47.68171" lon="6.19034">
        <ele>304.39999389648</ele>
        <time>2012-08-18T07:43:24.000Z</time>
      </trkpt>
      <trkpt lat="47.68171" lon="6.19035">
        <ele>304.79998779297</ele>
        <time>2012-08-18T07:43:25.000Z</time>
      </trkpt>
      <trkpt lat="47.68171" lon="6.19037">
        <ele>305.20001220703</ele>
        <time>2012-08-18T07:43:26.000Z</time>
      </trkpt>
      <trkpt lat="47.68172" lon="6.19046">
        <ele>305.20001220703</ele>
        <time>2012-08-18T07:43:31.000Z</time>
      </trkpt>
      <trkpt lat="47.68177" lon="6.19056">
        <ele>305.20001220703</ele>
        <time>2012-08-18T07:43:38.000Z</time>
      </trkpt>
      <trkpt lat="47.68181" lon="6.1907">
        <ele>305.60000610352</ele>
        <time>2012-08-18T07:43:45.000Z</time>
      </trkpt>
      <trkpt lat="47.68181" lon="6.19072">
        <ele>306</ele>
        <time>2012-08-18T07:43:46.000Z</time>
      </trkpt>
      <trkpt lat="47.68182" lon="6.19074">
        <ele>306.39999389648</ele>
        <time>2012-08-18T07:43:47.000Z</time>
      </trkpt>
      <trkpt lat="47.68183" lon="6.19076">
        <ele>306.79998779297</ele>
        <time>2012-08-18T07:43:48.000Z</time>
      </trkpt>
      <trkpt lat="47.68184" lon="6.19078">
        <ele>307.20001220703</ele>
        <time>2012-08-18T07:43:49.000Z</time>
      </trkpt>
      <trkpt lat="47.68185" lon="6.19081">
        <ele>307.20001220703</ele>
        <time>2012-08-18T07:43:51.000Z</time>
      </trkpt>
      <trkpt lat="47.68188" lon="6.19096">
        <ele>307.20001220703</ele>
        <time>2012-08-18T07:43:58.000Z</time>
      </trkpt>
      <trkpt lat="47.68188" lon="6.19097">
        <ele>307.20001220703</ele>
        <time>2012-08-18T07:44:00.000Z</time>
      </trkpt>
      <trkpt lat="47.68191" lon="6.19102">
        <ele>307.20001220703</ele>
        <time>2012-08-18T07:45:43.000Z</time>
      </trkpt>
      <trkpt lat="47.68192" lon="6.19104">
        <ele>307.20001220703</ele>
        <time>2012-08-18T07:45:44.000Z</time>
      </trkpt>
      <trkpt lat="47.68196" lon="6.19123">
        <ele>307.20001220703</ele>
        <time>2012-08-18T07:45:50.000Z</time>
      </trkpt>
      <trkpt lat="47.68201" lon="6.19146">
        <ele>307.20001220703</ele>
        <time>2012-08-18T07:45:56.000Z</time>
      </trkpt>
      <trkpt lat="47.68208" lon="6.19171">
        <ele>307.20001220703</ele>
        <time>2012-08-18T07:46:02.000Z</time>
      </trkpt>
      <trkpt lat="47.68217" lon="6.19209">
        <ele>307.20001220703</ele>
        <time>2012-08-18T07:46:10.000Z</time>
      </trkpt>
      <trkpt lat="47.68224" lon="6.19236">
        <ele>307.20001220703</ele>
        <time>2012-08-18T07:46:16.000Z</time>
      </trkpt>
      <trkpt lat="47.68234" lon="6.19266">
        <ele>307.20001220703</ele>
        <time>2012-08-18T07:46:22.000Z</time>
      </trkpt>
      <trkpt lat="47.68247" lon="6.19313">
        <ele>307.20001220703</ele>
        <time>2012-08-18T07:46:29.000Z</time>
      </trkpt>
      <trkpt lat="47.68255" lon="6.19336">
        <ele>306.39999389648</ele>
        <time>2012-08-18T07:46:32.000Z</time>
      </trkpt>
      <trkpt lat="47.68258" lon="6.19344">
        <ele>306</ele>
        <time>2012-08-18T07:46:33.000Z</time>
      </trkpt>
      <trkpt lat="47.6826" lon="6.19351">
        <ele>305.39999389648</ele>
        <time>2012-08-18T07:46:34.000Z</time>
      </trkpt>
      <trkpt lat="47.68263" lon="6.19359">
        <ele>305</ele>
        <time>2012-08-18T07:46:35.000Z</time>
      </trkpt>
      <trkpt lat="47.68268" lon="6.19379">
        <ele>305</ele>
        <time>2012-08-18T07:46:38.000Z</time>
      </trkpt>
      <trkpt lat="47.68271" lon="6.19391">
        <ele>305</ele>
        <time>2012-08-18T07:46:40.000Z</time>
      </trkpt>
      <trkpt lat="47.68284" lon="6.19411">
        <ele>305</ele>
        <time>2012-08-18T07:46:45.000Z</time>
      </trkpt>
      <trkpt lat="47.68302" lon="6.19418">
        <ele>305</ele>
        <time>2012-08-18T07:46:50.000Z</time>
      </trkpt>
      <trkpt lat="47.68327" lon="6.19414">
        <ele>305</ele>
        <time>2012-08-18T07:46:56.000Z</time>
      </trkpt>
      <trkpt lat="47.68356" lon="6.19409">
        <ele>304.60000610352</ele>
        <time>2012-08-18T07:47:01.000Z</time>
      </trkpt>
      <trkpt lat="47.68362" lon="6.19409">
        <ele>304.20001220703</ele>
        <time>2012-08-18T07:47:02.000Z</time>
      </trkpt>
      <trkpt lat="47.68368" lon="6.19411">
        <ele>303.79998779297</ele>
        <time>2012-08-18T07:47:03.000Z</time>
      </trkpt>
      <trkpt lat="47.68374" lon="6.19413">
        <ele>303.20001220703</ele>
        <time>2012-08-18T07:47:04.000Z</time>
      </trkpt>
      <trkpt lat="47.6838" lon="6.19416">
        <ele>302.79998779297</ele>
        <time>2012-08-18T07:47:05.000Z</time>
      </trkpt>
      <trkpt lat="47.68384" lon="6.1942">
        <ele>302.39999389648</ele>
        <time>2012-08-18T07:47:06.000Z</time>
      </trkpt>
      <trkpt lat="47.68388" lon="6.19425">
        <ele>302</ele>
        <time>2012-08-18T07:47:07.000Z</time>
      </trkpt>
      <trkpt lat="47.68392" lon="6.1943">
        <ele>301.39999389648</ele>
        <time>2012-08-18T07:47:08.000Z</time>
      </trkpt>
      <trkpt lat="47.68395" lon="6.19434">
        <ele>301</ele>
        <time>2012-08-18T07:47:09.000Z</time>
      </trkpt>
      <trkpt lat="47.68398" lon="6.19437">
        <ele>300.60000610352</ele>
        <time>2012-08-18T07:47:10.000Z</time>
      </trkpt>
      <trkpt lat="47.68407" lon="6.19449">
        <ele>300.60000610352</ele>
        <time>2012-08-18T07:47:14.000Z</time>
      </trkpt>
      <trkpt lat="47.68411" lon="6.19457">
        <ele>300.60000610352</ele>
        <time>2012-08-18T07:47:18.000Z</time>
      </trkpt>
      <trkpt lat="47.68411" lon="6.19457">
        <ele>300.20001220703</ele>
        <time>2012-08-18T07:47:19.000Z</time>
      </trkpt>
      <trkpt lat="47.6841" lon="6.1946">
        <ele>298.60000610352</ele>
        <time>2012-08-18T07:48:31.000Z</time>
      </trkpt>
      <trkpt lat="47.68411" lon="6.19462">
        <ele>298.60000610352</ele>
        <time>2012-08-18T07:48:32.000Z</time>
      </trkpt>
      <trkpt lat="47.68415" lon="6.19476">
        <ele>298.60000610352</ele>
        <time>2012-08-18T07:48:39.000Z</time>
      </trkpt>
      <trkpt lat="47.68415" lon="6.19479">
        <ele>298.60000610352</ele>
        <time>2012-08-18T07:48:40.000Z</time>
      </trkpt>
      <trkpt lat="47.68419" lon="6.19491">
        <ele>298.60000610352</ele>
        <time>2012-08-18T07:48:44.000Z</time>
      </trkpt>
      <trkpt lat="47.68425" lon="6.19518">
        <ele>298.60000610352</ele>
        <time>2012-08-18T07:48:49.000Z</time>
      </trkpt>
      <trkpt lat="47.68428" lon="6.19531">
        <ele>298.20001220703</ele>
        <time>2012-08-18T07:48:51.000Z</time>
      </trkpt>
      <trkpt lat="47.68429" lon="6.19537">
        <ele>297.79998779297</ele>
        <time>2012-08-18T07:48:52.000Z</time>
      </trkpt>
      <trkpt lat="47.68431" lon="6.19544">
        <ele>297.20001220703</ele>
        <time>2012-08-18T07:48:53.000Z</time>
      </trkpt>
      <trkpt lat="47.68432" lon="6.1955">
        <ele>296.79998779297</ele>
        <time>2012-08-18T07:48:54.000Z</time>
      </trkpt>
      <trkpt lat="47.68434" lon="6.19557">
        <ele>296.39999389648</ele>
        <time>2012-08-18T07:48:55.000Z</time>
      </trkpt>
      <trkpt lat="47.68443" lon="6.19588">
        <ele>296</ele>
        <time>2012-08-18T07:49:00.000Z</time>
      </trkpt>
      <trkpt lat="47.68444" lon="6.19594">
        <ele>295.60000610352</ele>
        <time>2012-08-18T07:49:01.000Z</time>
      </trkpt>
      <trkpt lat="47.68445" lon="6.19601">
        <ele>295.20001220703</ele>
        <time>2012-08-18T07:49:02.000Z</time>
      </trkpt>
      <trkpt lat="47.68447" lon="6.19608">
        <ele>294.79998779297</ele>
        <time>2012-08-18T07:49:03.000Z</time>
      </trkpt>
      <trkpt lat="47.6845" lon="6.19614">
        <ele>294.39999389648</ele>
        <time>2012-08-18T07:49:04.000Z</time>
      </trkpt>
      <trkpt lat="47.68452" lon="6.1962">
        <ele>294.39999389648</ele>
        <time>2012-08-18T07:49:05.000Z</time>
      </trkpt>
      <trkpt lat="47.68459" lon="6.19647">
        <ele>294.39999389648</ele>
        <time>2012-08-18T07:49:10.000Z</time>
      </trkpt>
      <trkpt lat="47.68461" lon="6.19651">
        <ele>293.79998779297</ele>
        <time>2012-08-18T07:49:11.000Z</time>
      </trkpt>
      <trkpt lat="47.68463" lon="6.19655">
        <ele>293.39999389648</ele>
        <time>2012-08-18T07:49:12.000Z</time>
      </trkpt>
      <trkpt lat="47.68466" lon="6.19661">
        <ele>293</ele>
        <time>2012-08-18T07:49:13.000Z</time>
      </trkpt>
      <trkpt lat="47.68469" lon="6.19666">
        <ele>292.60000610352</ele>
        <time>2012-08-18T07:49:14.000Z</time>
      </trkpt>
      <trkpt lat="47.68472" lon="6.1967">
        <ele>292.20001220703</ele>
        <time>2012-08-18T07:49:15.000Z</time>
      </trkpt>
      <trkpt lat="47.68484" lon="6.19693">
        <ele>292.20001220703</ele>
        <time>2012-08-18T07:49:20.000Z</time>
      </trkpt>
      <trkpt lat="47.68497" lon="6.19715">
        <ele>291.79998779297</ele>
        <time>2012-08-18T07:49:25.000Z</time>
      </trkpt>
      <trkpt lat="47.68499" lon="6.1972">
        <ele>291.39999389648</ele>
        <time>2012-08-18T07:49:26.000Z</time>
      </trkpt>
      <trkpt lat="47.68501" lon="6.19724">
        <ele>291</ele>
        <time>2012-08-18T07:49:27.000Z</time>
      </trkpt>
      <trkpt lat="47.68502" lon="6.19728">
        <ele>290.60000610352</ele>
        <time>2012-08-18T07:49:28.000Z</time>
      </trkpt>
      <trkpt lat="47.68503" lon="6.19732">
        <ele>290.20001220703</ele>
        <time>2012-08-18T07:49:29.000Z</time>
      </trkpt>
      <trkpt lat="47.68511" lon="6.19743">
        <ele>290.20001220703</ele>
        <time>2012-08-18T07:49:33.000Z</time>
      </trkpt>
      <trkpt lat="47.68526" lon="6.19769">
        <ele>290.20001220703</ele>
        <time>2012-08-18T07:49:39.000Z</time>
      </trkpt>
      <trkpt lat="47.68535" lon="6.19794">
        <ele>290.20001220703</ele>
        <time>2012-08-18T07:49:45.000Z</time>
      </trkpt>
      <trkpt lat="47.68538" lon="6.19811">
        <ele>290.20001220703</ele>
        <time>2012-08-18T07:49:51.000Z</time>
      </trkpt>
      <trkpt lat="47.68544" lon="6.19826">
        <ele>290.20001220703</ele>
        <time>2012-08-18T07:49:56.000Z</time>
      </trkpt>
      <trkpt lat="47.68544" lon="6.1984">
        <ele>290.20001220703</ele>
        <time>2012-08-18T07:50:01.000Z</time>
      </trkpt>
      <trkpt lat="47.68545" lon="6.19851">
        <ele>290.20001220703</ele>
        <time>2012-08-18T07:50:06.000Z</time>
      </trkpt>
      <trkpt lat="47.68545" lon="6.19871">
        <ele>290.20001220703</ele>
        <time>2012-08-18T07:50:12.000Z</time>
      </trkpt>
      <trkpt lat="47.68547" lon="6.19892">
        <ele>290.20001220703</ele>
        <time>2012-08-18T07:50:18.000Z</time>
      </trkpt>
      <trkpt lat="47.68547" lon="6.19905">
        <ele>290.20001220703</ele>
        <time>2012-08-18T07:50:23.000Z</time>
      </trkpt>
      <trkpt lat="47.68548" lon="6.1991">
        <ele>290.20001220703</ele>
        <time>2012-08-18T07:50:24.000Z</time>
      </trkpt>
      <trkpt lat="47.68552" lon="6.19939">
        <ele>290.20001220703</ele>
        <time>2012-08-18T07:50:30.000Z</time>
      </trkpt>
      <trkpt lat="47.68551" lon="6.19963">
        <ele>290.20001220703</ele>
        <time>2012-08-18T07:50:38.000Z</time>
      </trkpt>
      <trkpt lat="47.68554" lon="6.1998">
        <ele>290.20001220703</ele>
        <time>2012-08-18T07:50:44.000Z</time>
      </trkpt>
      <trkpt lat="47.68556" lon="6.19984">
        <ele>290.60000610352</ele>
        <time>2012-08-18T07:50:46.000Z</time>
      </trkpt>
      <trkpt lat="47.68556" lon="6.19987">
        <ele>291</ele>
        <time>2012-08-18T07:50:47.000Z</time>
      </trkpt>
      <trkpt lat="47.68557" lon="6.1999">
        <ele>291.39999389648</ele>
        <time>2012-08-18T07:50:48.000Z</time>
      </trkpt>
      <trkpt lat="47.68558" lon="6.19992">
        <ele>291.79998779297</ele>
        <time>2012-08-18T07:50:49.000Z</time>
      </trkpt>
      <trkpt lat="47.68558" lon="6.19994">
        <ele>292.20001220703</ele>
        <time>2012-08-18T07:50:50.000Z</time>
      </trkpt>
      <trkpt lat="47.68561" lon="6.20005">
        <ele>292.20001220703</ele>
        <time>2012-08-18T07:50:56.000Z</time>
      </trkpt>
      <trkpt lat="47.68562" lon="6.20019">
        <ele>292.20001220703</ele>
        <time>2012-08-18T07:51:02.000Z</time>
      </trkpt>
      <trkpt lat="47.68564" lon="6.20032">
        <ele>292.60000610352</ele>
        <time>2012-08-18T07:51:08.000Z</time>
      </trkpt>
      <trkpt lat="47.68564" lon="6.20034">
        <ele>293</ele>
        <time>2012-08-18T07:51:09.000Z</time>
      </trkpt>
      <trkpt lat="47.68565" lon="6.20037">
        <ele>293.39999389648</ele>
        <time>2012-08-18T07:51:10.000Z</time>
      </trkpt>
      <trkpt lat="47.68566" lon="6.2004">
        <ele>293.79998779297</ele>
        <time>2012-08-18T07:51:11.000Z</time>
      </trkpt>
      <trkpt lat="47.68567" lon="6.20043">
        <ele>294.20001220703</ele>
        <time>2012-08-18T07:51:12.000Z</time>
      </trkpt>
      <trkpt lat="47.68571" lon="6.20052">
        <ele>294.20001220703</ele>
        <time>2012-08-18T07:51:15.000Z</time>
      </trkpt>
      <trkpt lat="47.6858" lon="6.20067">
        <ele>294.20001220703</ele>
        <time>2012-08-18T07:51:21.000Z</time>
      </trkpt>
      <trkpt lat="47.68583" lon="6.20069">
        <ele>294.20001220703</ele>
        <time>2012-08-18T07:51:24.000Z</time>
      </trkpt>
      <trkpt lat="47.68586" lon="6.20078">
        <ele>294.20001220703</ele>
        <time>2012-08-18T07:51:28.000Z</time>
      </trkpt>
      <trkpt lat="47.68587" lon="6.20081">
        <ele>294.20001220703</ele>
        <time>2012-08-18T07:51:29.000Z</time>
      </trkpt>
      <trkpt lat="47.68589" lon="6.20084">
        <ele>294.60000610352</ele>
        <time>2012-08-18T07:51:31.000Z</time>
      </trkpt>
      <trkpt lat="47.6859" lon="6.20084">
        <ele>295</ele>
        <time>2012-08-18T07:51:32.000Z</time>
      </trkpt>
      <trkpt lat="47.6859" lon="6.20086">
        <ele>295.39999389648</ele>
        <time>2012-08-18T07:51:33.000Z</time>
      </trkpt>
      <trkpt lat="47.68591" lon="6.20087">
        <ele>295.79998779297</ele>
        <time>2012-08-18T07:51:34.000Z</time>
      </trkpt>
      <trkpt lat="47.68592" lon="6.20089">
        <ele>296.20001220703</ele>
        <time>2012-08-18T07:51:35.000Z</time>
      </trkpt>
      <trkpt lat="47.68594" lon="6.20097">
        <ele>296.20001220703</ele>
        <time>2012-08-18T07:51:40.000Z</time>
      </trkpt>
      <trkpt lat="47.68595" lon="6.20101">
        <ele>296.20001220703</ele>
        <time>2012-08-18T07:51:42.000Z</time>
      </trkpt>
      <trkpt lat="47.68597" lon="6.20107">
        <ele>296.20001220703</ele>
        <time>2012-08-18T07:51:45.000Z</time>
      </trkpt>
      <trkpt lat="47.68599" lon="6.20112">
        <ele>296.20001220703</ele>
        <time>2012-08-18T07:51:48.000Z</time>
      </trkpt>
      <trkpt lat="47.68604" lon="6.20123">
        <ele>296.20001220703</ele>
        <time>2012-08-18T07:51:55.000Z</time>
      </trkpt>
      <trkpt lat="47.68608" lon="6.20136">
        <ele>296.79998779297</ele>
        <time>2012-08-18T07:52:01.000Z</time>
      </trkpt>
      <trkpt lat="47.68609" lon="6.20138">
        <ele>297.20001220703</ele>
        <time>2012-08-18T07:52:02.000Z</time>
      </trkpt>
      <trkpt lat="47.6861" lon="6.2014">
        <ele>297.60000610352</ele>
        <time>2012-08-18T07:52:03.000Z</time>
      </trkpt>
      <trkpt lat="47.6861" lon="6.20142">
        <ele>298</ele>
        <time>2012-08-18T07:52:04.000Z</time>
      </trkpt>
      <trkpt lat="47.68611" lon="6.20145">
        <ele>298.39999389648</ele>
        <time>2012-08-18T07:52:05.000Z</time>
      </trkpt>
      <trkpt lat="47.68613" lon="6.20153">
        <ele>298.39999389648</ele>
        <time>2012-08-18T07:52:09.000Z</time>
      </trkpt>
      <trkpt lat="47.68619" lon="6.20171">
        <ele>298.39999389648</ele>
        <time>2012-08-18T07:52:17.000Z</time>
      </trkpt>
      <trkpt lat="47.68622" lon="6.20175">
        <ele>298.39999389648</ele>
        <time>2012-08-18T07:52:19.000Z</time>
      </trkpt>
      <trkpt lat="47.68628" lon="6.20185">
        <ele>298.39999389648</ele>
        <time>2012-08-18T07:52:23.000Z</time>
      </trkpt>
      <trkpt lat="47.6863" lon="6.2019">
        <ele>298.79998779297</ele>
        <time>2012-08-18T07:52:25.000Z</time>
      </trkpt>
      <trkpt lat="47.68631" lon="6.20191">
        <ele>299.20001220703</ele>
        <time>2012-08-18T07:52:26.000Z</time>
      </trkpt>
      <trkpt lat="47.68632" lon="6.20194">
        <ele>299.60000610352</ele>
        <time>2012-08-18T07:52:27.000Z</time>
      </trkpt>
      <trkpt lat="47.68634" lon="6.20196">
        <ele>300</ele>
        <time>2012-08-18T07:52:28.000Z</time>
      </trkpt>
      <trkpt lat="47.68635" lon="6.20199">
        <ele>300.39999389648</ele>
        <time>2012-08-18T07:52:29.000Z</time>
      </trkpt>
      <trkpt lat="47.68636" lon="6.20202">
        <ele>300.39999389648</ele>
        <time>2012-08-18T07:52:30.000Z</time>
      </trkpt>
      <trkpt lat="47.68642" lon="6.20215">
        <ele>300.39999389648</ele>
        <time>2012-08-18T07:52:37.000Z</time>
      </trkpt>
      <trkpt lat="47.68646" lon="6.20228">
        <ele>300.79998779297</ele>
        <time>2012-08-18T07:52:44.000Z</time>
      </trkpt>
      <trkpt lat="47.68646" lon="6.2023">
        <ele>301.20001220703</ele>
        <time>2012-08-18T07:52:45.000Z</time>
      </trkpt>
      <trkpt lat="47.68646" lon="6.20231">
        <ele>301.60000610352</ele>
        <time>2012-08-18T07:52:46.000Z</time>
      </trkpt>
      <trkpt lat="47.68647" lon="6.20234">
        <ele>302</ele>
        <time>2012-08-18T07:52:47.000Z</time>
      </trkpt>
      <trkpt lat="47.68647" lon="6.20235">
        <ele>302.60000610352</ele>
        <time>2012-08-18T07:52:48.000Z</time>
      </trkpt>
      <trkpt lat="47.68647" lon="6.20239">
        <ele>302.60000610352</ele>
        <time>2012-08-18T07:52:50.000Z</time>
      </trkpt>
      <trkpt lat="47.68646" lon="6.20245">
        <ele>302.60000610352</ele>
        <time>2012-08-18T07:52:53.000Z</time>
      </trkpt>
      <trkpt lat="47.68647" lon="6.20249">
        <ele>302.60000610352</ele>
        <time>2012-08-18T07:52:56.000Z</time>
      </trkpt>
      <trkpt lat="47.68664" lon="6.2033">
        <ele>308.79998779297</ele>
        <time>2012-08-18T07:53:45.000Z</time>
      </trkpt>
      <trkpt lat="47.68666" lon="6.20339">
        <ele>308.79998779297</ele>
        <time>2012-08-18T07:53:50.000Z</time>
      </trkpt>
      <trkpt lat="47.68666" lon="6.20341">
        <ele>309.20001220703</ele>
        <time>2012-08-18T07:53:51.000Z</time>
      </trkpt>
      <trkpt lat="47.68667" lon="6.20343">
        <ele>309.60000610352</ele>
        <time>2012-08-18T07:53:52.000Z</time>
      </trkpt>
      <trkpt lat="47.68668" lon="6.20345">
        <ele>310</ele>
        <time>2012-08-18T07:53:53.000Z</time>
      </trkpt>
      <trkpt lat="47.68669" lon="6.20347">
        <ele>310.39999389648</ele>
        <time>2012-08-18T07:53:54.000Z</time>
      </trkpt>
      <trkpt lat="47.6867" lon="6.20349">
        <ele>310.79998779297</ele>
        <time>2012-08-18T07:53:55.000Z</time>
      </trkpt>
      <trkpt lat="47.68673" lon="6.20357">
        <ele>310.79998779297</ele>
        <time>2012-08-18T07:53:58.000Z</time>
      </trkpt>
      <trkpt lat="47.68676" lon="6.20368">
        <ele>311.20001220703</ele>
        <time>2012-08-18T07:54:03.000Z</time>
      </trkpt>
      <trkpt lat="47.68677" lon="6.2037">
        <ele>311.79998779297</ele>
        <time>2012-08-18T07:54:04.000Z</time>
      </trkpt>
      <trkpt lat="47.68677" lon="6.20372">
        <ele>312.20001220703</ele>
        <time>2012-08-18T07:54:05.000Z</time>
      </trkpt>
      <trkpt lat="47.68678" lon="6.20374">
        <ele>312.60000610352</ele>
        <time>2012-08-18T07:54:06.000Z</time>
      </trkpt>
      <trkpt lat="47.68678" lon="6.20376">
        <ele>313</ele>
        <time>2012-08-18T07:54:07.000Z</time>
      </trkpt>
      <trkpt lat="47.68681" lon="6.20392">
        <ele>313</ele>
        <time>2012-08-18T07:54:16.000Z</time>
      </trkpt>
      <trkpt lat="47.68682" lon="6.20395">
        <ele>313.39999389648</ele>
        <time>2012-08-18T07:54:18.000Z</time>
      </trkpt>
      <trkpt lat="47.68683" lon="6.20397">
        <ele>313.79998779297</ele>
        <time>2012-08-18T07:54:19.000Z</time>
      </trkpt>
      <trkpt lat="47.68683" lon="6.20399">
        <ele>314.20001220703</ele>
        <time>2012-08-18T07:54:20.000Z</time>
      </trkpt>
      <trkpt lat="47.68684" lon="6.204">
        <ele>315.20001220703</ele>
        <time>2012-08-18T07:54:21.000Z</time>
      </trkpt>
      <trkpt lat="47.68684" lon="6.20402">
        <ele>315.20001220703</ele>
        <time>2012-08-18T07:54:22.000Z</time>
      </trkpt>
      <trkpt lat="47.68687" lon="6.20411">
        <ele>315.20001220703</ele>
        <time>2012-08-18T07:54:29.000Z</time>
      </trkpt>
      <trkpt lat="47.68688" lon="6.20414">
        <ele>315.20001220703</ele>
        <time>2012-08-18T07:54:32.000Z</time>
      </trkpt>
      <trkpt lat="47.68702" lon="6.20434">
        <ele>319.39999389648</ele>
        <time>2012-08-18T07:54:51.000Z</time>
      </trkpt>
      <trkpt lat="47.68704" lon="6.20436">
        <ele>319.39999389648</ele>
        <time>2012-08-18T07:54:53.000Z</time>
      </trkpt>
      <trkpt lat="47.68711" lon="6.20442">
        <ele>319.39999389648</ele>
        <time>2012-08-18T07:55:00.000Z</time>
      </trkpt>
      <trkpt lat="47.68734" lon="6.20487">
        <ele>323.60000610352</ele>
        <time>2012-08-18T07:55:37.000Z</time>
      </trkpt>
      <trkpt lat="47.68736" lon="6.20496">
        <ele>324</ele>
        <time>2012-08-18T07:55:40.000Z</time>
      </trkpt>
      <trkpt lat="47.68737" lon="6.20497">
        <ele>324.39999389648</ele>
        <time>2012-08-18T07:55:41.000Z</time>
      </trkpt>
      <trkpt lat="47.68737" lon="6.20499">
        <ele>324.79998779297</ele>
        <time>2012-08-18T07:55:42.000Z</time>
      </trkpt>
      <trkpt lat="47.68737" lon="6.205">
        <ele>325.20001220703</ele>
        <time>2012-08-18T07:55:43.000Z</time>
      </trkpt>
      <trkpt lat="47.68738" lon="6.20502">
        <ele>325.60000610352</ele>
        <time>2012-08-18T07:55:44.000Z</time>
      </trkpt>
      <trkpt lat="47.68742" lon="6.20512">
        <ele>325.60000610352</ele>
        <time>2012-08-18T07:55:51.000Z</time>
      </trkpt>
      <trkpt lat="47.68746" lon="6.20524">
        <ele>326</ele>
        <time>2012-08-18T07:55:58.000Z</time>
      </trkpt>
      <trkpt lat="47.68747" lon="6.20527">
        <ele>326.39999389648</ele>
        <time>2012-08-18T07:55:59.000Z</time>
      </trkpt>
      <trkpt lat="47.68748" lon="6.20529">
        <ele>327.20001220703</ele>
        <time>2012-08-18T07:56:00.000Z</time>
      </trkpt>
      <trkpt lat="47.68749" lon="6.20531">
        <ele>327.60000610352</ele>
        <time>2012-08-18T07:56:01.000Z</time>
      </trkpt>
      <trkpt lat="47.68753" lon="6.20538">
        <ele>327.60000610352</ele>
        <time>2012-08-18T07:56:06.000Z</time>
      </trkpt>
      <trkpt lat="47.68756" lon="6.20543">
        <ele>327.60000610352</ele>
        <time>2012-08-18T07:56:11.000Z</time>
      </trkpt>
      <trkpt lat="47.68792" lon="6.20676">
        <ele>333.79998779297</ele>
        <time>2012-08-18T07:58:32.000Z</time>
      </trkpt>
      <trkpt lat="47.68793" lon="6.2068">
        <ele>333.79998779297</ele>
        <time>2012-08-18T07:58:33.000Z</time>
      </trkpt>
      <trkpt lat="47.68805" lon="6.20701">
        <ele>333.79998779297</ele>
        <time>2012-08-18T07:58:39.000Z</time>
      </trkpt>
      <trkpt lat="47.68813" lon="6.20728">
        <ele>333.79998779297</ele>
        <time>2012-08-18T07:58:45.000Z</time>
      </trkpt>
      <trkpt lat="47.68817" lon="6.20736">
        <ele>333.79998779297</ele>
        <time>2012-08-18T07:58:47.000Z</time>
      </trkpt>
      <trkpt lat="47.68819" lon="6.2074">
        <ele>333.20001220703</ele>
        <time>2012-08-18T07:58:48.000Z</time>
      </trkpt>
      <trkpt lat="47.6882" lon="6.20742">
        <ele>332.79998779297</ele>
        <time>2012-08-18T07:58:49.000Z</time>
      </trkpt>
      <trkpt lat="47.68821" lon="6.20745">
        <ele>332.39999389648</ele>
        <time>2012-08-18T07:58:50.000Z</time>
      </trkpt>
      <trkpt lat="47.68822" lon="6.20748">
        <ele>332</ele>
        <time>2012-08-18T07:58:51.000Z</time>
      </trkpt>
      <trkpt lat="47.68824" lon="6.20751">
        <ele>331.60000610352</ele>
        <time>2012-08-18T07:58:52.000Z</time>
      </trkpt>
      <trkpt lat="47.68826" lon="6.20756">
        <ele>331.20001220703</ele>
        <time>2012-08-18T07:58:55.000Z</time>
      </trkpt>
      <trkpt lat="47.68827" lon="6.20758">
        <ele>330.60000610352</ele>
        <time>2012-08-18T07:58:56.000Z</time>
      </trkpt>
      <trkpt lat="47.68828" lon="6.2076">
        <ele>330.20001220703</ele>
        <time>2012-08-18T07:58:57.000Z</time>
      </trkpt>
      <trkpt lat="47.68829" lon="6.20764">
        <ele>329.79998779297</ele>
        <time>2012-08-18T07:58:58.000Z</time>
      </trkpt>
      <trkpt lat="47.68829" lon="6.20767">
        <ele>329.39999389648</ele>
        <time>2012-08-18T07:58:59.000Z</time>
      </trkpt>
      <trkpt lat="47.6883" lon="6.2077">
        <ele>329.39999389648</ele>
        <time>2012-08-18T07:59:00.000Z</time>
      </trkpt>
      <trkpt lat="47.68833" lon="6.20783">
        <ele>329.39999389648</ele>
        <time>2012-08-18T07:59:06.000Z</time>
      </trkpt>
      <trkpt lat="47.68833" lon="6.20785">
        <ele>329.39999389648</ele>
        <time>2012-08-18T07:59:07.000Z</time>
      </trkpt>
      <trkpt lat="47.68833" lon="6.20791">
        <ele>329.39999389648</ele>
        <time>2012-08-18T07:59:10.000Z</time>
      </trkpt>
      <trkpt lat="47.68833" lon="6.20794">
        <ele>329.39999389648</ele>
        <time>2012-08-18T07:59:11.000Z</time>
      </trkpt>
      <trkpt lat="47.68833" lon="6.20808">
        <ele>329.39999389648</ele>
        <time>2012-08-18T07:59:17.000Z</time>
      </trkpt>
      <trkpt lat="47.68832" lon="6.20812">
        <ele>329.39999389648</ele>
        <time>2012-08-18T07:59:19.000Z</time>
      </trkpt>
      <trkpt lat="47.68829" lon="6.20822">
        <ele>329.39999389648</ele>
        <time>2012-08-18T07:59:23.000Z</time>
      </trkpt>
      <trkpt lat="47.68828" lon="6.20826">
        <ele>329.39999389648</ele>
        <time>2012-08-18T07:59:24.000Z</time>
      </trkpt>
      <trkpt lat="47.68826" lon="6.20843">
        <ele>329.39999389648</ele>
        <time>2012-08-18T07:59:29.000Z</time>
      </trkpt>
      <trkpt lat="47.68821" lon="6.2086">
        <ele>329.39999389648</ele>
        <time>2012-08-18T07:59:35.000Z</time>
      </trkpt>
      <trkpt lat="47.6882" lon="6.20863">
        <ele>329</ele>
        <time>2012-08-18T07:59:36.000Z</time>
      </trkpt>
      <trkpt lat="47.68819" lon="6.20866">
        <ele>328.39999389648</ele>
        <time>2012-08-18T07:59:37.000Z</time>
      </trkpt>
      <trkpt lat="47.68818" lon="6.20869">
        <ele>328</ele>
        <time>2012-08-18T07:59:38.000Z</time>
      </trkpt>
      <trkpt lat="47.68817" lon="6.20872">
        <ele>327.60000610352</ele>
        <time>2012-08-18T07:59:39.000Z</time>
      </trkpt>
      <trkpt lat="47.68816" lon="6.20875">
        <ele>327.20001220703</ele>
        <time>2012-08-18T07:59:40.000Z</time>
      </trkpt>
      <trkpt lat="47.68815" lon="6.20876">
        <ele>327.20001220703</ele>
        <time>2012-08-18T07:59:41.000Z</time>
      </trkpt>
      <trkpt lat="47.68814" lon="6.2089">
        <ele>327.20001220703</ele>
        <time>2012-08-18T07:59:47.000Z</time>
      </trkpt>
      <trkpt lat="47.68812" lon="6.20899">
        <ele>326.79998779297</ele>
        <time>2012-08-18T07:59:49.000Z</time>
      </trkpt>
      <trkpt lat="47.68811" lon="6.20902">
        <ele>326.39999389648</ele>
        <time>2012-08-18T07:59:50.000Z</time>
      </trkpt>
      <trkpt lat="47.68809" lon="6.20905">
        <ele>326</ele>
        <time>2012-08-18T07:59:51.000Z</time>
      </trkpt>
      <trkpt lat="47.68807" lon="6.20907">
        <ele>325.60000610352</ele>
        <time>2012-08-18T07:59:52.000Z</time>
      </trkpt>
      <trkpt lat="47.68805" lon="6.20908">
        <ele>325.20001220703</ele>
        <time>2012-08-18T07:59:53.000Z</time>
      </trkpt>
      <trkpt lat="47.688" lon="6.20912">
        <ele>325.20001220703</ele>
        <time>2012-08-18T07:59:57.000Z</time>
      </trkpt>
      <trkpt lat="47.68791" lon="6.20912">
        <ele>325.20001220703</ele>
        <time>2012-08-18T08:00:04.000Z</time>
      </trkpt>
      <trkpt lat="47.68778" lon="6.20909">
        <ele>325.20001220703</ele>
        <time>2012-08-18T08:00:10.000Z</time>
      </trkpt>
      <trkpt lat="47.68761" lon="6.2091">
        <ele>325.20001220703</ele>
        <time>2012-08-18T08:00:17.000Z</time>
      </trkpt>
      <trkpt lat="47.6875" lon="6.20909">
        <ele>325.20001220703</ele>
        <time>2012-08-18T08:00:23.000Z</time>
      </trkpt>
      <trkpt lat="47.68739" lon="6.20911">
        <ele>325.60000610352</ele>
        <time>2012-08-18T08:00:29.000Z</time>
      </trkpt>
      <trkpt lat="47.68737" lon="6.2091">
        <ele>326</ele>
        <time>2012-08-18T08:00:30.000Z</time>
      </trkpt>
      <trkpt lat="47.68735" lon="6.2091">
        <ele>326.79998779297</ele>
        <time>2012-08-18T08:00:31.000Z</time>
      </trkpt>
      <trkpt lat="47.68734" lon="6.20911">
        <ele>327.20001220703</ele>
        <time>2012-08-18T08:00:32.000Z</time>
      </trkpt>
      <trkpt lat="47.6873" lon="6.20912">
        <ele>327.20001220703</ele>
        <time>2012-08-18T08:00:34.000Z</time>
      </trkpt>
      <trkpt lat="47.68721" lon="6.20913">
        <ele>327.20001220703</ele>
        <time>2012-08-18T08:00:40.000Z</time>
      </trkpt>
      <trkpt lat="47.68713" lon="6.20913">
        <ele>327.60000610352</ele>
        <time>2012-08-18T08:00:46.000Z</time>
      </trkpt>
      <trkpt lat="47.68712" lon="6.20914">
        <ele>328</ele>
        <time>2012-08-18T08:00:47.000Z</time>
      </trkpt>
      <trkpt lat="47.6871" lon="6.20914">
        <ele>328.39999389648</ele>
        <time>2012-08-18T08:00:48.000Z</time>
      </trkpt>
      <trkpt lat="47.68708" lon="6.20914">
        <ele>328.79998779297</ele>
        <time>2012-08-18T08:00:49.000Z</time>
      </trkpt>
      <trkpt lat="47.68707" lon="6.20914">
        <ele>329.20001220703</ele>
        <time>2012-08-18T08:00:50.000Z</time>
      </trkpt>
      <trkpt lat="47.68704" lon="6.20914">
        <ele>329.20001220703</ele>
        <time>2012-08-18T08:00:52.000Z</time>
      </trkpt>
      <trkpt lat="47.68694" lon="6.20912">
        <ele>329.20001220703</ele>
        <time>2012-08-18T08:00:58.000Z</time>
      </trkpt>
      <trkpt lat="47.68689" lon="6.20911">
        <ele>329.20001220703</ele>
        <time>2012-08-18T08:01:03.000Z</time>
      </trkpt>
      <trkpt lat="47.68687" lon="6.2091">
        <ele>329.60000610352</ele>
        <time>2012-08-18T08:01:05.000Z</time>
      </trkpt>
      <trkpt lat="47.68686" lon="6.20909">
        <ele>330</ele>
        <time>2012-08-18T08:01:06.000Z</time>
      </trkpt>
      <trkpt lat="47.68686" lon="6.20908">
        <ele>330.39999389648</ele>
        <time>2012-08-18T08:01:07.000Z</time>
      </trkpt>
      <trkpt lat="47.68684" lon="6.20908">
        <ele>330.79998779297</ele>
        <time>2012-08-18T08:01:08.000Z</time>
      </trkpt>
      <trkpt lat="47.68683" lon="6.20907">
        <ele>331.20001220703</ele>
        <time>2012-08-18T08:01:09.000Z</time>
      </trkpt>
      <trkpt lat="47.68673" lon="6.20903">
        <ele>331.20001220703</ele>
        <time>2012-08-18T08:01:14.000Z</time>
      </trkpt>
      <trkpt lat="47.68671" lon="6.20901">
        <ele>331.20001220703</ele>
        <time>2012-08-18T08:01:15.000Z</time>
      </trkpt>
      <trkpt lat="47.6866" lon="6.20887">
        <ele>331.20001220703</ele>
        <time>2012-08-18T08:01:21.000Z</time>
      </trkpt>
      <trkpt lat="47.68653" lon="6.2088">
        <ele>331.20001220703</ele>
        <time>2012-08-18T08:01:26.000Z</time>
      </trkpt>
      <trkpt lat="47.68651" lon="6.20879">
        <ele>331.20001220703</ele>
        <time>2012-08-18T08:01:27.000Z</time>
      </trkpt>
      <trkpt lat="47.68642" lon="6.2087">
        <ele>331.20001220703</ele>
        <time>2012-08-18T08:01:32.000Z</time>
      </trkpt>
      <trkpt lat="47.68639" lon="6.20861">
        <ele>331.20001220703</ele>
        <time>2012-08-18T08:01:36.000Z</time>
      </trkpt>
      <trkpt lat="47.68637" lon="6.20858">
        <ele>331.20001220703</ele>
        <time>2012-08-18T08:01:37.000Z</time>
      </trkpt>
      <trkpt lat="47.68631" lon="6.20848">
        <ele>331.20001220703</ele>
        <time>2012-08-18T08:01:41.000Z</time>
      </trkpt>
      <trkpt lat="47.68623" lon="6.20825">
        <ele>331.20001220703</ele>
        <time>2012-08-18T08:01:47.000Z</time>
      </trkpt>
      <trkpt lat="47.68612" lon="6.20802">
        <ele>331.20001220703</ele>
        <time>2012-08-18T08:01:53.000Z</time>
      </trkpt>
      <trkpt lat="47.68604" lon="6.2079">
        <ele>331.20001220703</ele>
        <time>2012-08-18T08:01:58.000Z</time>
      </trkpt>
      <trkpt lat="47.68594" lon="6.20768">
        <ele>330.60000610352</ele>
        <time>2012-08-18T08:02:04.000Z</time>
      </trkpt>
      <trkpt lat="47.68593" lon="6.20765">
        <ele>330</ele>
        <time>2012-08-18T08:02:05.000Z</time>
      </trkpt>
      <trkpt lat="47.68593" lon="6.20762">
        <ele>329.39999389648</ele>
        <time>2012-08-18T08:02:06.000Z</time>
      </trkpt>
      <trkpt lat="47.68592" lon="6.2076">
        <ele>329.79998779297</ele>
        <time>2012-08-18T08:02:07.000Z</time>
      </trkpt>
      <trkpt lat="47.68591" lon="6.20757">
        <ele>330.20001220703</ele>
        <time>2012-08-18T08:02:08.000Z</time>
      </trkpt>
      <trkpt lat="47.68591" lon="6.20755">
        <ele>330.39999389648</ele>
        <time>2012-08-18T08:02:09.000Z</time>
      </trkpt>
      <trkpt lat="47.68591" lon="6.20755">
        <ele>331.20001220703</ele>
        <time>2012-08-18T08:02:10.000Z</time>
      </trkpt>
      <trkpt lat="47.68593" lon="6.20761">
        <ele>331.20001220703</ele>
        <time>2012-08-18T08:02:16.000Z</time>
      </trkpt>
      <trkpt lat="47.68594" lon="6.20763">
        <ele>331.20001220703</ele>
        <time>2012-08-18T08:02:17.000Z</time>
      </trkpt>
      <trkpt lat="47.68598" lon="6.20776">
        <ele>331.20001220703</ele>
        <time>2012-08-18T08:02:22.000Z</time>
      </trkpt>
      <trkpt lat="47.686" lon="6.20784">
        <ele>330.79998779297</ele>
        <time>2012-08-18T08:02:24.000Z</time>
      </trkpt>
      <trkpt lat="47.68601" lon="6.20788">
        <ele>330.39999389648</ele>
        <time>2012-08-18T08:02:25.000Z</time>
      </trkpt>
      <trkpt lat="47.686" lon="6.20793">
        <ele>329.79998779297</ele>
        <time>2012-08-18T08:02:26.000Z</time>
      </trkpt>
      <trkpt lat="47.68601" lon="6.20797">
        <ele>329.39999389648</ele>
        <time>2012-08-18T08:02:27.000Z</time>
      </trkpt>
      <trkpt lat="47.68601" lon="6.20801">
        <ele>329</ele>
        <time>2012-08-18T08:02:28.000Z</time>
      </trkpt>
      <trkpt lat="47.68603" lon="6.20812">
        <ele>329</ele>
        <time>2012-08-18T08:02:31.000Z</time>
      </trkpt>
      <trkpt lat="47.68604" lon="6.20817">
        <ele>328.60000610352</ele>
        <time>2012-08-18T08:02:33.000Z</time>
      </trkpt>
      <trkpt lat="47.68604" lon="6.2082">
        <ele>328.20001220703</ele>
        <time>2012-08-18T08:02:34.000Z</time>
      </trkpt>
      <trkpt lat="47.68604" lon="6.20822">
        <ele>327.39999389648</ele>
        <time>2012-08-18T08:02:35.000Z</time>
      </trkpt>
      <trkpt lat="47.68605" lon="6.20824">
        <ele>327</ele>
        <time>2012-08-18T08:02:36.000Z</time>
      </trkpt>
      <trkpt lat="47.68605" lon="6.20826">
        <ele>327</ele>
        <time>2012-08-18T08:02:37.000Z</time>
      </trkpt>
      <trkpt lat="47.68605" lon="6.20825">
        <ele>327</ele>
        <time>2012-08-18T08:02:38.000Z</time>
      </trkpt>
      <trkpt lat="47.68605" lon="6.20817">
        <ele>327</ele>
        <time>2012-08-18T08:03:07.000Z</time>
      </trkpt>
      <trkpt lat="47.68604" lon="6.20816">
        <ele>327</ele>
        <time>2012-08-18T08:03:08.000Z</time>
      </trkpt>
      <trkpt lat="47.68603" lon="6.20799">
        <ele>327</ele>
        <time>2012-08-18T08:03:14.000Z</time>
      </trkpt>
      <trkpt lat="47.68601" lon="6.20793">
        <ele>327</ele>
        <time>2012-08-18T08:03:17.000Z</time>
      </trkpt>
      <trkpt lat="47.68598" lon="6.20789">
        <ele>327</ele>
        <time>2012-08-18T08:03:20.000Z</time>
      </trkpt>
      <trkpt lat="47.68595" lon="6.20781">
        <ele>327.79998779297</ele>
        <time>2012-08-18T08:03:24.000Z</time>
      </trkpt>
      <trkpt lat="47.68595" lon="6.20779">
        <ele>328.20001220703</ele>
        <time>2012-08-18T08:03:25.000Z</time>
      </trkpt>
      <trkpt lat="47.68594" lon="6.20777">
        <ele>328.60000610352</ele>
        <time>2012-08-18T08:03:26.000Z</time>
      </trkpt>
      <trkpt lat="47.68594" lon="6.20774">
        <ele>329.20001220703</ele>
        <time>2012-08-18T08:03:27.000Z</time>
      </trkpt>
      <trkpt lat="47.68593" lon="6.20772">
        <ele>329.20001220703</ele>
        <time>2012-08-18T08:03:28.000Z</time>
      </trkpt>
      <trkpt lat="47.68592" lon="6.20768">
        <ele>329.20001220703</ele>
        <time>2012-08-18T08:03:30.000Z</time>
      </trkpt>
      <trkpt lat="47.6859" lon="6.20764">
        <ele>329.20001220703</ele>
        <time>2012-08-18T08:03:32.000Z</time>
      </trkpt>
      <trkpt lat="47.68585" lon="6.20749">
        <ele>329.20001220703</ele>
        <time>2012-08-18T08:03:38.000Z</time>
      </trkpt>
      <trkpt lat="47.68582" lon="6.20744">
        <ele>329.20001220703</ele>
        <time>2012-08-18T08:03:41.000Z</time>
      </trkpt>
      <trkpt lat="47.68577" lon="6.2074">
        <ele>329.20001220703</ele>
        <time>2012-08-18T08:03:45.000Z</time>
      </trkpt>
      <trkpt lat="47.68562" lon="6.20721">
        <ele>329.20001220703</ele>
        <time>2012-08-18T08:03:52.000Z</time>
      </trkpt>
      <trkpt lat="47.68545" lon="6.20698">
        <ele>329.20001220703</ele>
        <time>2012-08-18T08:03:58.000Z</time>
      </trkpt>
      <trkpt lat="47.68531" lon="6.20674">
        <ele>329.20001220703</ele>
        <time>2012-08-18T08:04:04.000Z</time>
      </trkpt>
      <trkpt lat="47.68519" lon="6.20654">
        <ele>329.20001220703</ele>
        <time>2012-08-18T08:04:09.000Z</time>
      </trkpt>
      <trkpt lat="47.68508" lon="6.20637">
        <ele>329.20001220703</ele>
        <time>2012-08-18T08:04:14.000Z</time>
      </trkpt>
      <trkpt lat="47.68494" lon="6.20613">
        <ele>329.20001220703</ele>
        <time>2012-08-18T08:04:19.000Z</time>
      </trkpt>
      <trkpt lat="47.68481" lon="6.20592">
        <ele>329.20001220703</ele>
        <time>2012-08-18T08:04:24.000Z</time>
      </trkpt>
      <trkpt lat="47.68471" lon="6.2058">
        <ele>328.60000610352</ele>
        <time>2012-08-18T08:04:27.000Z</time>
      </trkpt>
      <trkpt lat="47.68467" lon="6.20576">
        <ele>328.20001220703</ele>
        <time>2012-08-18T08:04:28.000Z</time>
      </trkpt>
      <trkpt lat="47.68463" lon="6.20572">
        <ele>327.79998779297</ele>
        <time>2012-08-18T08:04:29.000Z</time>
      </trkpt>
      <trkpt lat="47.6846" lon="6.20569">
        <ele>327.39999389648</ele>
        <time>2012-08-18T08:04:30.000Z</time>
      </trkpt>
      <trkpt lat="47.68456" lon="6.20565">
        <ele>327</ele>
        <time>2012-08-18T08:04:31.000Z</time>
      </trkpt>
      <trkpt lat="47.68435" lon="6.20548">
        <ele>327</ele>
        <time>2012-08-18T08:04:36.000Z</time>
      </trkpt>
      <trkpt lat="47.68415" lon="6.20532">
        <ele>327</ele>
        <time>2012-08-18T08:04:42.000Z</time>
      </trkpt>
      <trkpt lat="47.68402" lon="6.20523">
        <ele>327</ele>
        <time>2012-08-18T08:04:46.000Z</time>
      </trkpt>
      <trkpt lat="47.68387" lon="6.20515">
        <ele>327</ele>
        <time>2012-08-18T08:04:51.000Z</time>
      </trkpt>
      <trkpt lat="47.68371" lon="6.20507">
        <ele>327</ele>
        <time>2012-08-18T08:04:57.000Z</time>
      </trkpt>
      <trkpt lat="47.68353" lon="6.20496">
        <ele>327</ele>
        <time>2012-08-18T08:05:04.000Z</time>
      </trkpt>
      <trkpt lat="47.68341" lon="6.20491">
        <ele>327</ele>
        <time>2012-08-18T08:05:10.000Z</time>
      </trkpt>
      <trkpt lat="47.68329" lon="6.20483">
        <ele>327</ele>
        <time>2012-08-18T08:05:16.000Z</time>
      </trkpt>
      <trkpt lat="47.6832" lon="6.20477">
        <ele>327</ele>
        <time>2012-08-18T08:05:21.000Z</time>
      </trkpt>
      <trkpt lat="47.68315" lon="6.20471">
        <ele>327.39999389648</ele>
        <time>2012-08-18T08:05:24.000Z</time>
      </trkpt>
      <trkpt lat="47.68314" lon="6.20469">
        <ele>327.79998779297</ele>
        <time>2012-08-18T08:05:25.000Z</time>
      </trkpt>
      <trkpt lat="47.68312" lon="6.20467">
        <ele>328.20001220703</ele>
        <time>2012-08-18T08:05:26.000Z</time>
      </trkpt>
      <trkpt lat="47.6831" lon="6.20466">
        <ele>329</ele>
        <time>2012-08-18T08:05:27.000Z</time>
      </trkpt>
      <trkpt lat="47.68303" lon="6.20459">
        <ele>329</ele>
        <time>2012-08-18T08:05:31.000Z</time>
      </trkpt>
      <trkpt lat="47.68301" lon="6.20457">
        <ele>329</ele>
        <time>2012-08-18T08:05:32.000Z</time>
      </trkpt>
      <trkpt lat="47.68282" lon="6.20445">
        <ele>329</ele>
        <time>2012-08-18T08:05:40.000Z</time>
      </trkpt>
      <trkpt lat="47.68267" lon="6.20434">
        <ele>329</ele>
        <time>2012-08-18T08:05:45.000Z</time>
      </trkpt>
      <trkpt lat="47.68247" lon="6.20419">
        <ele>329</ele>
        <time>2012-08-18T08:05:51.000Z</time>
      </trkpt>
      <trkpt lat="47.68231" lon="6.20405">
        <ele>329</ele>
        <time>2012-08-18T08:05:56.000Z</time>
      </trkpt>
      <trkpt lat="47.68214" lon="6.20394">
        <ele>329</ele>
        <time>2012-08-18T08:06:03.000Z</time>
      </trkpt>
      <trkpt lat="47.68205" lon="6.20388">
        <ele>329.39999389648</ele>
        <time>2012-08-18T08:06:07.000Z</time>
      </trkpt>
      <trkpt lat="47.68203" lon="6.20387">
        <ele>329.79998779297</ele>
        <time>2012-08-18T08:06:08.000Z</time>
      </trkpt>
      <trkpt lat="47.68201" lon="6.20386">
        <ele>330.20001220703</ele>
        <time>2012-08-18T08:06:09.000Z</time>
      </trkpt>
      <trkpt lat="47.68199" lon="6.20384">
        <ele>330.60000610352</ele>
        <time>2012-08-18T08:06:10.000Z</time>
      </trkpt>
      <trkpt lat="47.68196" lon="6.20383">
        <ele>331</ele>
        <time>2012-08-18T08:06:11.000Z</time>
      </trkpt>
      <trkpt lat="47.6818" lon="6.20377">
        <ele>331</ele>
        <time>2012-08-18T08:06:18.000Z</time>
      </trkpt>
      <trkpt lat="47.68168" lon="6.20372">
        <ele>331.39999389648</ele>
        <time>2012-08-18T08:06:24.000Z</time>
      </trkpt>
      <trkpt lat="47.68166" lon="6.20371">
        <ele>331.79998779297</ele>
        <time>2012-08-18T08:06:25.000Z</time>
      </trkpt>
      <trkpt lat="47.68164" lon="6.2037">
        <ele>332.20001220703</ele>
        <time>2012-08-18T08:06:26.000Z</time>
      </trkpt>
      <trkpt lat="47.68162" lon="6.2037">
        <ele>332.60000610352</ele>
        <time>2012-08-18T08:06:27.000Z</time>
      </trkpt>
      <trkpt lat="47.68159" lon="6.20369">
        <ele>333</ele>
        <time>2012-08-18T08:06:28.000Z</time>
      </trkpt>
      <trkpt lat="47.68148" lon="6.20366">
        <ele>333</ele>
        <time>2012-08-18T08:06:34.000Z</time>
      </trkpt>
      <trkpt lat="47.6814" lon="6.20363">
        <ele>333.39999389648</ele>
        <time>2012-08-18T08:06:38.000Z</time>
      </trkpt>
      <trkpt lat="47.68138" lon="6.20362">
        <ele>333.79998779297</ele>
        <time>2012-08-18T08:06:39.000Z</time>
      </trkpt>
      <trkpt lat="47.68136" lon="6.20362">
        <ele>334.20001220703</ele>
        <time>2012-08-18T08:06:40.000Z</time>
      </trkpt>
      <trkpt lat="47.68135" lon="6.20361">
        <ele>335.20001220703</ele>
        <time>2012-08-18T08:06:41.000Z</time>
      </trkpt>
      <trkpt lat="47.6812" lon="6.20355">
        <ele>335.20001220703</ele>
        <time>2012-08-18T08:06:48.000Z</time>
      </trkpt>
      <trkpt lat="47.68103" lon="6.20351">
        <ele>335.20001220703</ele>
        <time>2012-08-18T08:06:55.000Z</time>
      </trkpt>
      <trkpt lat="47.68083" lon="6.20343">
        <ele>335.20001220703</ele>
        <time>2012-08-18T08:07:02.000Z</time>
      </trkpt>
      <trkpt lat="47.68061" lon="6.20335">
        <ele>335.20001220703</ele>
        <time>2012-08-18T08:07:08.000Z</time>
      </trkpt>
      <trkpt lat="47.68039" lon="6.20325">
        <ele>335.20001220703</ele>
        <time>2012-08-18T08:07:15.000Z</time>
      </trkpt>
      <trkpt lat="47.68026" lon="6.2032">
        <ele>335.60000610352</ele>
        <time>2012-08-18T08:07:20.000Z</time>
      </trkpt>
      <trkpt lat="47.68023" lon="6.20319">
        <ele>336</ele>
        <time>2012-08-18T08:07:21.000Z</time>
      </trkpt>
      <trkpt lat="47.6802" lon="6.20317">
        <ele>336.39999389648</ele>
        <time>2012-08-18T08:07:22.000Z</time>
      </trkpt>
      <trkpt lat="47.68017" lon="6.20316">
        <ele>336.79998779297</ele>
        <time>2012-08-18T08:07:23.000Z</time>
      </trkpt>
      <trkpt lat="47.68014" lon="6.20315">
        <ele>337.20001220703</ele>
        <time>2012-08-18T08:07:24.000Z</time>
      </trkpt>
      <trkpt lat="47.67996" lon="6.20307">
        <ele>337.20001220703</ele>
        <time>2012-08-18T08:07:30.000Z</time>
      </trkpt>
      <trkpt lat="47.67976" lon="6.20301">
        <ele>337.20001220703</ele>
        <time>2012-08-18T08:07:36.000Z</time>
      </trkpt>
      <trkpt lat="47.67951" lon="6.20288">
        <ele>337.20001220703</ele>
        <time>2012-08-18T08:07:43.000Z</time>
      </trkpt>
      <trkpt lat="47.67943" lon="6.20283">
        <ele>337.20001220703</ele>
        <time>2012-08-18T08:07:45.000Z</time>
      </trkpt>
      <trkpt lat="47.67931" lon="6.20272">
        <ele>336.79998779297</ele>
        <time>2012-08-18T08:07:48.000Z</time>
      </trkpt>
      <trkpt lat="47.67926" lon="6.20269">
        <ele>336.39999389648</ele>
        <time>2012-08-18T08:07:49.000Z</time>
      </trkpt>
      <trkpt lat="47.67921" lon="6.20265">
        <ele>336</ele>
        <time>2012-08-18T08:07:50.000Z</time>
      </trkpt>
      <trkpt lat="47.67916" lon="6.2026">
        <ele>335.39999389648</ele>
        <time>2012-08-18T08:07:51.000Z</time>
      </trkpt>
      <trkpt lat="47.6791" lon="6.20256">
        <ele>335</ele>
        <time>2012-08-18T08:07:52.000Z</time>
      </trkpt>
      <trkpt lat="47.67905" lon="6.20251">
        <ele>334.60000610352</ele>
        <time>2012-08-18T08:07:53.000Z</time>
      </trkpt>
      <trkpt lat="47.67899" lon="6.20245">
        <ele>334.20001220703</ele>
        <time>2012-08-18T08:07:54.000Z</time>
      </trkpt>
      <trkpt lat="47.67893" lon="6.2024">
        <ele>333.79998779297</ele>
        <time>2012-08-18T08:07:55.000Z</time>
      </trkpt>
      <trkpt lat="47.67887" lon="6.20235">
        <ele>333</ele>
        <time>2012-08-18T08:07:56.000Z</time>
      </trkpt>
      <trkpt lat="47.67876" lon="6.20224">
        <ele>332.60000610352</ele>
        <time>2012-08-18T08:07:58.000Z</time>
      </trkpt>
      <trkpt lat="47.6787" lon="6.20219">
        <ele>332.20001220703</ele>
        <time>2012-08-18T08:07:59.000Z</time>
      </trkpt>
      <trkpt lat="47.67864" lon="6.20214">
        <ele>331.79998779297</ele>
        <time>2012-08-18T08:08:00.000Z</time>
      </trkpt>
      <trkpt lat="47.67859" lon="6.20209">
        <ele>331.39999389648</ele>
        <time>2012-08-18T08:08:01.000Z</time>
      </trkpt>
      <trkpt lat="47.67854" lon="6.20204">
        <ele>331</ele>
        <time>2012-08-18T08:08:02.000Z</time>
      </trkpt>
      <trkpt lat="47.67844" lon="6.20195">
        <ele>330.60000610352</ele>
        <time>2012-08-18T08:08:04.000Z</time>
      </trkpt>
      <trkpt lat="47.6784" lon="6.20193">
        <ele>330.20001220703</ele>
        <time>2012-08-18T08:08:05.000Z</time>
      </trkpt>
      <trkpt lat="47.67835" lon="6.20192">
        <ele>329.79998779297</ele>
        <time>2012-08-18T08:08:06.000Z</time>
      </trkpt>
      <trkpt lat="47.6783" lon="6.20193">
        <ele>329.39999389648</ele>
        <time>2012-08-18T08:08:07.000Z</time>
      </trkpt>
      <trkpt lat="47.67826" lon="6.20196">
        <ele>329</ele>
        <time>2012-08-18T08:08:08.000Z</time>
      </trkpt>
      <trkpt lat="47.67821" lon="6.202">
        <ele>329</ele>
        <time>2012-08-18T08:08:09.000Z</time>
      </trkpt>
      <trkpt lat="47.67806" lon="6.20218">
        <ele>329</ele>
        <time>2012-08-18T08:08:14.000Z</time>
      </trkpt>
      <trkpt lat="47.67797" lon="6.2023">
        <ele>328.39999389648</ele>
        <time>2012-08-18T08:08:17.000Z</time>
      </trkpt>
      <trkpt lat="47.67793" lon="6.20233">
        <ele>328</ele>
        <time>2012-08-18T08:08:18.000Z</time>
      </trkpt>
      <trkpt lat="47.67789" lon="6.20235">
        <ele>327.60000610352</ele>
        <time>2012-08-18T08:08:19.000Z</time>
      </trkpt>
      <trkpt lat="47.67785" lon="6.20237">
        <ele>326.60000610352</ele>
        <time>2012-08-18T08:08:20.000Z</time>
      </trkpt>
      <trkpt lat="47.6778" lon="6.20239">
        <ele>326.60000610352</ele>
        <time>2012-08-18T08:08:21.000Z</time>
      </trkpt>
      <trkpt lat="47.67765" lon="6.20244">
        <ele>326.20001220703</ele>
        <time>2012-08-18T08:08:24.000Z</time>
      </trkpt>
      <trkpt lat="47.67759" lon="6.20246">
        <ele>325.79998779297</ele>
        <time>2012-08-18T08:08:25.000Z</time>
      </trkpt>
      <trkpt lat="47.67753" lon="6.20247">
        <ele>325.39999389648</ele>
        <time>2012-08-18T08:08:26.000Z</time>
      </trkpt>
      <trkpt lat="47.67747" lon="6.20248">
        <ele>325</ele>
        <time>2012-08-18T08:08:27.000Z</time>
      </trkpt>
      <trkpt lat="47.67741" lon="6.20249">
        <ele>324.39999389648</ele>
        <time>2012-08-18T08:08:28.000Z</time>
      </trkpt>
      <trkpt lat="47.67734" lon="6.2025">
        <ele>323.79998779297</ele>
        <time>2012-08-18T08:08:29.000Z</time>
      </trkpt>
      <trkpt lat="47.67729" lon="6.2025">
        <ele>323.39999389648</ele>
        <time>2012-08-18T08:08:30.000Z</time>
      </trkpt>
      <trkpt lat="47.67723" lon="6.20249">
        <ele>322.79998779297</ele>
        <time>2012-08-18T08:08:31.000Z</time>
      </trkpt>
      <trkpt lat="47.67717" lon="6.20247">
        <ele>322.20001220703</ele>
        <time>2012-08-18T08:08:32.000Z</time>
      </trkpt>
      <trkpt lat="47.67711" lon="6.20245">
        <ele>321.79998779297</ele>
        <time>2012-08-18T08:08:33.000Z</time>
      </trkpt>
      <trkpt lat="47.67706" lon="6.20243">
        <ele>321.39999389648</ele>
        <time>2012-08-18T08:08:34.000Z</time>
      </trkpt>
      <trkpt lat="47.67701" lon="6.2024">
        <ele>321</ele>
        <time>2012-08-18T08:08:35.000Z</time>
      </trkpt>
      <trkpt lat="47.67696" lon="6.20237">
        <ele>320.60000610352</ele>
        <time>2012-08-18T08:08:36.000Z</time>
      </trkpt>
      <trkpt lat="47.67692" lon="6.20234">
        <ele>320.20001220703</ele>
        <time>2012-08-18T08:08:37.000Z</time>
      </trkpt>
      <trkpt lat="47.67678" lon="6.20226">
        <ele>320.20001220703</ele>
        <time>2012-08-18T08:08:40.000Z</time>
      </trkpt>
      <trkpt lat="47.67672" lon="6.20224">
        <ele>320.20001220703</ele>
        <time>2012-08-18T08:08:41.000Z</time>
      </trkpt>
      <trkpt lat="47.6765" lon="6.20215">
        <ele>319.39999389648</ele>
        <time>2012-08-18T08:08:45.000Z</time>
      </trkpt>
      <trkpt lat="47.67645" lon="6.20212">
        <ele>319</ele>
        <time>2012-08-18T08:08:46.000Z</time>
      </trkpt>
      <trkpt lat="47.67639" lon="6.20209">
        <ele>318.60000610352</ele>
        <time>2012-08-18T08:08:47.000Z</time>
      </trkpt>
      <trkpt lat="47.67635" lon="6.20206">
        <ele>318.20001220703</ele>
        <time>2012-08-18T08:08:48.000Z</time>
      </trkpt>
      <trkpt lat="47.67626" lon="6.20199">
        <ele>318.20001220703</ele>
        <time>2012-08-18T08:08:50.000Z</time>
      </trkpt>
      <trkpt lat="47.67621" lon="6.20197">
        <ele>318.20001220703</ele>
        <time>2012-08-18T08:08:51.000Z</time>
      </trkpt>
      <trkpt lat="47.67603" lon="6.20187">
        <ele>318.20001220703</ele>
        <time>2012-08-18T08:08:55.000Z</time>
      </trkpt>
      <trkpt lat="47.67599" lon="6.20185">
        <ele>318.20001220703</ele>
        <time>2012-08-18T08:08:56.000Z</time>
      </trkpt>
      <trkpt lat="47.6759" lon="6.20181">
        <ele>318.20001220703</ele>
        <time>2012-08-18T08:08:58.000Z</time>
      </trkpt>
      <trkpt lat="47.67571" lon="6.20174">
        <ele>318.20001220703</ele>
        <time>2012-08-18T08:09:02.000Z</time>
      </trkpt>
      <trkpt lat="47.67566" lon="6.20173">
        <ele>317.79998779297</ele>
        <time>2012-08-18T08:09:03.000Z</time>
      </trkpt>
      <trkpt lat="47.67561" lon="6.20173">
        <ele>317.20001220703</ele>
        <time>2012-08-18T08:09:04.000Z</time>
      </trkpt>
      <trkpt lat="47.67555" lon="6.20172">
        <ele>316.79998779297</ele>
        <time>2012-08-18T08:09:05.000Z</time>
      </trkpt>
      <trkpt lat="47.6755" lon="6.20171">
        <ele>316.39999389648</ele>
        <time>2012-08-18T08:09:06.000Z</time>
      </trkpt>
      <trkpt lat="47.67544" lon="6.2017">
        <ele>316</ele>
        <time>2012-08-18T08:09:07.000Z</time>
      </trkpt>
      <trkpt lat="47.67539" lon="6.20168">
        <ele>316</ele>
        <time>2012-08-18T08:09:08.000Z</time>
      </trkpt>
      <trkpt lat="47.6751" lon="6.20164">
        <ele>316</ele>
        <time>2012-08-18T08:09:14.000Z</time>
      </trkpt>
      <trkpt lat="47.67489" lon="6.20163">
        <ele>315.60000610352</ele>
        <time>2012-08-18T08:09:18.000Z</time>
      </trkpt>
      <trkpt lat="47.67485" lon="6.20162">
        <ele>315.20001220703</ele>
        <time>2012-08-18T08:09:19.000Z</time>
      </trkpt>
      <trkpt lat="47.67481" lon="6.20163">
        <ele>314.79998779297</ele>
        <time>2012-08-18T08:09:20.000Z</time>
      </trkpt>
      <trkpt lat="47.67476" lon="6.20161">
        <ele>314.39999389648</ele>
        <time>2012-08-18T08:09:21.000Z</time>
      </trkpt>
      <trkpt lat="47.67472" lon="6.20161">
        <ele>313.79998779297</ele>
        <time>2012-08-18T08:09:22.000Z</time>
      </trkpt>
      <trkpt lat="47.67467" lon="6.20161">
        <ele>313.79998779297</ele>
        <time>2012-08-18T08:09:23.000Z</time>
      </trkpt>
      <trkpt lat="47.6743" lon="6.20158">
        <ele>313.79998779297</ele>
        <time>2012-08-18T08:09:30.000Z</time>
      </trkpt>
      <trkpt lat="47.6741" lon="6.20162">
        <ele>313.39999389648</ele>
        <time>2012-08-18T08:09:34.000Z</time>
      </trkpt>
      <trkpt lat="47.67405" lon="6.20164">
        <ele>313</ele>
        <time>2012-08-18T08:09:35.000Z</time>
      </trkpt>
      <trkpt lat="47.674" lon="6.20165">
        <ele>312.60000610352</ele>
        <time>2012-08-18T08:09:36.000Z</time>
      </trkpt>
      <trkpt lat="47.67395" lon="6.20168">
        <ele>312.20001220703</ele>
        <time>2012-08-18T08:09:37.000Z</time>
      </trkpt>
      <trkpt lat="47.6739" lon="6.20172">
        <ele>311.79998779297</ele>
        <time>2012-08-18T08:09:38.000Z</time>
      </trkpt>
      <trkpt lat="47.67381" lon="6.20177">
        <ele>311.79998779297</ele>
        <time>2012-08-18T08:09:40.000Z</time>
      </trkpt>
      <trkpt lat="47.67351" lon="6.20197">
        <ele>311.79998779297</ele>
        <time>2012-08-18T08:09:46.000Z</time>
      </trkpt>
      <trkpt lat="47.67329" lon="6.20213">
        <ele>311.79998779297</ele>
        <time>2012-08-18T08:09:51.000Z</time>
      </trkpt>
      <trkpt lat="47.67321" lon="6.2022">
        <ele>311.79998779297</ele>
        <time>2012-08-18T08:09:53.000Z</time>
      </trkpt>
      <trkpt lat="47.67302" lon="6.20239">
        <ele>311.39999389648</ele>
        <time>2012-08-18T08:09:58.000Z</time>
      </trkpt>
      <trkpt lat="47.67298" lon="6.20243">
        <ele>310.60000610352</ele>
        <time>2012-08-18T08:09:59.000Z</time>
      </trkpt>
      <trkpt lat="47.67294" lon="6.20247">
        <ele>310.20001220703</ele>
        <time>2012-08-18T08:10:00.000Z</time>
      </trkpt>
      <trkpt lat="47.6729" lon="6.20251">
        <ele>309.79998779297</ele>
        <time>2012-08-18T08:10:01.000Z</time>
      </trkpt>
      <trkpt lat="47.67273" lon="6.20267">
        <ele>309.79998779297</ele>
        <time>2012-08-18T08:10:06.000Z</time>
      </trkpt>
      <trkpt lat="47.67253" lon="6.20277">
        <ele>309.79998779297</ele>
        <time>2012-08-18T08:10:12.000Z</time>
      </trkpt>
      <trkpt lat="47.67239" lon="6.20284">
        <ele>309.79998779297</ele>
        <time>2012-08-18T08:10:17.000Z</time>
      </trkpt>
      <trkpt lat="47.67221" lon="6.20301">
        <ele>309.79998779297</ele>
        <time>2012-08-18T08:10:24.000Z</time>
      </trkpt>
      <trkpt lat="47.67204" lon="6.20313">
        <ele>309.79998779297</ele>
        <time>2012-08-18T08:10:31.000Z</time>
      </trkpt>
      <trkpt lat="47.67194" lon="6.20305">
        <ele>309.79998779297</ele>
        <time>2012-08-18T08:10:35.000Z</time>
      </trkpt>
      <trkpt lat="47.67175" lon="6.20286">
        <ele>309.79998779297</ele>
        <time>2012-08-18T08:10:43.000Z</time>
      </trkpt>
      <trkpt lat="47.67158" lon="6.20269">
        <ele>309.79998779297</ele>
        <time>2012-08-18T08:10:50.000Z</time>
      </trkpt>
      <trkpt lat="47.67137" lon="6.20249">
        <ele>309.79998779297</ele>
        <time>2012-08-18T08:10:59.000Z</time>
      </trkpt>
      <trkpt lat="47.67122" lon="6.20234">
        <ele>309.79998779297</ele>
        <time>2012-08-18T08:11:05.000Z</time>
      </trkpt>
      <trkpt lat="47.67103" lon="6.20213">
        <ele>309.79998779297</ele>
        <time>2012-08-18T08:11:13.000Z</time>
      </trkpt>
      <trkpt lat="47.67087" lon="6.20197">
        <ele>309.79998779297</ele>
        <time>2012-08-18T08:11:20.000Z</time>
      </trkpt>
      <trkpt lat="47.67068" lon="6.20177">
        <ele>309.79998779297</ele>
        <time>2012-08-18T08:11:28.000Z</time>
      </trkpt>
      <trkpt lat="47.67051" lon="6.20161">
        <ele>309.79998779297</ele>
        <time>2012-08-18T08:11:35.000Z</time>
      </trkpt>
      <trkpt lat="47.67035" lon="6.20137">
        <ele>309.79998779297</ele>
        <time>2012-08-18T08:11:43.000Z</time>
      </trkpt>
      <trkpt lat="47.67033" lon="6.20134">
        <ele>309.79998779297</ele>
        <time>2012-08-18T08:11:44.000Z</time>
      </trkpt>
      <trkpt lat="47.67023" lon="6.20123">
        <ele>309.79998779297</ele>
        <time>2012-08-18T08:11:49.000Z</time>
      </trkpt>
      <trkpt lat="47.67013" lon="6.20112">
        <ele>310.20001220703</ele>
        <time>2012-08-18T08:11:54.000Z</time>
      </trkpt>
      <trkpt lat="47.67011" lon="6.2011">
        <ele>310.60000610352</ele>
        <time>2012-08-18T08:11:55.000Z</time>
      </trkpt>
      <trkpt lat="47.6701" lon="6.20108">
        <ele>311</ele>
        <time>2012-08-18T08:11:56.000Z</time>
      </trkpt>
      <trkpt lat="47.67009" lon="6.20105">
        <ele>311.39999389648</ele>
        <time>2012-08-18T08:11:57.000Z</time>
      </trkpt>
      <trkpt lat="47.67007" lon="6.20102">
        <ele>311.79998779297</ele>
        <time>2012-08-18T08:11:58.000Z</time>
      </trkpt>
      <trkpt lat="47.66998" lon="6.20091">
        <ele>311.79998779297</ele>
        <time>2012-08-18T08:12:04.000Z</time>
      </trkpt>
      <trkpt lat="47.66987" lon="6.20076">
        <ele>311.79998779297</ele>
        <time>2012-08-18T08:12:10.000Z</time>
      </trkpt>
      <trkpt lat="47.66977" lon="6.20067">
        <ele>312.20001220703</ele>
        <time>2012-08-18T08:12:15.000Z</time>
      </trkpt>
      <trkpt lat="47.66975" lon="6.20065">
        <ele>312.60000610352</ele>
        <time>2012-08-18T08:12:16.000Z</time>
      </trkpt>
      <trkpt lat="47.66973" lon="6.20062">
        <ele>313</ele>
        <time>2012-08-18T08:12:17.000Z</time>
      </trkpt>
      <trkpt lat="47.66971" lon="6.20061">
        <ele>313.39999389648</ele>
        <time>2012-08-18T08:12:18.000Z</time>
      </trkpt>
      <trkpt lat="47.66968" lon="6.20058">
        <ele>313.79998779297</ele>
        <time>2012-08-18T08:12:19.000Z</time>
      </trkpt>
      <trkpt lat="47.66961" lon="6.20052">
        <ele>313.79998779297</ele>
        <time>2012-08-18T08:12:22.000Z</time>
      </trkpt>
      <trkpt lat="47.66947" lon="6.20042">
        <ele>313.79998779297</ele>
        <time>2012-08-18T08:12:28.000Z</time>
      </trkpt>
      <trkpt lat="47.6693" lon="6.20029">
        <ele>313.79998779297</ele>
        <time>2012-08-18T08:12:36.000Z</time>
      </trkpt>
      <trkpt lat="47.66917" lon="6.20012">
        <ele>313.79998779297</ele>
        <time>2012-08-18T08:12:44.000Z</time>
      </trkpt>
      <trkpt lat="47.66905" lon="6.19998">
        <ele>313.79998779297</ele>
        <time>2012-08-18T08:12:51.000Z</time>
      </trkpt>
      <trkpt lat="47.669" lon="6.19993">
        <ele>314.20001220703</ele>
        <time>2012-08-18T08:12:54.000Z</time>
      </trkpt>
      <trkpt lat="47.66897" lon="6.19992">
        <ele>314.60000610352</ele>
        <time>2012-08-18T08:12:55.000Z</time>
      </trkpt>
      <trkpt lat="47.66895" lon="6.1999">
        <ele>315</ele>
        <time>2012-08-18T08:12:56.000Z</time>
      </trkpt>
      <trkpt lat="47.66892" lon="6.19989">
        <ele>315.39999389648</ele>
        <time>2012-08-18T08:12:57.000Z</time>
      </trkpt>
      <trkpt lat="47.6689" lon="6.19986">
        <ele>315.79998779297</ele>
        <time>2012-08-18T08:12:58.000Z</time>
      </trkpt>
      <trkpt lat="47.66878" lon="6.19973">
        <ele>315.79998779297</ele>
        <time>2012-08-18T08:13:03.000Z</time>
      </trkpt>
      <trkpt lat="47.66863" lon="6.19959">
        <ele>315.79998779297</ele>
        <time>2012-08-18T08:13:09.000Z</time>
      </trkpt>
      <trkpt lat="47.66848" lon="6.19947">
        <ele>315.79998779297</ele>
        <time>2012-08-18T08:13:14.000Z</time>
      </trkpt>
      <trkpt lat="47.66837" lon="6.19938">
        <ele>316.20001220703</ele>
        <time>2012-08-18T08:13:18.000Z</time>
      </trkpt>
      <trkpt lat="47.66834" lon="6.19936">
        <ele>316.79998779297</ele>
        <time>2012-08-18T08:13:19.000Z</time>
      </trkpt>
      <trkpt lat="47.66831" lon="6.19933">
        <ele>317.20001220703</ele>
        <time>2012-08-18T08:13:20.000Z</time>
      </trkpt>
      <trkpt lat="47.66829" lon="6.19931">
        <ele>317.60000610352</ele>
        <time>2012-08-18T08:13:21.000Z</time>
      </trkpt>
      <trkpt lat="47.66826" lon="6.19929">
        <ele>318</ele>
        <time>2012-08-18T08:13:22.000Z</time>
      </trkpt>
      <trkpt lat="47.66805" lon="6.19917">
        <ele>318</ele>
        <time>2012-08-18T08:13:29.000Z</time>
      </trkpt>
      <trkpt lat="47.66783" lon="6.19901">
        <ele>318</ele>
        <time>2012-08-18T08:13:36.000Z</time>
      </trkpt>
      <trkpt lat="47.66758" lon="6.19874">
        <ele>318</ele>
        <time>2012-08-18T08:13:45.000Z</time>
      </trkpt>
      <trkpt lat="47.6674" lon="6.19858">
        <ele>318</ele>
        <time>2012-08-18T08:13:52.000Z</time>
      </trkpt>
      <trkpt lat="47.66733" lon="6.1985">
        <ele>318.39999389648</ele>
        <time>2012-08-18T08:13:55.000Z</time>
      </trkpt>
      <trkpt lat="47.66731" lon="6.19847">
        <ele>318.79998779297</ele>
        <time>2012-08-18T08:13:56.000Z</time>
      </trkpt>
      <trkpt lat="47.66729" lon="6.19844">
        <ele>319.20001220703</ele>
        <time>2012-08-18T08:13:57.000Z</time>
      </trkpt>
      <trkpt lat="47.66727" lon="6.19841">
        <ele>319.60000610352</ele>
        <time>2012-08-18T08:13:58.000Z</time>
      </trkpt>
      <trkpt lat="47.66725" lon="6.19838">
        <ele>320</ele>
        <time>2012-08-18T08:13:59.000Z</time>
      </trkpt>
      <trkpt lat="47.66723" lon="6.19835">
        <ele>320</ele>
        <time>2012-08-18T08:14:00.000Z</time>
      </trkpt>
      <trkpt lat="47.66711" lon="6.19817">
        <ele>320</ele>
        <time>2012-08-18T08:14:07.000Z</time>
      </trkpt>
      <trkpt lat="47.66698" lon="6.198">
        <ele>320</ele>
        <time>2012-08-18T08:14:14.000Z</time>
      </trkpt>
      <trkpt lat="47.66693" lon="6.19795">
        <ele>320.39999389648</ele>
        <time>2012-08-18T08:14:17.000Z</time>
      </trkpt>
      <trkpt lat="47.66691" lon="6.19793">
        <ele>320.79998779297</ele>
        <time>2012-08-18T08:14:18.000Z</time>
      </trkpt>
      <trkpt lat="47.6669" lon="6.1979">
        <ele>321.20001220703</ele>
        <time>2012-08-18T08:14:19.000Z</time>
      </trkpt>
      <trkpt lat="47.66689" lon="6.19788">
        <ele>321.60000610352</ele>
        <time>2012-08-18T08:14:20.000Z</time>
      </trkpt>
      <trkpt lat="47.66687" lon="6.19785">
        <ele>322</ele>
        <time>2012-08-18T08:14:21.000Z</time>
      </trkpt>
      <trkpt lat="47.66676" lon="6.19769">
        <ele>322</ele>
        <time>2012-08-18T08:14:28.000Z</time>
      </trkpt>
      <trkpt lat="47.66662" lon="6.19751">
        <ele>322</ele>
        <time>2012-08-18T08:14:36.000Z</time>
      </trkpt>
      <trkpt lat="47.66658" lon="6.19744">
        <ele>322.39999389648</ele>
        <time>2012-08-18T08:14:39.000Z</time>
      </trkpt>
      <trkpt lat="47.66657" lon="6.19743">
        <ele>322.79998779297</ele>
        <time>2012-08-18T08:14:40.000Z</time>
      </trkpt>
      <trkpt lat="47.66656" lon="6.19741">
        <ele>323.20001220703</ele>
        <time>2012-08-18T08:14:41.000Z</time>
      </trkpt>
      <trkpt lat="47.66655" lon="6.19739">
        <ele>323.60000610352</ele>
        <time>2012-08-18T08:14:42.000Z</time>
      </trkpt>
      <trkpt lat="47.66654" lon="6.19736">
        <ele>324</ele>
        <time>2012-08-18T08:14:43.000Z</time>
      </trkpt>
      <trkpt lat="47.66644" lon="6.19723">
        <ele>324</ele>
        <time>2012-08-18T08:14:50.000Z</time>
      </trkpt>
      <trkpt lat="47.66636" lon="6.19706">
        <ele>324.39999389648</ele>
        <time>2012-08-18T08:14:57.000Z</time>
      </trkpt>
      <trkpt lat="47.66635" lon="6.19704">
        <ele>324.79998779297</ele>
        <time>2012-08-18T08:14:58.000Z</time>
      </trkpt>
      <trkpt lat="47.66633" lon="6.19702">
        <ele>325.20001220703</ele>
        <time>2012-08-18T08:14:59.000Z</time>
      </trkpt>
      <trkpt lat="47.66632" lon="6.197">
        <ele>325.60000610352</ele>
        <time>2012-08-18T08:15:00.000Z</time>
      </trkpt>
      <trkpt lat="47.66631" lon="6.19698">
        <ele>326</ele>
        <time>2012-08-18T08:15:01.000Z</time>
      </trkpt>
      <trkpt lat="47.66624" lon="6.19686">
        <ele>326</ele>
        <time>2012-08-18T08:15:06.000Z</time>
      </trkpt>
      <trkpt lat="47.66614" lon="6.19673">
        <ele>326</ele>
        <time>2012-08-18T08:15:14.000Z</time>
      </trkpt>
      <trkpt lat="47.66613" lon="6.19671">
        <ele>326.39999389648</ele>
        <time>2012-08-18T08:15:15.000Z</time>
      </trkpt>
      <trkpt lat="47.66611" lon="6.19669">
        <ele>326.79998779297</ele>
        <time>2012-08-18T08:15:16.000Z</time>
      </trkpt>
      <trkpt lat="47.6661" lon="6.19668">
        <ele>327.20001220703</ele>
        <time>2012-08-18T08:15:17.000Z</time>
      </trkpt>
      <trkpt lat="47.66609" lon="6.19667">
        <ele>327.79998779297</ele>
        <time>2012-08-18T08:15:18.000Z</time>
      </trkpt>
      <trkpt lat="47.66607" lon="6.19665">
        <ele>328.20001220703</ele>
        <time>2012-08-18T08:15:19.000Z</time>
      </trkpt>
      <trkpt lat="47.66604" lon="6.19661">
        <ele>328.20001220703</ele>
        <time>2012-08-18T08:15:22.000Z</time>
      </trkpt>
      <trkpt lat="47.66597" lon="6.19656">
        <ele>328.60000610352</ele>
        <time>2012-08-18T08:15:27.000Z</time>
      </trkpt>
      <trkpt lat="47.66596" lon="6.19655">
        <ele>329</ele>
        <time>2012-08-18T08:15:28.000Z</time>
      </trkpt>
      <trkpt lat="47.66595" lon="6.19654">
        <ele>329.39999389648</ele>
        <time>2012-08-18T08:15:29.000Z</time>
      </trkpt>
      <trkpt lat="47.66594" lon="6.19653">
        <ele>329.79998779297</ele>
        <time>2012-08-18T08:15:30.000Z</time>
      </trkpt>
      <trkpt lat="47.66592" lon="6.19652">
        <ele>330.20001220703</ele>
        <time>2012-08-18T08:15:31.000Z</time>
      </trkpt>
      <trkpt lat="47.66583" lon="6.19647">
        <ele>330.20001220703</ele>
        <time>2012-08-18T08:15:38.000Z</time>
      </trkpt>
      <trkpt lat="47.66579" lon="6.19645">
        <ele>330.79998779297</ele>
        <time>2012-08-18T08:15:41.000Z</time>
      </trkpt>
      <trkpt lat="47.66578" lon="6.19644">
        <ele>331.39999389648</ele>
        <time>2012-08-18T08:15:42.000Z</time>
      </trkpt>
      <trkpt lat="47.66577" lon="6.19643">
        <ele>332</ele>
        <time>2012-08-18T08:15:43.000Z</time>
      </trkpt>
      <trkpt lat="47.66576" lon="6.19642">
        <ele>333.20001220703</ele>
        <time>2012-08-18T08:15:44.000Z</time>
      </trkpt>
      <trkpt lat="47.66574" lon="6.19642">
        <ele>333.20001220703</ele>
        <time>2012-08-18T08:15:45.000Z</time>
      </trkpt>
      <trkpt lat="47.66572" lon="6.1964">
        <ele>333.20001220703</ele>
        <time>2012-08-18T08:15:47.000Z</time>
      </trkpt>
      <trkpt lat="47.66569" lon="6.19637">
        <ele>333.20001220703</ele>
        <time>2012-08-18T08:15:50.000Z</time>
      </trkpt>
      <trkpt lat="47.66565" lon="6.19635">
        <ele>333.20001220703</ele>
        <time>2012-08-18T08:15:53.000Z</time>
      </trkpt>
      <trkpt lat="47.66556" lon="6.19627">
        <ele>333.20001220703</ele>
        <time>2012-08-18T08:16:00.000Z</time>
      </trkpt>
      <trkpt lat="47.66555" lon="6.19626">
        <ele>333.20001220703</ele>
        <time>2012-08-18T08:16:01.000Z</time>
      </trkpt>
      <trkpt lat="47.66546" lon="6.19618">
        <ele>333.60000610352</ele>
        <time>2012-08-18T08:16:07.000Z</time>
      </trkpt>
      <trkpt lat="47.66545" lon="6.19617">
        <ele>334.39999389648</ele>
        <time>2012-08-18T08:16:08.000Z</time>
      </trkpt>
      <trkpt lat="47.66544" lon="6.19616">
        <ele>334.79998779297</ele>
        <time>2012-08-18T08:16:09.000Z</time>
      </trkpt>
      <trkpt lat="47.66543" lon="6.19615">
        <ele>335.20001220703</ele>
        <time>2012-08-18T08:16:10.000Z</time>
      </trkpt>
      <trkpt lat="47.66539" lon="6.19609">
        <ele>335.20001220703</ele>
        <time>2012-08-18T08:16:15.000Z</time>
      </trkpt>
      <trkpt lat="47.66531" lon="6.19606">
        <ele>335.20001220703</ele>
        <time>2012-08-18T08:16:21.000Z</time>
      </trkpt>
      <trkpt lat="47.66523" lon="6.196">
        <ele>335.60000610352</ele>
        <time>2012-08-18T08:16:26.000Z</time>
      </trkpt>
      <trkpt lat="47.66521" lon="6.19599">
        <ele>336</ele>
        <time>2012-08-18T08:16:27.000Z</time>
      </trkpt>
      <trkpt lat="47.6652" lon="6.19597">
        <ele>336.39999389648</ele>
        <time>2012-08-18T08:16:28.000Z</time>
      </trkpt>
      <trkpt lat="47.66519" lon="6.19595">
        <ele>336.79998779297</ele>
        <time>2012-08-18T08:16:29.000Z</time>
      </trkpt>
      <trkpt lat="47.66517" lon="6.19593">
        <ele>337.20001220703</ele>
        <time>2012-08-18T08:16:30.000Z</time>
      </trkpt>
      <trkpt lat="47.66514" lon="6.19587">
        <ele>337.20001220703</ele>
        <time>2012-08-18T08:16:33.000Z</time>
      </trkpt>
      <trkpt lat="47.66513" lon="6.19585">
        <ele>337.20001220703</ele>
        <time>2012-08-18T08:16:34.000Z</time>
      </trkpt>
      <trkpt lat="47.66508" lon="6.1958">
        <ele>337.20001220703</ele>
        <time>2012-08-18T08:16:38.000Z</time>
      </trkpt>
      <trkpt lat="47.66505" lon="6.19577">
        <ele>337.20001220703</ele>
        <time>2012-08-18T08:16:40.000Z</time>
      </trkpt>
      <trkpt lat="47.66496" lon="6.19569">
        <ele>337.20001220703</ele>
        <time>2012-08-18T08:16:47.000Z</time>
      </trkpt>
      <trkpt lat="47.66488" lon="6.19562">
        <ele>337.60000610352</ele>
        <time>2012-08-18T08:16:52.000Z</time>
      </trkpt>
      <trkpt lat="47.66486" lon="6.19561">
        <ele>338.20001220703</ele>
        <time>2012-08-18T08:16:53.000Z</time>
      </trkpt>
      <trkpt lat="47.66485" lon="6.19559">
        <ele>338.60000610352</ele>
        <time>2012-08-18T08:16:54.000Z</time>
      </trkpt>
      <trkpt lat="47.66483" lon="6.19558">
        <ele>339</ele>
        <time>2012-08-18T08:16:55.000Z</time>
      </trkpt>
      <trkpt lat="47.66482" lon="6.19557">
        <ele>339.39999389648</ele>
        <time>2012-08-18T08:16:56.000Z</time>
      </trkpt>
      <trkpt lat="47.66474" lon="6.19552">
        <ele>339.39999389648</ele>
        <time>2012-08-18T08:17:01.000Z</time>
      </trkpt>
      <trkpt lat="47.66461" lon="6.19545">
        <ele>339.39999389648</ele>
        <time>2012-08-18T08:17:09.000Z</time>
      </trkpt>
      <trkpt lat="47.66445" lon="6.19542">
        <ele>339.39999389648</ele>
        <time>2012-08-18T08:17:18.000Z</time>
      </trkpt>
      <trkpt lat="47.66436" lon="6.19539">
        <ele>339.39999389648</ele>
        <time>2012-08-18T08:17:24.000Z</time>
      </trkpt>
      <trkpt lat="47.66428" lon="6.19538">
        <ele>339.79998779297</ele>
        <time>2012-08-18T08:17:29.000Z</time>
      </trkpt>
      <trkpt lat="47.66427" lon="6.19538">
        <ele>340.20001220703</ele>
        <time>2012-08-18T08:17:30.000Z</time>
      </trkpt>
      <trkpt lat="47.66425" lon="6.19538">
        <ele>340.60000610352</ele>
        <time>2012-08-18T08:17:31.000Z</time>
      </trkpt>
      <trkpt lat="47.66423" lon="6.19537">
        <ele>341</ele>
        <time>2012-08-18T08:17:32.000Z</time>
      </trkpt>
      <trkpt lat="47.66422" lon="6.19537">
        <ele>341.39999389648</ele>
        <time>2012-08-18T08:17:33.000Z</time>
      </trkpt>
      <trkpt lat="47.6641" lon="6.19537">
        <ele>341.39999389648</ele>
        <time>2012-08-18T08:17:40.000Z</time>
      </trkpt>
      <trkpt lat="47.66398" lon="6.19534">
        <ele>341.39999389648</ele>
        <time>2012-08-18T08:17:47.000Z</time>
      </trkpt>
      <trkpt lat="47.66384" lon="6.19531">
        <ele>341.79998779297</ele>
        <time>2012-08-18T08:17:53.000Z</time>
      </trkpt>
      <trkpt lat="47.66382" lon="6.1953">
        <ele>342.20001220703</ele>
        <time>2012-08-18T08:17:54.000Z</time>
      </trkpt>
      <trkpt lat="47.6638" lon="6.1953">
        <ele>342.60000610352</ele>
        <time>2012-08-18T08:17:55.000Z</time>
      </trkpt>
      <trkpt lat="47.66377" lon="6.19529">
        <ele>343</ele>
        <time>2012-08-18T08:17:56.000Z</time>
      </trkpt>
      <trkpt lat="47.66375" lon="6.19528">
        <ele>343.39999389648</ele>
        <time>2012-08-18T08:17:57.000Z</time>
      </trkpt>
      <trkpt lat="47.66366" lon="6.19528">
        <ele>343.39999389648</ele>
        <time>2012-08-18T08:18:01.000Z</time>
      </trkpt>
      <trkpt lat="47.66346" lon="6.19523">
        <ele>343.39999389648</ele>
        <time>2012-08-18T08:18:09.000Z</time>
      </trkpt>
      <trkpt lat="47.66334" lon="6.19522">
        <ele>343.39999389648</ele>
        <time>2012-08-18T08:18:14.000Z</time>
      </trkpt>
      <trkpt lat="47.66311" lon="6.19516">
        <ele>343.39999389648</ele>
        <time>2012-08-18T08:18:23.000Z</time>
      </trkpt>
      <trkpt lat="47.66296" lon="6.19512">
        <ele>343.39999389648</ele>
        <time>2012-08-18T08:18:29.000Z</time>
      </trkpt>
      <trkpt lat="47.66272" lon="6.19508">
        <ele>343.39999389648</ele>
        <time>2012-08-18T08:18:38.000Z</time>
      </trkpt>
      <trkpt lat="47.66248" lon="6.19502">
        <ele>343.39999389648</ele>
        <time>2012-08-18T08:18:46.000Z</time>
      </trkpt>
      <trkpt lat="47.66231" lon="6.19496">
        <ele>343.39999389648</ele>
        <time>2012-08-18T08:18:51.000Z</time>
      </trkpt>
      <trkpt lat="47.66227" lon="6.19495">
        <ele>343.39999389648</ele>
        <time>2012-08-18T08:18:52.000Z</time>
      </trkpt>
      <trkpt lat="47.66211" lon="6.19493">
        <ele>343.39999389648</ele>
        <time>2012-08-18T08:18:58.000Z</time>
      </trkpt>
      <trkpt lat="47.66195" lon="6.19489">
        <ele>343.39999389648</ele>
        <time>2012-08-18T08:19:05.000Z</time>
      </trkpt>
      <trkpt lat="47.66183" lon="6.19488">
        <ele>343.39999389648</ele>
        <time>2012-08-18T08:19:11.000Z</time>
      </trkpt>
      <trkpt lat="47.66167" lon="6.1949">
        <ele>343.39999389648</ele>
        <time>2012-08-18T08:19:19.000Z</time>
      </trkpt>
      <trkpt lat="47.66157" lon="6.19491">
        <ele>343</ele>
        <time>2012-08-18T08:19:24.000Z</time>
      </trkpt>
      <trkpt lat="47.66154" lon="6.19492">
        <ele>342.60000610352</ele>
        <time>2012-08-18T08:19:25.000Z</time>
      </trkpt>
      <trkpt lat="47.66152" lon="6.19493">
        <ele>341.79998779297</ele>
        <time>2012-08-18T08:19:26.000Z</time>
      </trkpt>
      <trkpt lat="47.66149" lon="6.19494">
        <ele>341.39999389648</ele>
        <time>2012-08-18T08:19:27.000Z</time>
      </trkpt>
      <trkpt lat="47.66137" lon="6.19504">
        <ele>341.39999389648</ele>
        <time>2012-08-18T08:19:33.000Z</time>
      </trkpt>
      <trkpt lat="47.66126" lon="6.19513">
        <ele>341.39999389648</ele>
        <time>2012-08-18T08:19:39.000Z</time>
      </trkpt>
      <trkpt lat="47.66121" lon="6.19535">
        <ele>341.39999389648</ele>
        <time>2012-08-18T08:19:46.000Z</time>
      </trkpt>
      <trkpt lat="47.66115" lon="6.19555">
        <ele>341</ele>
        <time>2012-08-18T08:19:52.000Z</time>
      </trkpt>
      <trkpt lat="47.66114" lon="6.19558">
        <ele>340.60000610352</ele>
        <time>2012-08-18T08:19:53.000Z</time>
      </trkpt>
      <trkpt lat="47.66113" lon="6.19562">
        <ele>340.20001220703</ele>
        <time>2012-08-18T08:19:54.000Z</time>
      </trkpt>
      <trkpt lat="47.66111" lon="6.19565">
        <ele>339.79998779297</ele>
        <time>2012-08-18T08:19:55.000Z</time>
      </trkpt>
      <trkpt lat="47.6611" lon="6.19569">
        <ele>339.39999389648</ele>
        <time>2012-08-18T08:19:56.000Z</time>
      </trkpt>
      <trkpt lat="47.66099" lon="6.19587">
        <ele>339.39999389648</ele>
        <time>2012-08-18T08:20:01.000Z</time>
      </trkpt>
      <trkpt lat="47.66088" lon="6.19595">
        <ele>338.79998779297</ele>
        <time>2012-08-18T08:20:05.000Z</time>
      </trkpt>
      <trkpt lat="47.66085" lon="6.19597">
        <ele>338.20001220703</ele>
        <time>2012-08-18T08:20:06.000Z</time>
      </trkpt>
      <trkpt lat="47.66081" lon="6.196">
        <ele>337.60000610352</ele>
        <time>2012-08-18T08:20:07.000Z</time>
      </trkpt>
      <trkpt lat="47.66076" lon="6.19603">
        <ele>337</ele>
        <time>2012-08-18T08:20:08.000Z</time>
      </trkpt>
      <trkpt lat="47.66071" lon="6.19605">
        <ele>336.39999389648</ele>
        <time>2012-08-18T08:20:09.000Z</time>
      </trkpt>
      <trkpt lat="47.66066" lon="6.19608">
        <ele>336.39999389648</ele>
        <time>2012-08-18T08:20:10.000Z</time>
      </trkpt>
      <trkpt lat="47.66047" lon="6.1962">
        <ele>335.79998779297</ele>
        <time>2012-08-18T08:20:14.000Z</time>
      </trkpt>
      <trkpt lat="47.66042" lon="6.19623">
        <ele>335.39999389648</ele>
        <time>2012-08-18T08:20:15.000Z</time>
      </trkpt>
      <trkpt lat="47.66039" lon="6.19625">
        <ele>334.39999389648</ele>
        <time>2012-08-18T08:20:16.000Z</time>
      </trkpt>
      <trkpt lat="47.66036" lon="6.19627">
        <ele>333.79998779297</ele>
        <time>2012-08-18T08:20:17.000Z</time>
      </trkpt>
      <trkpt lat="47.66029" lon="6.19631">
        <ele>333.39999389648</ele>
        <time>2012-08-18T08:20:19.000Z</time>
      </trkpt>
      <trkpt lat="47.66026" lon="6.19633">
        <ele>333</ele>
        <time>2012-08-18T08:20:20.000Z</time>
      </trkpt>
      <trkpt lat="47.66023" lon="6.19634">
        <ele>332.60000610352</ele>
        <time>2012-08-18T08:20:21.000Z</time>
      </trkpt>
      <trkpt lat="47.6602" lon="6.19634">
        <ele>332.20001220703</ele>
        <time>2012-08-18T08:20:22.000Z</time>
      </trkpt>
      <trkpt lat="47.66018" lon="6.19634">
        <ele>331.79998779297</ele>
        <time>2012-08-18T08:20:23.000Z</time>
      </trkpt>
      <trkpt lat="47.66016" lon="6.19634">
        <ele>331.79998779297</ele>
        <time>2012-08-18T08:20:24.000Z</time>
      </trkpt>
      <trkpt lat="47.66013" lon="6.19635">
        <ele>331.39999389648</ele>
        <time>2012-08-18T08:20:25.000Z</time>
      </trkpt>
      <trkpt lat="47.6601" lon="6.19636">
        <ele>330.79998779297</ele>
        <time>2012-08-18T08:20:26.000Z</time>
      </trkpt>
      <trkpt lat="47.66007" lon="6.19637">
        <ele>330.39999389648</ele>
        <time>2012-08-18T08:20:27.000Z</time>
      </trkpt>
      <trkpt lat="47.66003" lon="6.19636">
        <ele>330</ele>
        <time>2012-08-18T08:20:28.000Z</time>
      </trkpt>
      <trkpt lat="47.66" lon="6.19635">
        <ele>329.39999389648</ele>
        <time>2012-08-18T08:20:29.000Z</time>
      </trkpt>
      <trkpt lat="47.65997" lon="6.19634">
        <ele>329.39999389648</ele>
        <time>2012-08-18T08:20:30.000Z</time>
      </trkpt>
      <trkpt lat="47.65987" lon="6.19635">
        <ele>329</ele>
        <time>2012-08-18T08:20:33.000Z</time>
      </trkpt>
      <trkpt lat="47.65984" lon="6.19636">
        <ele>328.60000610352</ele>
        <time>2012-08-18T08:20:34.000Z</time>
      </trkpt>
      <trkpt lat="47.65981" lon="6.19637">
        <ele>328.20001220703</ele>
        <time>2012-08-18T08:20:35.000Z</time>
      </trkpt>
      <trkpt lat="47.65978" lon="6.19638">
        <ele>327.79998779297</ele>
        <time>2012-08-18T08:20:36.000Z</time>
      </trkpt>
      <trkpt lat="47.65975" lon="6.19639">
        <ele>327.39999389648</ele>
        <time>2012-08-18T08:20:37.000Z</time>
      </trkpt>
      <trkpt lat="47.65973" lon="6.1964">
        <ele>327</ele>
        <time>2012-08-18T08:20:38.000Z</time>
      </trkpt>
      <trkpt lat="47.6597" lon="6.19642">
        <ele>326.60000610352</ele>
        <time>2012-08-18T08:20:39.000Z</time>
      </trkpt>
      <trkpt lat="47.65968" lon="6.19645">
        <ele>325.60000610352</ele>
        <time>2012-08-18T08:20:40.000Z</time>
      </trkpt>
      <trkpt lat="47.65965" lon="6.19649">
        <ele>325.20001220703</ele>
        <time>2012-08-18T08:20:41.000Z</time>
      </trkpt>
      <trkpt lat="47.65959" lon="6.19666">
        <ele>324.79998779297</ele>
        <time>2012-08-18T08:20:44.000Z</time>
      </trkpt>
      <trkpt lat="47.65957" lon="6.19673">
        <ele>324.39999389648</ele>
        <time>2012-08-18T08:20:45.000Z</time>
      </trkpt>
      <trkpt lat="47.65956" lon="6.19678">
        <ele>324</ele>
        <time>2012-08-18T08:20:46.000Z</time>
      </trkpt>
      <trkpt lat="47.65955" lon="6.19683">
        <ele>323.60000610352</ele>
        <time>2012-08-18T08:20:47.000Z</time>
      </trkpt>
      <trkpt lat="47.65955" lon="6.19687">
        <ele>323.20001220703</ele>
        <time>2012-08-18T08:20:48.000Z</time>
      </trkpt>
      <trkpt lat="47.65954" lon="6.19691">
        <ele>323.20001220703</ele>
        <time>2012-08-18T08:20:49.000Z</time>
      </trkpt>
      <trkpt lat="47.6595" lon="6.19707">
        <ele>323.20001220703</ele>
        <time>2012-08-18T08:20:55.000Z</time>
      </trkpt>
      <trkpt lat="47.65949" lon="6.19709">
        <ele>323.20001220703</ele>
        <time>2012-08-18T08:20:56.000Z</time>
      </trkpt>
      <trkpt lat="47.65945" lon="6.19723">
        <ele>323.20001220703</ele>
        <time>2012-08-18T08:21:00.000Z</time>
      </trkpt>
      <trkpt lat="47.65945" lon="6.19727">
        <ele>323.20001220703</ele>
        <time>2012-08-18T08:21:01.000Z</time>
      </trkpt>
      <trkpt lat="47.65937" lon="6.19756">
        <ele>322.60000610352</ele>
        <time>2012-08-18T08:21:07.000Z</time>
      </trkpt>
      <trkpt lat="47.65936" lon="6.19762">
        <ele>322.20001220703</ele>
        <time>2012-08-18T08:21:08.000Z</time>
      </trkpt>
      <trkpt lat="47.65934" lon="6.19767">
        <ele>321.79998779297</ele>
        <time>2012-08-18T08:21:09.000Z</time>
      </trkpt>
      <trkpt lat="47.65934" lon="6.19772">
        <ele>321.20001220703</ele>
        <time>2012-08-18T08:21:10.000Z</time>
      </trkpt>
      <trkpt lat="47.65933" lon="6.19777">
        <ele>320.79998779297</ele>
        <time>2012-08-18T08:21:11.000Z</time>
      </trkpt>
      <trkpt lat="47.65933" lon="6.19786">
        <ele>320.79998779297</ele>
        <time>2012-08-18T08:21:13.000Z</time>
      </trkpt>
      <trkpt lat="47.65931" lon="6.19805">
        <ele>320.79998779297</ele>
        <time>2012-08-18T08:21:18.000Z</time>
      </trkpt>
      <trkpt lat="47.6593" lon="6.19821">
        <ele>320.39999389648</ele>
        <time>2012-08-18T08:21:22.000Z</time>
      </trkpt>
      <trkpt lat="47.6593" lon="6.19826">
        <ele>320</ele>
        <time>2012-08-18T08:21:23.000Z</time>
      </trkpt>
      <trkpt lat="47.65931" lon="6.1983">
        <ele>319.60000610352</ele>
        <time>2012-08-18T08:21:24.000Z</time>
      </trkpt>
      <trkpt lat="47.65931" lon="6.19834">
        <ele>319.20001220703</ele>
        <time>2012-08-18T08:21:25.000Z</time>
      </trkpt>
      <trkpt lat="47.65931" lon="6.19839">
        <ele>318.79998779297</ele>
        <time>2012-08-18T08:21:26.000Z</time>
      </trkpt>
      <trkpt lat="47.65934" lon="6.19859">
        <ele>318.79998779297</ele>
        <time>2012-08-18T08:21:31.000Z</time>
      </trkpt>
      <trkpt lat="47.65941" lon="6.19883">
        <ele>318.79998779297</ele>
        <time>2012-08-18T08:21:37.000Z</time>
      </trkpt>
      <trkpt lat="47.65941" lon="6.19887">
        <ele>318.79998779297</ele>
        <time>2012-08-18T08:21:38.000Z</time>
      </trkpt>
      <trkpt lat="47.65942" lon="6.19898">
        <ele>318.79998779297</ele>
        <time>2012-08-18T08:21:41.000Z</time>
      </trkpt>
      <trkpt lat="47.65942" lon="6.19901">
        <ele>318.79998779297</ele>
        <time>2012-08-18T08:21:42.000Z</time>
      </trkpt>
      <trkpt lat="47.65944" lon="6.19921">
        <ele>318.79998779297</ele>
        <time>2012-08-18T08:21:46.000Z</time>
      </trkpt>
      <trkpt lat="47.65945" lon="6.19926">
        <ele>318.39999389648</ele>
        <time>2012-08-18T08:21:47.000Z</time>
      </trkpt>
      <trkpt lat="47.65946" lon="6.19931">
        <ele>317.79998779297</ele>
        <time>2012-08-18T08:21:48.000Z</time>
      </trkpt>
      <trkpt lat="47.65947" lon="6.19935">
        <ele>317.39999389648</ele>
        <time>2012-08-18T08:21:49.000Z</time>
      </trkpt>
      <trkpt lat="47.65947" lon="6.19939">
        <ele>317</ele>
        <time>2012-08-18T08:21:50.000Z</time>
      </trkpt>
      <trkpt lat="47.65948" lon="6.19942">
        <ele>316.60000610352</ele>
        <time>2012-08-18T08:21:51.000Z</time>
      </trkpt>
      <trkpt lat="47.65953" lon="6.19972">
        <ele>316.60000610352</ele>
        <time>2012-08-18T08:21:59.000Z</time>
      </trkpt>
      <trkpt lat="47.6595" lon="6.19991">
        <ele>316.20001220703</ele>
        <time>2012-08-18T08:22:04.000Z</time>
      </trkpt>
      <trkpt lat="47.65948" lon="6.19995">
        <ele>315.79998779297</ele>
        <time>2012-08-18T08:22:05.000Z</time>
      </trkpt>
      <trkpt lat="47.65947" lon="6.19998">
        <ele>315.39999389648</ele>
        <time>2012-08-18T08:22:06.000Z</time>
      </trkpt>
      <trkpt lat="47.65946" lon="6.20001">
        <ele>315</ele>
        <time>2012-08-18T08:22:07.000Z</time>
      </trkpt>
      <trkpt lat="47.65944" lon="6.20004">
        <ele>314.60000610352</ele>
        <time>2012-08-18T08:22:08.000Z</time>
      </trkpt>
      <trkpt lat="47.65941" lon="6.20014">
        <ele>314.20001220703</ele>
        <time>2012-08-18T08:22:11.000Z</time>
      </trkpt>
      <trkpt lat="47.65941" lon="6.20019">
        <ele>313.79998779297</ele>
        <time>2012-08-18T08:22:12.000Z</time>
      </trkpt>
      <trkpt lat="47.6594" lon="6.20023">
        <ele>313.39999389648</ele>
        <time>2012-08-18T08:22:13.000Z</time>
      </trkpt>
      <trkpt lat="47.6594" lon="6.20026">
        <ele>313</ele>
        <time>2012-08-18T08:22:14.000Z</time>
      </trkpt>
      <trkpt lat="47.6594" lon="6.20029">
        <ele>312.39999389648</ele>
        <time>2012-08-18T08:22:15.000Z</time>
      </trkpt>
      <trkpt lat="47.6594" lon="6.20044">
        <ele>312</ele>
        <time>2012-08-18T08:22:19.000Z</time>
      </trkpt>
      <trkpt lat="47.65941" lon="6.20048">
        <ele>311.60000610352</ele>
        <time>2012-08-18T08:22:20.000Z</time>
      </trkpt>
      <trkpt lat="47.65941" lon="6.20052">
        <ele>311.20001220703</ele>
        <time>2012-08-18T08:22:21.000Z</time>
      </trkpt>
      <trkpt lat="47.65941" lon="6.20056">
        <ele>310.79998779297</ele>
        <time>2012-08-18T08:22:22.000Z</time>
      </trkpt>
      <trkpt lat="47.65942" lon="6.2006">
        <ele>310.39999389648</ele>
        <time>2012-08-18T08:22:23.000Z</time>
      </trkpt>
      <trkpt lat="47.65944" lon="6.20069">
        <ele>310.39999389648</ele>
        <time>2012-08-18T08:22:26.000Z</time>
      </trkpt>
      <trkpt lat="47.65945" lon="6.20084">
        <ele>310</ele>
        <time>2012-08-18T08:22:31.000Z</time>
      </trkpt>
      <trkpt lat="47.65946" lon="6.20087">
        <ele>309.60000610352</ele>
        <time>2012-08-18T08:22:32.000Z</time>
      </trkpt>
      <trkpt lat="47.65946" lon="6.2009">
        <ele>309</ele>
        <time>2012-08-18T08:22:33.000Z</time>
      </trkpt>
      <trkpt lat="47.65946" lon="6.20092">
        <ele>308.60000610352</ele>
        <time>2012-08-18T08:22:34.000Z</time>
      </trkpt>
      <trkpt lat="47.65946" lon="6.20095">
        <ele>308.20001220703</ele>
        <time>2012-08-18T08:22:35.000Z</time>
      </trkpt>
      <trkpt lat="47.65946" lon="6.20106">
        <ele>308.20001220703</ele>
        <time>2012-08-18T08:22:39.000Z</time>
      </trkpt>
      <trkpt lat="47.65945" lon="6.20114">
        <ele>307.79998779297</ele>
        <time>2012-08-18T08:22:42.000Z</time>
      </trkpt>
      <trkpt lat="47.65945" lon="6.20118">
        <ele>307.20001220703</ele>
        <time>2012-08-18T08:22:43.000Z</time>
      </trkpt>
      <trkpt lat="47.65945" lon="6.20121">
        <ele>306.39999389648</ele>
        <time>2012-08-18T08:22:44.000Z</time>
      </trkpt>
      <trkpt lat="47.65944" lon="6.20125">
        <ele>306</ele>
        <time>2012-08-18T08:22:45.000Z</time>
      </trkpt>
      <trkpt lat="47.65944" lon="6.20129">
        <ele>306</ele>
        <time>2012-08-18T08:22:46.000Z</time>
      </trkpt>
      <trkpt lat="47.65942" lon="6.20142">
        <ele>305.60000610352</ele>
        <time>2012-08-18T08:22:50.000Z</time>
      </trkpt>
      <trkpt lat="47.65942" lon="6.20145">
        <ele>305.20001220703</ele>
        <time>2012-08-18T08:22:51.000Z</time>
      </trkpt>
      <trkpt lat="47.65942" lon="6.20148">
        <ele>304.79998779297</ele>
        <time>2012-08-18T08:22:52.000Z</time>
      </trkpt>
      <trkpt lat="47.65942" lon="6.20151">
        <ele>304.39999389648</ele>
        <time>2012-08-18T08:22:53.000Z</time>
      </trkpt>
      <trkpt lat="47.65942" lon="6.20154">
        <ele>304</ele>
        <time>2012-08-18T08:22:54.000Z</time>
      </trkpt>
      <trkpt lat="47.65941" lon="6.20167">
        <ele>303.60000610352</ele>
        <time>2012-08-18T08:22:58.000Z</time>
      </trkpt>
      <trkpt lat="47.65942" lon="6.20169">
        <ele>303.20001220703</ele>
        <time>2012-08-18T08:22:59.000Z</time>
      </trkpt>
      <trkpt lat="47.65942" lon="6.20172">
        <ele>302.79998779297</ele>
        <time>2012-08-18T08:23:00.000Z</time>
      </trkpt>
      <trkpt lat="47.65942" lon="6.20175">
        <ele>302.39999389648</ele>
        <time>2012-08-18T08:23:01.000Z</time>
      </trkpt>
      <trkpt lat="47.65942" lon="6.20178">
        <ele>301.79998779297</ele>
        <time>2012-08-18T08:23:02.000Z</time>
      </trkpt>
      <trkpt lat="47.65942" lon="6.20184">
        <ele>301.79998779297</ele>
        <time>2012-08-18T08:23:04.000Z</time>
      </trkpt>
      <trkpt lat="47.65944" lon="6.202">
        <ele>301.39999389648</ele>
        <time>2012-08-18T08:23:08.000Z</time>
      </trkpt>
      <trkpt lat="47.65944" lon="6.20205">
        <ele>300.60000610352</ele>
        <time>2012-08-18T08:23:09.000Z</time>
      </trkpt>
      <trkpt lat="47.65945" lon="6.2021">
        <ele>300.20001220703</ele>
        <time>2012-08-18T08:23:10.000Z</time>
      </trkpt>
      <trkpt lat="47.65946" lon="6.20214">
        <ele>299.79998779297</ele>
        <time>2012-08-18T08:23:11.000Z</time>
      </trkpt>
      <trkpt lat="47.65948" lon="6.20219">
        <ele>299.79998779297</ele>
        <time>2012-08-18T08:23:13.000Z</time>
      </trkpt>
      <trkpt lat="47.65953" lon="6.20234">
        <ele>299.20001220703</ele>
        <time>2012-08-18T08:23:18.000Z</time>
      </trkpt>
      <trkpt lat="47.65954" lon="6.20237">
        <ele>298.79998779297</ele>
        <time>2012-08-18T08:23:19.000Z</time>
      </trkpt>
      <trkpt lat="47.65955" lon="6.2024">
        <ele>298.39999389648</ele>
        <time>2012-08-18T08:23:20.000Z</time>
      </trkpt>
      <trkpt lat="47.65955" lon="6.20244">
        <ele>298</ele>
        <time>2012-08-18T08:23:21.000Z</time>
      </trkpt>
      <trkpt lat="47.65955" lon="6.20248">
        <ele>297.60000610352</ele>
        <time>2012-08-18T08:23:22.000Z</time>
      </trkpt>
      <trkpt lat="47.65955" lon="6.20252">
        <ele>297.60000610352</ele>
        <time>2012-08-18T08:23:23.000Z</time>
      </trkpt>
      <trkpt lat="47.65954" lon="6.20262">
        <ele>297.20001220703</ele>
        <time>2012-08-18T08:23:26.000Z</time>
      </trkpt>
      <trkpt lat="47.65955" lon="6.20265">
        <ele>296.79998779297</ele>
        <time>2012-08-18T08:23:27.000Z</time>
      </trkpt>
      <trkpt lat="47.65955" lon="6.20269">
        <ele>296.39999389648</ele>
        <time>2012-08-18T08:23:28.000Z</time>
      </trkpt>
      <trkpt lat="47.65955" lon="6.20272">
        <ele>296</ele>
        <time>2012-08-18T08:23:29.000Z</time>
      </trkpt>
      <trkpt lat="47.65955" lon="6.20274">
        <ele>295.60000610352</ele>
        <time>2012-08-18T08:23:30.000Z</time>
      </trkpt>
      <trkpt lat="47.65955" lon="6.20277">
        <ele>295.60000610352</ele>
        <time>2012-08-18T08:23:31.000Z</time>
      </trkpt>
      <trkpt lat="47.65957" lon="6.20287">
        <ele>295.60000610352</ele>
        <time>2012-08-18T08:23:34.000Z</time>
      </trkpt>
      <trkpt lat="47.65961" lon="6.20309">
        <ele>295.20001220703</ele>
        <time>2012-08-18T08:23:40.000Z</time>
      </trkpt>
      <trkpt lat="47.65962" lon="6.20312">
        <ele>294.79998779297</ele>
        <time>2012-08-18T08:23:41.000Z</time>
      </trkpt>
      <trkpt lat="47.65963" lon="6.20316">
        <ele>294.39999389648</ele>
        <time>2012-08-18T08:23:42.000Z</time>
      </trkpt>
      <trkpt lat="47.65963" lon="6.2032">
        <ele>293.79998779297</ele>
        <time>2012-08-18T08:23:43.000Z</time>
      </trkpt>
      <trkpt lat="47.65964" lon="6.20322">
        <ele>293.39999389648</ele>
        <time>2012-08-18T08:23:44.000Z</time>
      </trkpt>
      <trkpt lat="47.65966" lon="6.20327">
        <ele>293.39999389648</ele>
        <time>2012-08-18T08:23:46.000Z</time>
      </trkpt>
      <trkpt lat="47.6597" lon="6.20348">
        <ele>293.39999389648</ele>
        <time>2012-08-18T08:23:53.000Z</time>
      </trkpt>
      <trkpt lat="47.65972" lon="6.20354">
        <ele>293</ele>
        <time>2012-08-18T08:23:55.000Z</time>
      </trkpt>
      <trkpt lat="47.65974" lon="6.20356">
        <ele>292.60000610352</ele>
        <time>2012-08-18T08:23:56.000Z</time>
      </trkpt>
      <trkpt lat="47.65974" lon="6.20359">
        <ele>292.20001220703</ele>
        <time>2012-08-18T08:23:57.000Z</time>
      </trkpt>
      <trkpt lat="47.65976" lon="6.20361">
        <ele>291.20001220703</ele>
        <time>2012-08-18T08:23:58.000Z</time>
      </trkpt>
      <trkpt lat="47.65977" lon="6.20365">
        <ele>291.20001220703</ele>
        <time>2012-08-18T08:23:59.000Z</time>
      </trkpt>
      <trkpt lat="47.65979" lon="6.2037">
        <ele>291.20001220703</ele>
        <time>2012-08-18T08:24:01.000Z</time>
      </trkpt>
      <trkpt lat="47.6598" lon="6.20374">
        <ele>290.79998779297</ele>
        <time>2012-08-18T08:24:03.000Z</time>
      </trkpt>
      <trkpt lat="47.65981" lon="6.20377">
        <ele>290.39999389648</ele>
        <time>2012-08-18T08:24:04.000Z</time>
      </trkpt>
      <trkpt lat="47.65982" lon="6.2038">
        <ele>290</ele>
        <time>2012-08-18T08:24:05.000Z</time>
      </trkpt>
      <trkpt lat="47.65983" lon="6.20383">
        <ele>289.60000610352</ele>
        <time>2012-08-18T08:24:06.000Z</time>
      </trkpt>
      <trkpt lat="47.65984" lon="6.20386">
        <ele>289</ele>
        <time>2012-08-18T08:24:07.000Z</time>
      </trkpt>
      <trkpt lat="47.65988" lon="6.20393">
        <ele>289</ele>
        <time>2012-08-18T08:24:10.000Z</time>
      </trkpt>
      <trkpt lat="47.65991" lon="6.20402">
        <ele>288.60000610352</ele>
        <time>2012-08-18T08:24:14.000Z</time>
      </trkpt>
      <trkpt lat="47.65992" lon="6.20404">
        <ele>288.20001220703</ele>
        <time>2012-08-18T08:24:15.000Z</time>
      </trkpt>
      <trkpt lat="47.65993" lon="6.20407">
        <ele>287.79998779297</ele>
        <time>2012-08-18T08:24:16.000Z</time>
      </trkpt>
      <trkpt lat="47.65994" lon="6.2041">
        <ele>287.39999389648</ele>
        <time>2012-08-18T08:24:17.000Z</time>
      </trkpt>
      <trkpt lat="47.65996" lon="6.20413">
        <ele>287</ele>
        <time>2012-08-18T08:24:18.000Z</time>
      </trkpt>
      <trkpt lat="47.66002" lon="6.20425">
        <ele>287</ele>
        <time>2012-08-18T08:24:23.000Z</time>
      </trkpt>
      <trkpt lat="47.66004" lon="6.20429">
        <ele>286.60000610352</ele>
        <time>2012-08-18T08:24:25.000Z</time>
      </trkpt>
      <trkpt lat="47.66005" lon="6.20431">
        <ele>286.20001220703</ele>
        <time>2012-08-18T08:24:26.000Z</time>
      </trkpt>
      <trkpt lat="47.66006" lon="6.20434">
        <ele>285.79998779297</ele>
        <time>2012-08-18T08:24:27.000Z</time>
      </trkpt>
      <trkpt lat="47.66007" lon="6.20436">
        <ele>285.39999389648</ele>
        <time>2012-08-18T08:24:28.000Z</time>
      </trkpt>
      <trkpt lat="47.66008" lon="6.20438">
        <ele>284.79998779297</ele>
        <time>2012-08-18T08:24:29.000Z</time>
      </trkpt>
      <trkpt lat="47.66014" lon="6.20448">
        <ele>284.79998779297</ele>
        <time>2012-08-18T08:24:35.000Z</time>
      </trkpt>
      <trkpt lat="47.66015" lon="6.20453">
        <ele>284.39999389648</ele>
        <time>2012-08-18T08:24:37.000Z</time>
      </trkpt>
      <trkpt lat="47.66017" lon="6.20455">
        <ele>284</ele>
        <time>2012-08-18T08:24:38.000Z</time>
      </trkpt>
      <trkpt lat="47.66018" lon="6.20457">
        <ele>283.60000610352</ele>
        <time>2012-08-18T08:24:39.000Z</time>
      </trkpt>
      <trkpt lat="47.66019" lon="6.20459">
        <ele>283.20001220703</ele>
        <time>2012-08-18T08:24:40.000Z</time>
      </trkpt>
      <trkpt lat="47.6602" lon="6.20461">
        <ele>282.79998779297</ele>
        <time>2012-08-18T08:24:41.000Z</time>
      </trkpt>
      <trkpt lat="47.66027" lon="6.20474">
        <ele>282.79998779297</ele>
        <time>2012-08-18T08:24:46.000Z</time>
      </trkpt>
      <trkpt lat="47.66028" lon="6.20476">
        <ele>282.39999389648</ele>
        <time>2012-08-18T08:24:47.000Z</time>
      </trkpt>
      <trkpt lat="47.66029" lon="6.20479">
        <ele>281.60000610352</ele>
        <time>2012-08-18T08:24:48.000Z</time>
      </trkpt>
      <trkpt lat="47.6603" lon="6.20481">
        <ele>281</ele>
        <time>2012-08-18T08:24:49.000Z</time>
      </trkpt>
      <trkpt lat="47.6603" lon="6.20484">
        <ele>280.60000610352</ele>
        <time>2012-08-18T08:24:50.000Z</time>
      </trkpt>
      <trkpt lat="47.66032" lon="6.20487">
        <ele>280.60000610352</ele>
        <time>2012-08-18T08:24:52.000Z</time>
      </trkpt>
      <trkpt lat="47.66035" lon="6.20492">
        <ele>280.20001220703</ele>
        <time>2012-08-18T08:24:54.000Z</time>
      </trkpt>
      <trkpt lat="47.66037" lon="6.20494">
        <ele>279.79998779297</ele>
        <time>2012-08-18T08:24:55.000Z</time>
      </trkpt>
      <trkpt lat="47.66038" lon="6.20497">
        <ele>279.39999389648</ele>
        <time>2012-08-18T08:24:56.000Z</time>
      </trkpt>
      <trkpt lat="47.66038" lon="6.205">
        <ele>279</ele>
        <time>2012-08-18T08:24:57.000Z</time>
      </trkpt>
      <trkpt lat="47.6604" lon="6.20503">
        <ele>278.39999389648</ele>
        <time>2012-08-18T08:24:58.000Z</time>
      </trkpt>
      <trkpt lat="47.66044" lon="6.20509">
        <ele>278</ele>
        <time>2012-08-18T08:25:01.000Z</time>
      </trkpt>
      <trkpt lat="47.66045" lon="6.20512">
        <ele>277.60000610352</ele>
        <time>2012-08-18T08:25:02.000Z</time>
      </trkpt>
      <trkpt lat="47.66047" lon="6.20515">
        <ele>277.20001220703</ele>
        <time>2012-08-18T08:25:03.000Z</time>
      </trkpt>
      <trkpt lat="47.66048" lon="6.20518">
        <ele>276.79998779297</ele>
        <time>2012-08-18T08:25:04.000Z</time>
      </trkpt>
      <trkpt lat="47.66049" lon="6.20522">
        <ele>276.39999389648</ele>
        <time>2012-08-18T08:25:05.000Z</time>
      </trkpt>
      <trkpt lat="47.66051" lon="6.20528">
        <ele>276.39999389648</ele>
        <time>2012-08-18T08:25:07.000Z</time>
      </trkpt>
      <trkpt lat="47.66052" lon="6.20531">
        <ele>276</ele>
        <time>2012-08-18T08:25:08.000Z</time>
      </trkpt>
      <trkpt lat="47.66054" lon="6.20534">
        <ele>275.60000610352</ele>
        <time>2012-08-18T08:25:09.000Z</time>
      </trkpt>
      <trkpt lat="47.66055" lon="6.20536">
        <ele>275.20001220703</ele>
        <time>2012-08-18T08:25:10.000Z</time>
      </trkpt>
      <trkpt lat="47.66056" lon="6.20538">
        <ele>274.60000610352</ele>
        <time>2012-08-18T08:25:11.000Z</time>
      </trkpt>
      <trkpt lat="47.66057" lon="6.20539">
        <ele>274.20001220703</ele>
        <time>2012-08-18T08:25:12.000Z</time>
      </trkpt>
      <trkpt lat="47.66058" lon="6.2054">
        <ele>274.20001220703</ele>
        <time>2012-08-18T08:25:13.000Z</time>
      </trkpt>
      <trkpt lat="47.6606" lon="6.20544">
        <ele>273.79998779297</ele>
        <time>2012-08-18T08:25:16.000Z</time>
      </trkpt>
      <trkpt lat="47.6606" lon="6.20546">
        <ele>273.39999389648</ele>
        <time>2012-08-18T08:25:17.000Z</time>
      </trkpt>
      <trkpt lat="47.66059" lon="6.20548">
        <ele>273</ele>
        <time>2012-08-18T08:25:18.000Z</time>
      </trkpt>
      <trkpt lat="47.66058" lon="6.20549">
        <ele>272.60000610352</ele>
        <time>2012-08-18T08:25:19.000Z</time>
      </trkpt>
      <trkpt lat="47.66056" lon="6.2055">
        <ele>272.20001220703</ele>
        <time>2012-08-18T08:25:20.000Z</time>
      </trkpt>
      <trkpt lat="47.66052" lon="6.20547">
        <ele>272.20001220703</ele>
        <time>2012-08-18T08:25:22.000Z</time>
      </trkpt>
      <trkpt lat="47.66035" lon="6.20536">
        <ele>272.20001220703</ele>
        <time>2012-08-18T08:25:28.000Z</time>
      </trkpt>
      <trkpt lat="47.6602" lon="6.20526">
        <ele>272.20001220703</ele>
        <time>2012-08-18T08:25:34.000Z</time>
      </trkpt>
      <trkpt lat="47.66003" lon="6.20521">
        <ele>272.20001220703</ele>
        <time>2012-08-18T08:25:41.000Z</time>
      </trkpt>
      <trkpt lat="47.65987" lon="6.20511">
        <ele>272.20001220703</ele>
        <time>2012-08-18T08:25:47.000Z</time>
      </trkpt>
      <trkpt lat="47.65965" lon="6.20497">
        <ele>272.20001220703</ele>
        <time>2012-08-18T08:25:55.000Z</time>
      </trkpt>
      <trkpt lat="47.65946" lon="6.20483">
        <ele>272.20001220703</ele>
        <time>2012-08-18T08:26:03.000Z</time>
      </trkpt>
      <trkpt lat="47.65926" lon="6.2047">
        <ele>272.20001220703</ele>
        <time>2012-08-18T08:26:10.000Z</time>
      </trkpt>
      <trkpt lat="47.65906" lon="6.20452">
        <ele>272.20001220703</ele>
        <time>2012-08-18T08:26:17.000Z</time>
      </trkpt>
      <trkpt lat="47.65892" lon="6.20435">
        <ele>272.20001220703</ele>
        <time>2012-08-18T08:26:23.000Z</time>
      </trkpt>
      <trkpt lat="47.65876" lon="6.20421">
        <ele>272.20001220703</ele>
        <time>2012-08-18T08:26:29.000Z</time>
      </trkpt>
      <trkpt lat="47.65856" lon="6.20405">
        <ele>272.20001220703</ele>
        <time>2012-08-18T08:26:35.000Z</time>
      </trkpt>
      <trkpt lat="47.65841" lon="6.2039">
        <ele>272.20001220703</ele>
        <time>2012-08-18T08:26:39.000Z</time>
      </trkpt>
      <trkpt lat="47.65837" lon="6.20386">
        <ele>272.20001220703</ele>
        <time>2012-08-18T08:26:40.000Z</time>
      </trkpt>
      <trkpt lat="47.6583" lon="6.20378">
        <ele>272.20001220703</ele>
        <time>2012-08-18T08:26:42.000Z</time>
      </trkpt>
      <trkpt lat="47.65809" lon="6.20357">
        <ele>272.20001220703</ele>
        <time>2012-08-18T08:26:49.000Z</time>
      </trkpt>
      <trkpt lat="47.65795" lon="6.2034">
        <ele>272.20001220703</ele>
        <time>2012-08-18T08:26:56.000Z</time>
      </trkpt>
      <trkpt lat="47.65775" lon="6.2032">
        <ele>272.20001220703</ele>
        <time>2012-08-18T08:27:05.000Z</time>
      </trkpt>
      <trkpt lat="47.65756" lon="6.20302">
        <ele>272.60000610352</ele>
        <time>2012-08-18T08:27:13.000Z</time>
      </trkpt>
      <trkpt lat="47.65755" lon="6.20299">
        <ele>273</ele>
        <time>2012-08-18T08:27:14.000Z</time>
      </trkpt>
      <trkpt lat="47.65753" lon="6.20296">
        <ele>273.39999389648</ele>
        <time>2012-08-18T08:27:15.000Z</time>
      </trkpt>
      <trkpt lat="47.65751" lon="6.20294">
        <ele>274.20001220703</ele>
        <time>2012-08-18T08:27:16.000Z</time>
      </trkpt>
      <trkpt lat="47.65746" lon="6.20288">
        <ele>274.20001220703</ele>
        <time>2012-08-18T08:27:19.000Z</time>
      </trkpt>
      <trkpt lat="47.65737" lon="6.20278">
        <ele>274.20001220703</ele>
        <time>2012-08-18T08:27:24.000Z</time>
      </trkpt>
      <trkpt lat="47.65731" lon="6.20272">
        <ele>274.60000610352</ele>
        <time>2012-08-18T08:27:27.000Z</time>
      </trkpt>
      <trkpt lat="47.65729" lon="6.20271">
        <ele>275</ele>
        <time>2012-08-18T08:27:28.000Z</time>
      </trkpt>
      <trkpt lat="47.65726" lon="6.20269">
        <ele>275.39999389648</ele>
        <time>2012-08-18T08:27:29.000Z</time>
      </trkpt>
      <trkpt lat="47.65724" lon="6.20267">
        <ele>276</ele>
        <time>2012-08-18T08:27:30.000Z</time>
      </trkpt>
      <trkpt lat="47.65722" lon="6.20265">
        <ele>276.39999389648</ele>
        <time>2012-08-18T08:27:31.000Z</time>
      </trkpt>
      <trkpt lat="47.65711" lon="6.20251">
        <ele>276.39999389648</ele>
        <time>2012-08-18T08:27:36.000Z</time>
      </trkpt>
      <trkpt lat="47.65695" lon="6.20231">
        <ele>276.39999389648</ele>
        <time>2012-08-18T08:27:43.000Z</time>
      </trkpt>
      <trkpt lat="47.65686" lon="6.20221">
        <ele>276.79998779297</ele>
        <time>2012-08-18T08:27:47.000Z</time>
      </trkpt>
      <trkpt lat="47.65684" lon="6.20219">
        <ele>277.20001220703</ele>
        <time>2012-08-18T08:27:48.000Z</time>
      </trkpt>
      <trkpt lat="47.65682" lon="6.20216">
        <ele>277.60000610352</ele>
        <time>2012-08-18T08:27:49.000Z</time>
      </trkpt>
      <trkpt lat="47.65681" lon="6.20214">
        <ele>278</ele>
        <time>2012-08-18T08:27:50.000Z</time>
      </trkpt>
      <trkpt lat="47.6568" lon="6.20211">
        <ele>278.39999389648</ele>
        <time>2012-08-18T08:27:51.000Z</time>
      </trkpt>
      <trkpt lat="47.6567" lon="6.20199">
        <ele>278.39999389648</ele>
        <time>2012-08-18T08:27:56.000Z</time>
      </trkpt>
      <trkpt lat="47.65659" lon="6.20185">
        <ele>278.39999389648</ele>
        <time>2012-08-18T08:28:03.000Z</time>
      </trkpt>
      <trkpt lat="47.65652" lon="6.20174">
        <ele>278.39999389648</ele>
        <time>2012-08-18T08:28:08.000Z</time>
      </trkpt>
      <trkpt lat="47.65638" lon="6.20159">
        <ele>278.39999389648</ele>
        <time>2012-08-18T08:28:16.000Z</time>
      </trkpt>
      <trkpt lat="47.65628" lon="6.20149">
        <ele>278.39999389648</ele>
        <time>2012-08-18T08:28:21.000Z</time>
      </trkpt>
      <trkpt lat="47.65614" lon="6.20133">
        <ele>278.39999389648</ele>
        <time>2012-08-18T08:28:27.000Z</time>
      </trkpt>
      <trkpt lat="47.65594" lon="6.20112">
        <ele>278.39999389648</ele>
        <time>2012-08-18T08:28:35.000Z</time>
      </trkpt>
      <trkpt lat="47.6558" lon="6.20097">
        <ele>278.39999389648</ele>
        <time>2012-08-18T08:28:41.000Z</time>
      </trkpt>
      <trkpt lat="47.65557" lon="6.20072">
        <ele>278.39999389648</ele>
        <time>2012-08-18T08:28:49.000Z</time>
      </trkpt>
      <trkpt lat="47.65534" lon="6.20046">
        <ele>278.39999389648</ele>
        <time>2012-08-18T08:28:57.000Z</time>
      </trkpt>
      <trkpt lat="47.65517" lon="6.20025">
        <ele>278.39999389648</ele>
        <time>2012-08-18T08:29:04.000Z</time>
      </trkpt>
      <trkpt lat="47.65498" lon="6.19999">
        <ele>278.39999389648</ele>
        <time>2012-08-18T08:29:13.000Z</time>
      </trkpt>
      <trkpt lat="47.65484" lon="6.19978">
        <ele>278</ele>
        <time>2012-08-18T08:29:19.000Z</time>
      </trkpt>
      <trkpt lat="47.65481" lon="6.19974">
        <ele>277.60000610352</ele>
        <time>2012-08-18T08:29:20.000Z</time>
      </trkpt>
      <trkpt lat="47.65478" lon="6.19969">
        <ele>277</ele>
        <time>2012-08-18T08:29:21.000Z</time>
      </trkpt>
      <trkpt lat="47.65476" lon="6.19965">
        <ele>276.60000610352</ele>
        <time>2012-08-18T08:29:22.000Z</time>
      </trkpt>
      <trkpt lat="47.65473" lon="6.1996">
        <ele>276.20001220703</ele>
        <time>2012-08-18T08:29:23.000Z</time>
      </trkpt>
      <trkpt lat="47.65462" lon="6.1994">
        <ele>276.20001220703</ele>
        <time>2012-08-18T08:29:28.000Z</time>
      </trkpt>
      <trkpt lat="47.65453" lon="6.19915">
        <ele>276.20001220703</ele>
        <time>2012-08-18T08:29:35.000Z</time>
      </trkpt>
      <trkpt lat="47.65444" lon="6.19891">
        <ele>276.20001220703</ele>
        <time>2012-08-18T08:29:42.000Z</time>
      </trkpt>
      <trkpt lat="47.65436" lon="6.19871">
        <ele>276.20001220703</ele>
        <time>2012-08-18T08:29:49.000Z</time>
      </trkpt>
      <trkpt lat="47.65429" lon="6.19856">
        <ele>276.20001220703</ele>
        <time>2012-08-18T08:29:53.000Z</time>
      </trkpt>
      <trkpt lat="47.65415" lon="6.19826">
        <ele>276.20001220703</ele>
        <time>2012-08-18T08:29:59.000Z</time>
      </trkpt>
      <trkpt lat="47.65402" lon="6.19804">
        <ele>276.20001220703</ele>
        <time>2012-08-18T08:30:04.000Z</time>
      </trkpt>
      <trkpt lat="47.65399" lon="6.19799">
        <ele>276.20001220703</ele>
        <time>2012-08-18T08:30:05.000Z</time>
      </trkpt>
      <trkpt lat="47.65386" lon="6.19778">
        <ele>276.20001220703</ele>
        <time>2012-08-18T08:30:10.000Z</time>
      </trkpt>
      <trkpt lat="47.65369" lon="6.1974">
        <ele>275.79998779297</ele>
        <time>2012-08-18T08:30:17.000Z</time>
      </trkpt>
      <trkpt lat="47.65367" lon="6.19734">
        <ele>275.39999389648</ele>
        <time>2012-08-18T08:30:18.000Z</time>
      </trkpt>
      <trkpt lat="47.65364" lon="6.19728">
        <ele>275</ele>
        <time>2012-08-18T08:30:19.000Z</time>
      </trkpt>
      <trkpt lat="47.65362" lon="6.19722">
        <ele>274.60000610352</ele>
        <time>2012-08-18T08:30:20.000Z</time>
      </trkpt>
      <trkpt lat="47.6536" lon="6.19717">
        <ele>274.20001220703</ele>
        <time>2012-08-18T08:30:21.000Z</time>
      </trkpt>
      <trkpt lat="47.65355" lon="6.19706">
        <ele>274.20001220703</ele>
        <time>2012-08-18T08:30:23.000Z</time>
      </trkpt>
      <trkpt lat="47.65351" lon="6.19695">
        <ele>274.20001220703</ele>
        <time>2012-08-18T08:30:25.000Z</time>
      </trkpt>
      <trkpt lat="47.6534" lon="6.19667">
        <ele>274.20001220703</ele>
        <time>2012-08-18T08:30:30.000Z</time>
      </trkpt>
      <trkpt lat="47.65335" lon="6.19648">
        <ele>274.20001220703</ele>
        <time>2012-08-18T08:30:33.000Z</time>
      </trkpt>
      <trkpt lat="47.65319" lon="6.19603">
        <ele>273.79998779297</ele>
        <time>2012-08-18T08:30:40.000Z</time>
      </trkpt>
      <trkpt lat="47.65317" lon="6.19598">
        <ele>273.20001220703</ele>
        <time>2012-08-18T08:30:41.000Z</time>
      </trkpt>
      <trkpt lat="47.65315" lon="6.19593">
        <ele>272.79998779297</ele>
        <time>2012-08-18T08:30:42.000Z</time>
      </trkpt>
      <trkpt lat="47.65313" lon="6.19588">
        <ele>272.39999389648</ele>
        <time>2012-08-18T08:30:43.000Z</time>
      </trkpt>
      <trkpt lat="47.65311" lon="6.19584">
        <ele>272</ele>
        <time>2012-08-18T08:30:44.000Z</time>
      </trkpt>
      <trkpt lat="47.65307" lon="6.19575">
        <ele>272</ele>
        <time>2012-08-18T08:30:46.000Z</time>
      </trkpt>
      <trkpt lat="47.65297" lon="6.19552">
        <ele>272</ele>
        <time>2012-08-18T08:30:53.000Z</time>
      </trkpt>
      <trkpt lat="47.65295" lon="6.19545">
        <ele>272.39999389648</ele>
        <time>2012-08-18T08:30:56.000Z</time>
      </trkpt>
      <trkpt lat="47.65294" lon="6.19542">
        <ele>273</ele>
        <time>2012-08-18T08:30:57.000Z</time>
      </trkpt>
      <trkpt lat="47.65293" lon="6.19539">
        <ele>273.39999389648</ele>
        <time>2012-08-18T08:30:58.000Z</time>
      </trkpt>
      <trkpt lat="47.65292" lon="6.19535">
        <ele>274.20001220703</ele>
        <time>2012-08-18T08:30:59.000Z</time>
      </trkpt>
      <trkpt lat="47.65286" lon="6.19517">
        <ele>274.20001220703</ele>
        <time>2012-08-18T08:31:04.000Z</time>
      </trkpt>
      <trkpt lat="47.65277" lon="6.19494">
        <ele>274.20001220703</ele>
        <time>2012-08-18T08:31:10.000Z</time>
      </trkpt>
      <trkpt lat="47.65262" lon="6.19466">
        <ele>274.20001220703</ele>
        <time>2012-08-18T08:31:18.000Z</time>
      </trkpt>
      <trkpt lat="47.65248" lon="6.1945">
        <ele>274.20001220703</ele>
        <time>2012-08-18T08:31:24.000Z</time>
      </trkpt>
      <trkpt lat="47.65234" lon="6.19431">
        <ele>274.20001220703</ele>
        <time>2012-08-18T08:31:30.000Z</time>
      </trkpt>
      <trkpt lat="47.65224" lon="6.19411">
        <ele>274.20001220703</ele>
        <time>2012-08-18T08:31:35.000Z</time>
      </trkpt>
      <trkpt lat="47.65211" lon="6.19391">
        <ele>274.20001220703</ele>
        <time>2012-08-18T08:31:41.000Z</time>
      </trkpt>
      <trkpt lat="47.65199" lon="6.1937">
        <ele>274.20001220703</ele>
        <time>2012-08-18T08:31:48.000Z</time>
      </trkpt>
      <trkpt lat="47.65183" lon="6.19346">
        <ele>274.60000610352</ele>
        <time>2012-08-18T08:31:57.000Z</time>
      </trkpt>
      <trkpt lat="47.65182" lon="6.19343">
        <ele>275</ele>
        <time>2012-08-18T08:31:58.000Z</time>
      </trkpt>
      <trkpt lat="47.6518" lon="6.19341">
        <ele>275.39999389648</ele>
        <time>2012-08-18T08:31:59.000Z</time>
      </trkpt>
      <trkpt lat="47.65178" lon="6.19338">
        <ele>275.79998779297</ele>
        <time>2012-08-18T08:32:00.000Z</time>
      </trkpt>
      <trkpt lat="47.65176" lon="6.19336">
        <ele>276.20001220703</ele>
        <time>2012-08-18T08:32:01.000Z</time>
      </trkpt>
      <trkpt lat="47.65171" lon="6.19329">
        <ele>276.20001220703</ele>
        <time>2012-08-18T08:32:04.000Z</time>
      </trkpt>
      <trkpt lat="47.65152" lon="6.1931">
        <ele>276.20001220703</ele>
        <time>2012-08-18T08:32:13.000Z</time>
      </trkpt>
      <trkpt lat="47.65136" lon="6.19293">
        <ele>276.20001220703</ele>
        <time>2012-08-18T08:32:20.000Z</time>
      </trkpt>
      <trkpt lat="47.65118" lon="6.19271">
        <ele>276.20001220703</ele>
        <time>2012-08-18T08:32:26.000Z</time>
      </trkpt>
      <trkpt lat="47.65096" lon="6.1924">
        <ele>276.20001220703</ele>
        <time>2012-08-18T08:32:34.000Z</time>
      </trkpt>
      <trkpt lat="47.65076" lon="6.1921">
        <ele>276.20001220703</ele>
        <time>2012-08-18T08:32:42.000Z</time>
      </trkpt>
      <trkpt lat="47.65059" lon="6.19185">
        <ele>276.20001220703</ele>
        <time>2012-08-18T08:32:49.000Z</time>
      </trkpt>
      <trkpt lat="47.65043" lon="6.19162">
        <ele>276.20001220703</ele>
        <time>2012-08-18T08:32:56.000Z</time>
      </trkpt>
      <trkpt lat="47.65034" lon="6.19147">
        <ele>275.79998779297</ele>
        <time>2012-08-18T08:33:00.000Z</time>
      </trkpt>
      <trkpt lat="47.65032" lon="6.19143">
        <ele>275.39999389648</ele>
        <time>2012-08-18T08:33:01.000Z</time>
      </trkpt>
      <trkpt lat="47.65029" lon="6.19139">
        <ele>275</ele>
        <time>2012-08-18T08:33:02.000Z</time>
      </trkpt>
      <trkpt lat="47.65026" lon="6.19134">
        <ele>274.20001220703</ele>
        <time>2012-08-18T08:33:03.000Z</time>
      </trkpt>
      <trkpt lat="47.65009" lon="6.19105">
        <ele>274.20001220703</ele>
        <time>2012-08-18T08:33:10.000Z</time>
      </trkpt>
      <trkpt lat="47.64994" lon="6.19078">
        <ele>274.20001220703</ele>
        <time>2012-08-18T08:33:17.000Z</time>
      </trkpt>
      <trkpt lat="47.64978" lon="6.19047">
        <ele>274.20001220703</ele>
        <time>2012-08-18T08:33:25.000Z</time>
      </trkpt>
      <trkpt lat="47.64971" lon="6.19032">
        <ele>273.79998779297</ele>
        <time>2012-08-18T08:33:29.000Z</time>
      </trkpt>
      <trkpt lat="47.64968" lon="6.19028">
        <ele>273.39999389648</ele>
        <time>2012-08-18T08:33:30.000Z</time>
      </trkpt>
      <trkpt lat="47.64966" lon="6.19023">
        <ele>273</ele>
        <time>2012-08-18T08:33:31.000Z</time>
      </trkpt>
      <trkpt lat="47.64964" lon="6.19019">
        <ele>272.60000610352</ele>
        <time>2012-08-18T08:33:32.000Z</time>
      </trkpt>
      <trkpt lat="47.64962" lon="6.19015">
        <ele>272.20001220703</ele>
        <time>2012-08-18T08:33:33.000Z</time>
      </trkpt>
      <trkpt lat="47.64947" lon="6.18989">
        <ele>272.20001220703</ele>
        <time>2012-08-18T08:33:40.000Z</time>
      </trkpt>
      <trkpt lat="47.64932" lon="6.18962">
        <ele>272.20001220703</ele>
        <time>2012-08-18T08:33:47.000Z</time>
      </trkpt>
      <trkpt lat="47.64916" lon="6.18938">
        <ele>272.20001220703</ele>
        <time>2012-08-18T08:33:54.000Z</time>
      </trkpt>
      <trkpt lat="47.64902" lon="6.18916">
        <ele>271.79998779297</ele>
        <time>2012-08-18T08:34:00.000Z</time>
      </trkpt>
      <trkpt lat="47.649" lon="6.18912">
        <ele>271.39999389648</ele>
        <time>2012-08-18T08:34:01.000Z</time>
      </trkpt>
      <trkpt lat="47.64898" lon="6.1891">
        <ele>271</ele>
        <time>2012-08-18T08:34:02.000Z</time>
      </trkpt>
      <trkpt lat="47.64896" lon="6.18907">
        <ele>270.60000610352</ele>
        <time>2012-08-18T08:34:03.000Z</time>
      </trkpt>
      <trkpt lat="47.64894" lon="6.18904">
        <ele>270.20001220703</ele>
        <time>2012-08-18T08:34:04.000Z</time>
      </trkpt>
      <trkpt lat="47.6489" lon="6.18896">
        <ele>270.20001220703</ele>
        <time>2012-08-18T08:34:06.000Z</time>
      </trkpt>
      <trkpt lat="47.64878" lon="6.18865">
        <ele>270.20001220703</ele>
        <time>2012-08-18T08:34:12.000Z</time>
      </trkpt>
      <trkpt lat="47.64863" lon="6.18834">
        <ele>270.20001220703</ele>
        <time>2012-08-18T08:34:18.000Z</time>
      </trkpt>
      <trkpt lat="47.64851" lon="6.18809">
        <ele>269.60000610352</ele>
        <time>2012-08-18T08:34:22.000Z</time>
      </trkpt>
      <trkpt lat="47.64849" lon="6.18803">
        <ele>269.20001220703</ele>
        <time>2012-08-18T08:34:23.000Z</time>
      </trkpt>
      <trkpt lat="47.64846" lon="6.18796">
        <ele>268.79998779297</ele>
        <time>2012-08-18T08:34:24.000Z</time>
      </trkpt>
      <trkpt lat="47.64843" lon="6.1879">
        <ele>268.39999389648</ele>
        <time>2012-08-18T08:34:25.000Z</time>
      </trkpt>
      <trkpt lat="47.6484" lon="6.18783">
        <ele>268</ele>
        <time>2012-08-18T08:34:26.000Z</time>
      </trkpt>
      <trkpt lat="47.64825" lon="6.18751">
        <ele>268</ele>
        <time>2012-08-18T08:34:31.000Z</time>
      </trkpt>
      <trkpt lat="47.64811" lon="6.18723">
        <ele>267.60000610352</ele>
        <time>2012-08-18T08:34:35.000Z</time>
      </trkpt>
      <trkpt lat="47.64808" lon="6.18716">
        <ele>267.20001220703</ele>
        <time>2012-08-18T08:34:36.000Z</time>
      </trkpt>
      <trkpt lat="47.64804" lon="6.18708">
        <ele>266.79998779297</ele>
        <time>2012-08-18T08:34:37.000Z</time>
      </trkpt>
      <trkpt lat="47.648" lon="6.18701">
        <ele>266.39999389648</ele>
        <time>2012-08-18T08:34:38.000Z</time>
      </trkpt>
      <trkpt lat="47.64795" lon="6.18693">
        <ele>266</ele>
        <time>2012-08-18T08:34:39.000Z</time>
      </trkpt>
      <trkpt lat="47.64783" lon="6.1867">
        <ele>265</ele>
        <time>2012-08-18T08:34:42.000Z</time>
      </trkpt>
      <trkpt lat="47.64778" lon="6.18662">
        <ele>264.60000610352</ele>
        <time>2012-08-18T08:34:43.000Z</time>
      </trkpt>
      <trkpt lat="47.64774" lon="6.18655">
        <ele>264.20001220703</ele>
        <time>2012-08-18T08:34:44.000Z</time>
      </trkpt>
      <trkpt lat="47.64771" lon="6.18647">
        <ele>263.60000610352</ele>
        <time>2012-08-18T08:34:45.000Z</time>
      </trkpt>
      <trkpt lat="47.64748" lon="6.18605">
        <ele>263.60000610352</ele>
        <time>2012-08-18T08:34:51.000Z</time>
      </trkpt>
      <trkpt lat="47.64725" lon="6.18563">
        <ele>263.60000610352</ele>
        <time>2012-08-18T08:34:58.000Z</time>
      </trkpt>
      <trkpt lat="47.64707" lon="6.18524">
        <ele>263.60000610352</ele>
        <time>2012-08-18T08:35:05.000Z</time>
      </trkpt>
      <trkpt lat="47.64705" lon="6.18519">
        <ele>263.60000610352</ele>
        <time>2012-08-18T08:35:06.000Z</time>
      </trkpt>
      <trkpt lat="47.64692" lon="6.18495">
        <ele>263.20001220703</ele>
        <time>2012-08-18T08:35:11.000Z</time>
      </trkpt>
      <trkpt lat="47.6469" lon="6.18491">
        <ele>262.79998779297</ele>
        <time>2012-08-18T08:35:12.000Z</time>
      </trkpt>
      <trkpt lat="47.64687" lon="6.18488">
        <ele>262.39999389648</ele>
        <time>2012-08-18T08:35:13.000Z</time>
      </trkpt>
      <trkpt lat="47.64684" lon="6.18484">
        <ele>262</ele>
        <time>2012-08-18T08:35:14.000Z</time>
      </trkpt>
      <trkpt lat="47.64682" lon="6.18481">
        <ele>261.60000610352</ele>
        <time>2012-08-18T08:35:15.000Z</time>
      </trkpt>
      <trkpt lat="47.64675" lon="6.18478">
        <ele>261.60000610352</ele>
        <time>2012-08-18T08:35:17.000Z</time>
      </trkpt>
      <trkpt lat="47.64663" lon="6.18487">
        <ele>261.60000610352</ele>
        <time>2012-08-18T08:35:20.000Z</time>
      </trkpt>
      <trkpt lat="47.64652" lon="6.18505">
        <ele>261</ele>
        <time>2012-08-18T08:35:23.000Z</time>
      </trkpt>
      <trkpt lat="47.64648" lon="6.18512">
        <ele>260.60000610352</ele>
        <time>2012-08-18T08:35:24.000Z</time>
      </trkpt>
      <trkpt lat="47.64645" lon="6.18519">
        <ele>260.20001220703</ele>
        <time>2012-08-18T08:35:25.000Z</time>
      </trkpt>
      <trkpt lat="47.64642" lon="6.18527">
        <ele>259.79998779297</ele>
        <time>2012-08-18T08:35:26.000Z</time>
      </trkpt>
      <trkpt lat="47.64637" lon="6.18535">
        <ele>259.39999389648</ele>
        <time>2012-08-18T08:35:27.000Z</time>
      </trkpt>
      <trkpt lat="47.64632" lon="6.18542">
        <ele>258.79998779297</ele>
        <time>2012-08-18T08:35:28.000Z</time>
      </trkpt>
      <trkpt lat="47.64629" lon="6.18549">
        <ele>258.39999389648</ele>
        <time>2012-08-18T08:35:29.000Z</time>
      </trkpt>
      <trkpt lat="47.64627" lon="6.18555">
        <ele>257.79998779297</ele>
        <time>2012-08-18T08:35:30.000Z</time>
      </trkpt>
      <trkpt lat="47.64625" lon="6.18562">
        <ele>256.79998779297</ele>
        <time>2012-08-18T08:35:31.000Z</time>
      </trkpt>
      <trkpt lat="47.64623" lon="6.18568">
        <ele>256.39999389648</ele>
        <time>2012-08-18T08:35:32.000Z</time>
      </trkpt>
      <trkpt lat="47.64622" lon="6.18574">
        <ele>255.80000305176</ele>
        <time>2012-08-18T08:35:33.000Z</time>
      </trkpt>
      <trkpt lat="47.6462" lon="6.1858">
        <ele>255.19999694824</ele>
        <time>2012-08-18T08:35:34.000Z</time>
      </trkpt>
      <trkpt lat="47.64617" lon="6.18584">
        <ele>254.80000305176</ele>
        <time>2012-08-18T08:35:35.000Z</time>
      </trkpt>
      <trkpt lat="47.64614" lon="6.18587">
        <ele>254.19999694824</ele>
        <time>2012-08-18T08:35:36.000Z</time>
      </trkpt>
      <trkpt lat="47.6461" lon="6.18588">
        <ele>253.60000610352</ele>
        <time>2012-08-18T08:35:37.000Z</time>
      </trkpt>
      <trkpt lat="47.64606" lon="6.18588">
        <ele>253.19999694824</ele>
        <time>2012-08-18T08:35:38.000Z</time>
      </trkpt>
      <trkpt lat="47.64602" lon="6.18587">
        <ele>252.60000610352</ele>
        <time>2012-08-18T08:35:39.000Z</time>
      </trkpt>
      <trkpt lat="47.64598" lon="6.18586">
        <ele>252</ele>
        <time>2012-08-18T08:35:40.000Z</time>
      </trkpt>
      <trkpt lat="47.64595" lon="6.18584">
        <ele>251.39999389648</ele>
        <time>2012-08-18T08:35:41.000Z</time>
      </trkpt>
      <trkpt lat="47.64591" lon="6.18583">
        <ele>251</ele>
        <time>2012-08-18T08:35:42.000Z</time>
      </trkpt>
      <trkpt lat="47.64587" lon="6.18581">
        <ele>250.39999389648</ele>
        <time>2012-08-18T08:35:43.000Z</time>
      </trkpt>
      <trkpt lat="47.64576" lon="6.18576">
        <ele>250.39999389648</ele>
        <time>2012-08-18T08:35:46.000Z</time>
      </trkpt>
      <trkpt lat="47.64559" lon="6.18567">
        <ele>250</ele>
        <time>2012-08-18T08:35:52.000Z</time>
      </trkpt>
      <trkpt lat="47.64556" lon="6.18566">
        <ele>249.60000610352</ele>
        <time>2012-08-18T08:35:53.000Z</time>
      </trkpt>
      <trkpt lat="47.64553" lon="6.18565">
        <ele>249</ele>
        <time>2012-08-18T08:35:54.000Z</time>
      </trkpt>
      <trkpt lat="47.6455" lon="6.18563">
        <ele>248.19999694824</ele>
        <time>2012-08-18T08:35:55.000Z</time>
      </trkpt>
      <trkpt lat="47.64538" lon="6.18558">
        <ele>248.19999694824</ele>
        <time>2012-08-18T08:35:58.000Z</time>
      </trkpt>
      <trkpt lat="47.64529" lon="6.18554">
        <ele>247.80000305176</ele>
        <time>2012-08-18T08:36:00.000Z</time>
      </trkpt>
      <trkpt lat="47.64525" lon="6.18552">
        <ele>247.39999389648</ele>
        <time>2012-08-18T08:36:01.000Z</time>
      </trkpt>
      <trkpt lat="47.6452" lon="6.1855">
        <ele>247</ele>
        <time>2012-08-18T08:36:02.000Z</time>
      </trkpt>
      <trkpt lat="47.64516" lon="6.18549">
        <ele>246.39999389648</ele>
        <time>2012-08-18T08:36:03.000Z</time>
      </trkpt>
      <trkpt lat="47.64512" lon="6.18547">
        <ele>246</ele>
        <time>2012-08-18T08:36:04.000Z</time>
      </trkpt>
      <trkpt lat="47.64508" lon="6.18545">
        <ele>245.60000610352</ele>
        <time>2012-08-18T08:36:05.000Z</time>
      </trkpt>
      <trkpt lat="47.64504" lon="6.18543">
        <ele>245.19999694824</ele>
        <time>2012-08-18T08:36:06.000Z</time>
      </trkpt>
      <trkpt lat="47.64501" lon="6.18542">
        <ele>244.80000305176</ele>
        <time>2012-08-18T08:36:07.000Z</time>
      </trkpt>
      <trkpt lat="47.64498" lon="6.18541">
        <ele>244.39999389648</ele>
        <time>2012-08-18T08:36:08.000Z</time>
      </trkpt>
      <trkpt lat="47.64495" lon="6.1854">
        <ele>244</ele>
        <time>2012-08-18T08:36:09.000Z</time>
      </trkpt>
      <trkpt lat="47.64489" lon="6.18536">
        <ele>243.60000610352</ele>
        <time>2012-08-18T08:36:11.000Z</time>
      </trkpt>
      <trkpt lat="47.64485" lon="6.18533">
        <ele>243.19999694824</ele>
        <time>2012-08-18T08:36:12.000Z</time>
      </trkpt>
      <trkpt lat="47.64482" lon="6.18531">
        <ele>242.60000610352</ele>
        <time>2012-08-18T08:36:13.000Z</time>
      </trkpt>
      <trkpt lat="47.64479" lon="6.18528">
        <ele>242.19999694824</ele>
        <time>2012-08-18T08:36:14.000Z</time>
      </trkpt>
      <trkpt lat="47.64477" lon="6.18526">
        <ele>241.80000305176</ele>
        <time>2012-08-18T08:36:15.000Z</time>
      </trkpt>
      <trkpt lat="47.64467" lon="6.18518">
        <ele>241.80000305176</ele>
        <time>2012-08-18T08:36:20.000Z</time>
      </trkpt>
      <trkpt lat="47.64453" lon="6.18505">
        <ele>241.80000305176</ele>
        <time>2012-08-18T08:36:26.000Z</time>
      </trkpt>
      <trkpt lat="47.64442" lon="6.18491">
        <ele>241.80000305176</ele>
        <time>2012-08-18T08:36:32.000Z</time>
      </trkpt>
      <trkpt lat="47.6443" lon="6.18483">
        <ele>241.80000305176</ele>
        <time>2012-08-18T08:36:37.000Z</time>
      </trkpt>
      <trkpt lat="47.64418" lon="6.18482">
        <ele>241.80000305176</ele>
        <time>2012-08-18T08:36:42.000Z</time>
      </trkpt>
      <trkpt lat="47.64404" lon="6.18479">
        <ele>241.80000305176</ele>
        <time>2012-08-18T08:36:48.000Z</time>
      </trkpt>
      <trkpt lat="47.64403" lon="6.18478">
        <ele>241.19999694824</ele>
        <time>2012-08-18T08:36:49.000Z</time>
      </trkpt>
      <trkpt lat="47.64401" lon="6.18478">
        <ele>240.80000305176</ele>
        <time>2012-08-18T08:36:50.000Z</time>
      </trkpt>
      <trkpt lat="47.644" lon="6.18478">
        <ele>240.39999389648</ele>
        <time>2012-08-18T08:36:51.000Z</time>
      </trkpt>
      <trkpt lat="47.64398" lon="6.18477">
        <ele>240</ele>
        <time>2012-08-18T08:36:52.000Z</time>
      </trkpt>
      <trkpt lat="47.64396" lon="6.18477">
        <ele>239.60000610352</ele>
        <time>2012-08-18T08:36:53.000Z</time>
      </trkpt>
      <trkpt lat="47.64395" lon="6.18475">
        <ele>239.60000610352</ele>
        <time>2012-08-18T08:36:54.000Z</time>
      </trkpt>
      <trkpt lat="47.64389" lon="6.18473">
        <ele>239.60000610352</ele>
        <time>2012-08-18T08:36:57.000Z</time>
      </trkpt>
      <trkpt lat="47.64386" lon="6.18472">
        <ele>239.60000610352</ele>
        <time>2012-08-18T08:36:58.000Z</time>
      </trkpt>
      <trkpt lat="47.64376" lon="6.1847">
        <ele>239</ele>
        <time>2012-08-18T08:37:01.000Z</time>
      </trkpt>
      <trkpt lat="47.64373" lon="6.1847">
        <ele>238.60000610352</ele>
        <time>2012-08-18T08:37:02.000Z</time>
      </trkpt>
      <trkpt lat="47.64371" lon="6.18469">
        <ele>238.19999694824</ele>
        <time>2012-08-18T08:37:03.000Z</time>
      </trkpt>
      <trkpt lat="47.64368" lon="6.18468">
        <ele>237.80000305176</ele>
        <time>2012-08-18T08:37:04.000Z</time>
      </trkpt>
      <trkpt lat="47.64365" lon="6.18466">
        <ele>237.19999694824</ele>
        <time>2012-08-18T08:37:05.000Z</time>
      </trkpt>
      <trkpt lat="47.64359" lon="6.18463">
        <ele>237.19999694824</ele>
        <time>2012-08-18T08:37:07.000Z</time>
      </trkpt>
      <trkpt lat="47.64355" lon="6.18459">
        <ele>236.39999389648</ele>
        <time>2012-08-18T08:37:09.000Z</time>
      </trkpt>
      <trkpt lat="47.64352" lon="6.18457">
        <ele>236</ele>
        <time>2012-08-18T08:37:10.000Z</time>
      </trkpt>
      <trkpt lat="47.6435" lon="6.18455">
        <ele>235.39999389648</ele>
        <time>2012-08-18T08:37:11.000Z</time>
      </trkpt>
      <trkpt lat="47.64347" lon="6.18453">
        <ele>235</ele>
        <time>2012-08-18T08:37:12.000Z</time>
      </trkpt>
      <trkpt lat="47.64345" lon="6.1845">
        <ele>234.60000610352</ele>
        <time>2012-08-18T08:37:13.000Z</time>
      </trkpt>
      <trkpt lat="47.64343" lon="6.18448">
        <ele>234.19999694824</ele>
        <time>2012-08-18T08:37:14.000Z</time>
      </trkpt>
      <trkpt lat="47.6434" lon="6.18445">
        <ele>233.60000610352</ele>
        <time>2012-08-18T08:37:15.000Z</time>
      </trkpt>
      <trkpt lat="47.64338" lon="6.18443">
        <ele>233.19999694824</ele>
        <time>2012-08-18T08:37:16.000Z</time>
      </trkpt>
      <trkpt lat="47.64337" lon="6.1844">
        <ele>232.80000305176</ele>
        <time>2012-08-18T08:37:17.000Z</time>
      </trkpt>
      <trkpt lat="47.64335" lon="6.18433">
        <ele>232.39999389648</ele>
        <time>2012-08-18T08:37:19.000Z</time>
      </trkpt>
      <trkpt lat="47.64335" lon="6.18428">
        <ele>231.80000305176</ele>
        <time>2012-08-18T08:37:20.000Z</time>
      </trkpt>
      <trkpt lat="47.64337" lon="6.18424">
        <ele>231.39999389648</ele>
        <time>2012-08-18T08:37:21.000Z</time>
      </trkpt>
      <trkpt lat="47.64339" lon="6.18419">
        <ele>231</ele>
        <time>2012-08-18T08:37:22.000Z</time>
      </trkpt>
      <trkpt lat="47.64342" lon="6.18414">
        <ele>230.60000610352</ele>
        <time>2012-08-18T08:37:23.000Z</time>
      </trkpt>
      <trkpt lat="47.64343" lon="6.1841">
        <ele>230.60000610352</ele>
        <time>2012-08-18T08:37:24.000Z</time>
      </trkpt>
      <trkpt lat="47.64352" lon="6.18394">
        <ele>230.60000610352</ele>
        <time>2012-08-18T08:37:28.000Z</time>
      </trkpt>
      <trkpt lat="47.64367" lon="6.18374">
        <ele>230.60000610352</ele>
        <time>2012-08-18T08:37:34.000Z</time>
      </trkpt>
      <trkpt lat="47.64376" lon="6.18367">
        <ele>230.60000610352</ele>
        <time>2012-08-18T08:37:39.000Z</time>
      </trkpt>
      <trkpt lat="47.64387" lon="6.18359">
        <ele>230.60000610352</ele>
        <time>2012-08-18T08:37:46.000Z</time>
      </trkpt>
      <trkpt lat="47.64397" lon="6.18349">
        <ele>230.60000610352</ele>
        <time>2012-08-18T08:37:51.000Z</time>
      </trkpt>
      <trkpt lat="47.64412" lon="6.18333">
        <ele>230.60000610352</ele>
        <time>2012-08-18T08:37:58.000Z</time>
      </trkpt>
      <trkpt lat="47.64422" lon="6.18323">
        <ele>230.60000610352</ele>
        <time>2012-08-18T08:38:04.000Z</time>
      </trkpt>
      <trkpt lat="47.64424" lon="6.18322">
        <ele>230.60000610352</ele>
        <time>2012-08-18T08:38:07.000Z</time>
      </trkpt>
      <trkpt lat="47.64428" lon="6.18318">
        <ele>230.19999694824</ele>
        <time>2012-08-18T08:38:34.000Z</time>
      </trkpt>
      <trkpt lat="47.64429" lon="6.18317">
        <ele>229.80000305176</ele>
        <time>2012-08-18T08:38:35.000Z</time>
      </trkpt>
      <trkpt lat="47.64431" lon="6.18316">
        <ele>229.19999694824</ele>
        <time>2012-08-18T08:38:36.000Z</time>
      </trkpt>
      <trkpt lat="47.64432" lon="6.18315">
        <ele>228.80000305176</ele>
        <time>2012-08-18T08:38:37.000Z</time>
      </trkpt>
      <trkpt lat="47.64433" lon="6.18313">
        <ele>228.39999389648</ele>
        <time>2012-08-18T08:38:38.000Z</time>
      </trkpt>
      <trkpt lat="47.64436" lon="6.18309">
        <ele>228.39999389648</ele>
        <time>2012-08-18T08:38:40.000Z</time>
      </trkpt>
      <trkpt lat="47.64437" lon="6.18309">
        <ele>228.39999389648</ele>
        <time>2012-08-18T08:38:41.000Z</time>
      </trkpt>
      <trkpt lat="47.64441" lon="6.18316">
        <ele>228.39999389648</ele>
        <time>2012-08-18T08:38:45.000Z</time>
      </trkpt>
      <trkpt lat="47.64439" lon="6.18328">
        <ele>228.39999389648</ele>
        <time>2012-08-18T08:38:52.000Z</time>
      </trkpt>
      <trkpt lat="47.64439" lon="6.1833">
        <ele>228.39999389648</ele>
        <time>2012-08-18T08:38:54.000Z</time>
      </trkpt>
    </trkseg>
  </trk>
</gpx>